[[{"header":{"parameterUnit":"m.s-1","parameterCategory":1,"la1":31.0,"la2":29.5877,"lo1":-88.7671,"lo2":-86.6584,"dy":0.0162,"dx":0.0185,"nx":115,"ny":88,"refTime":"2024-07-07T06:00:00:Z","depth":0,"parameterNumber":2,"parameterNumberName":"U-component_of_WINDS"},"data":[0.0,0.0,0.0,0.0,0.0,0.0,0.0,0.0,0.0,0.0,0.0,0.0,0.0,0.0,0.0,0.0,0.0,0.0,0.0,0.0,0.0,0.0,0.0,0.0,0.0,0.0,0.0,0.0,0.0,0.0,0.0,0.0,0.0,0.0,0.0,0.0,0.0,0.0,0.0,0.0,0.0,0.0,0.0,0.0,0.0,0.0,0.0,0.0,0.0,0.0,0.0,0.0,0.0,0.0,0.0,0.0,0.0,0.0,0.0,0.0,0.0,0.0,0.0,0.0,0.0,0.0,0.0,0.0,0.0,0.0,0.0,0.0,0.0,0.0,0.0,0.0,0.0,0.0,0.0,0.0,0.0,0.0,0.0,0.0,0.0,0.0,0.0,0.0,0.0,0.0,0.0,0.0,0.0,0.0,0.0,0.0,0.0,0.0,0.0,0.0,0.0,0.0,0.0,0.0,0.0,0.0,0.0,0.0,0.0,0.0,0.0,0.0,0.0,0.0,0.0,0.0,0.0,0.0,0.0,0.0,0.0,0.0,0.0,0.0,0.0,0.0,0.0,0.0,0.0,0.0,0.0,0.0,0.0,0.0,0.0,0.0,0.0,0.0,0.0,0.0,0.0,0.0,0.0,0.0,0.0,0.0,0.0,0.0,0.0,0.0,0.0,0.0,0.0,0.0,0.0,0.0,0.0,0.0,0.0,0.0,0.0,0.0,0.0,0.0,0.0,0.0,0.0,0.0,0.0,0.0,0.0,0.0,0.0,0.0,0.0,0.0,0.0,0.0,0.0,0.0,0.0,0.0,0.0,0.0,0.0,0.0,0.0,0.0,0.0,0.0,0.0,0.0,0.0,0.0,0.0,0.0,0.0,0.0,0.0,0.0,0.0,0.0,0.0,0.0,0.0,0.0,0.0,0.0,0.0,0.0,0.0,0.0,0.0,0.0,0.0,0.0,0.0,0.0,0.0,0.0,0.0,0.0,0.0,0.0,0.0,0.0,0.0,0.0,0.0,0.0,0.0,0.0,0.0,0.0,0.0,0.0,0.0,0.0,0.0,0.0,0.0,0.0,0.0,0.0,0.0,0.0,0.0,0.0,0.0,0.0,0.0,0.0,0.0,0.0,0.0,0.0,0.0,0.0,0.0,0.0,0.0,0.0,0.0,0.0,0.0,0.0,0.0,0.0,0.0,0.0,0.0,0.0,0.0,0.0,0.0,0.0,0.0,0.0,0.0,0.0,0.0,0.0,0.0,0.0,0.0,0.0,0.0,0.0,0.0,0.0,0.0,0.0,0.0,0.0,0.0,0.0,0.0,0.0,0.0,0.0,0.0,0.0,0.0,0.0,0.0,0.0,0.0,0.0,0.0,0.0,0.0,0.0,0.0,0.0,0.0,0.0,0.0,0.0,0.0,0.0,0.0,0.0,0.0,0.0,0.0,0.0,0.0,0.0,0.0,0.0,0.0,0.0,0.0,0.0,0.0,0.0,0.0,0.0,0.0,0.0,0.0,0.0,0.0,0.0,0.0,0.0,0.0,0.0,0.0,0.0,0.0,0.0,0.0,0.0,0.0,0.0,0.0,0.0,0.0,0.0,0.0,0.0,0.0,0.0,0.0,0.0,0.0,0.0,0.0,0.0,0.0,0.0,0.0,0.0,0.0,0.0,0.0,0.0,0.0,0.0,0.0,0.0,0.0,0.0,0.0,0.0,0.0,0.0,0.0,0.0,0.0,0.0,0.0,0.0,0.0,0.0,0.0,0.0,0.0,0.0,0.0,0.0,0.0,0.0,0.0,0.0,0.0,0.0,0.0,0.0,0.0,0.0,0.0,0.0,0.0,0.0,0.0,0.0,0.0,0.0,0.0,0.0,0.0,0.0,0.0,0.0,0.0,0.0,0.0,0.0,0.0,0.0,0.0,0.0,0.0,0.0,0.0,0.0,0.0,0.0,0.0,0.0,0.0,0.0,0.0,0.0,0.0,0.0,0.0,0.0,0.0,0.0,0.0,0.0,0.0,0.0,0.0,0.0,0.0,0.0,0.0,0.0,0.0,0.0,0.0,0.0,0.0,0.0,0.0,0.0,0.0,0.0,0.0,0.0,0.0,0.0,0.0,0.0,0.0,0.0,0.0,0.0,0.0,0.0,0.0,0.0,0.0,0.0,0.0,0.0,0.0,0.0,0.0,0.0,0.0,0.0,0.0,0.0,0.0,0.0,0.0,0.0,0.0,0.0,0.0,0.0,0.0,0.0,0.0,0.0,0.0,0.0,0.0,0.0,0.0,0.0,0.0,0.0,0.0,0.0,0.0,0.0,0.0,0.0,0.0,0.0,0.0,0.0,0.0,0.0,0.0,0.0,0.0,0.0,0.0,0.0,0.0,0.0,0.0,0.0,0.0,0.0,0.0,0.0,0.0,0.0,0.0,0.0,0.0,0.0,0.0,0.0,0.0,0.0,0.0,0.0,0.0,0.0,0.0,0.0,0.0,0.0,0.0,0.0,0.0,0.0,0.0,0.0,0.0,0.0,0.0,0.0,0.0,0.0,0.0,0.0,0.0,0.0,0.0,0.0,0.0,0.0,0.0,0.0,0.0,0.0,0.0,0.0,0.0,0.0,0.0,0.0,0.0,0.0,0.0,0.0,0.0,0.0,0.0,0.0,0.0,0.0,0.0,0.0,0.0,0.0,0.0,0.0,0.0,0.0,0.0,0.0,0.0,0.0,0.0,0.0,0.0,0.0,0.0,0.0,0.0,0.0,0.0,0.0,0.0,0.0,0.0,0.0,0.0,0.0,0.0,0.0,0.0,0.0,0.0,0.0,0.0,0.0,0.0,0.0,0.0,0.0,0.0,0.0,0.0,0.0,0.0,0.0,0.0,0.0,0.0,0.0,0.0,0.0,0.0,0.0,0.0,0.0,0.0,0.0,0.0,0.0,0.0,0.0,0.0,0.0,0.0,0.0,0.0,0.0,0.0,0.0,0.0,0.0,0.0,0.0,0.0,0.0,0.0,0.0,0.0,0.0,0.0,0.0,0.0,0.0,0.0,0.0,0.0,0.0,0.0,0.0,0.0,0.0,0.0,0.0,0.0,0.0,0.0,0.0,0.0,0.0,0.0,0.0,0.0,0.0,0.0,0.0,0.0,0.0,0.0,0.0,0.0,0.0,0.0,0.0,0.0,0.0,0.0,0.0,0.0,0.0,0.0,0.0,0.0,0.0,0.0,0.0,0.0,0.0,0.0,0.0,0.0,0.0,0.0,0.0,0.0,0.0,0.0,0.0,0.0,0.0,0.0,0.0,0.0,0.0,0.0,0.0,0.0,0.0,0.0,0.0,0.0,0.0,0.0,0.0,0.0,0.0,0.0,0.0,0.0,0.0,0.0,0.0,0.0,0.0,0.0,0.0,0.0,0.0,0.0,0.0,0.0,0.0,0.0,0.0,0.0,0.0,0.0,0.0,0.0,0.0,0.0,0.0,0.0,0.0,0.0,0.0,0.0,0.0,0.0,0.0,0.0,0.0,0.0,0.0,0.0,0.0,0.0,0.0,0.0,0.0,0.0,0.0,0.0,0.0,0.0,0.0,0.0,0.0,0.0,0.0,0.0,0.0,0.0,0.0,0.0,0.0,0.0,0.0,0.0,0.0,0.0,0.0,0.0,0.0,0.0,0.0,0.0,0.0,0.0,0.0,0.0,0.0,0.0,0.0,0.0,0.0,0.0,0.0,0.0,0.0,0.0,0.0,0.0,0.0,0.0,0.0,0.0,0.0,0.0,0.0,0.0,0.0,0.0,0.0,0.0,0.0,0.0,0.0,0.0,0.0,0.0,0.0,0.0,0.0,0.0,0.0,0.0,0.0,0.0,0.0,0.0,0.0,0.0,0.0,0.0,0.0,0.0,0.0,0.0,0.0,0.0,0.0,0.0,0.0,0.0,0.0,0.0,0.0,0.0,0.0,0.0,0.0,0.0,0.0,0.0,0.0,0.0,0.0,0.0,0.0,0.0,0.0,0.0,0.0,0.0,0.0,0.0,0.0,0.0,0.0,0.0,0.0,0.0,0.0,0.0,0.0,0.0,0.0,0.0,0.0,0.0,0.0,0.0,0.0,0.0,0.0,0.0,0.0,0.0,0.0,0.0,0.0,0.0,0.0,0.0,0.0,0.0,0.0,0.0,0.0,0.0,0.0,0.0,0.0,0.0,0.0,0.0,0.0,0.0,0.0,0.0,0.0,0.0,0.0,0.0,0.0,0.0,0.0,0.0,0.0,0.0,0.0,0.0,0.0,-2.0585,0.0,0.0,0.0,0.0,0.0,0.0,0.0,0.0,0.0,0.0,0.0,0.0,0.0,0.0,0.0,0.0,0.0,0.0,0.0,0.0,0.0,0.0,0.0,0.0,0.0,0.0,0.0,0.0,0.0,0.0,0.0,0.0,0.0,0.0,0.0,0.0,0.0,0.0,0.0,0.0,0.0,0.0,0.0,0.0,0.0,0.0,0.0,0.0,0.0,0.0,0.0,0.0,0.0,0.0,0.0,0.0,0.0,0.0,0.0,0.0,0.0,0.0,0.0,0.0,0.0,0.0,0.0,0.0,0.0,0.0,0.0,0.0,0.0,0.0,0.0,0.0,0.0,0.0,0.0,0.0,0.0,0.0,0.0,0.0,0.0,0.0,0.0,0.0,0.0,0.0,0.0,0.0,0.0,0.0,0.0,0.0,0.0,0.0,0.0,0.0,0.0,0.0,0.0,0.0,0.0,0.0,0.0,0.0,0.0,0.0,-2.1748,-2.0457,-2.2563,-2.2671,-2.0437,0.0,0.0,0.0,0.0,0.0,0.0,0.0,0.0,0.0,0.0,0.0,0.0,0.0,0.0,0.0,0.0,0.0,0.0,0.0,0.0,0.0,0.0,0.0,0.0,0.0,0.0,0.0,0.0,0.0,0.0,0.0,0.0,0.0,0.0,0.0,0.0,0.0,0.0,0.0,0.0,0.0,0.0,0.0,0.0,0.0,0.0,0.0,0.0,0.0,0.0,0.0,0.0,0.0,0.0,0.0,0.0,0.0,0.0,0.0,0.0,0.0,0.0,0.0,0.0,0.0,0.0,0.0,0.0,0.0,0.0,0.0,0.0,0.0,0.0,0.0,0.0,0.0,0.0,0.0,0.0,0.0,0.0,0.0,0.0,0.0,0.0,0.0,0.0,0.0,0.0,0.0,0.0,0.0,0.0,0.0,0.0,0.0,0.0,0.0,0.0,0.0,0.0,0.0,0.0,0.0,0.0,0.0,0.0,0.0,0.0,0.0,0.0,-2.3548,-2.3582,-2.1288,0.0,0.0,0.0,0.0,0.0,0.0,0.0,0.0,0.0,0.0,0.0,0.0,0.0,0.0,0.0,0.0,0.0,0.0,0.0,0.0,0.0,0.0,0.0,0.0,0.0,0.0,0.0,0.0,0.0,0.0,0.0,0.0,0.0,0.0,0.0,0.0,0.0,0.0,0.0,0.0,0.0,0.0,0.0,0.0,0.0,0.0,0.0,0.0,0.0,0.0,0.0,0.0,0.0,0.0,0.0,0.0,0.0,0.0,0.0,0.0,0.0,0.0,0.0,0.0,0.0,0.0,0.0,0.0,0.0,0.0,0.0,0.0,0.0,0.0,0.0,0.0,0.0,0.0,0.0,0.0,0.0,0.0,0.0,0.0,0.0,0.0,0.0,0.0,0.0,0.0,0.0,0.0,0.0,0.0,0.0,0.0,0.0,0.0,0.0,0.0,0.0,0.0,0.0,0.0,0.0,0.0,0.0,0.0,0.0,0.0,-2.3668,-2.4996,-2.5272,0.0,-2.3727,0.0,0.0,0.0,0.0,0.0,0.0,0.0,0.0,0.0,0.0,0.0,0.0,0.0,0.0,0.0,0.0,0.0,0.0,0.0,0.0,0.0,0.0,0.0,0.0,0.0,0.0,0.0,0.0,0.0,0.0,0.0,0.0,0.0,0.0,0.0,0.0,0.0,0.0,0.0,0.0,0.0,0.0,0.0,0.0,0.0,0.0,0.0,0.0,0.0,0.0,0.0,0.0,0.0,0.0,0.0,0.0,0.0,0.0,0.0,0.0,0.0,0.0,0.0,0.0,0.0,0.0,0.0,0.0,0.0,0.0,0.0,0.0,0.0,0.0,0.0,0.0,0.0,0.0,0.0,0.0,0.0,0.0,0.0,0.0,0.0,0.0,0.0,0.0,0.0,0.0,0.0,0.0,0.0,0.0,0.0,0.0,0.0,0.0,0.0,0.0,0.0,0.0,0.0,0.0,0.0,0.0,0.0,0.0,0.0,0.0,-2.4085,-2.621,-2.5703,-2.4565,0.0,0.0,0.0,0.0,0.0,0.0,0.0,0.0,0.0,0.0,0.0,0.0,0.0,0.0,0.0,0.0,0.0,0.0,0.0,0.0,0.0,0.0,0.0,0.0,0.0,0.0,0.0,0.0,0.0,0.0,0.0,0.0,0.0,0.0,0.0,0.0,0.0,0.0,0.0,0.0,0.0,0.0,0.0,0.0,0.0,0.0,0.0,0.0,0.0,0.0,0.0,0.0,0.0,0.0,0.0,0.0,0.0,0.0,0.0,0.0,0.0,0.0,0.0,0.0,0.0,0.0,0.0,0.0,0.0,0.0,0.0,0.0,0.0,0.0,0.0,0.0,0.0,0.0,0.0,0.0,0.0,0.0,0.0,0.0,0.0,0.0,0.0,0.0,0.0,0.0,0.0,0.0,0.0,0.0,0.0,0.0,0.0,0.0,0.0,0.0,0.0,0.0,0.0,0.0,0.0,0.0,0.0,0.0,0.0,0.0,-2.5195,0.0,-2.7947,-2.5975,-2.4137,-2.2794,0.0,0.0,0.0,0.0,0.0,0.0,0.0,0.0,0.0,0.0,0.0,0.0,0.0,0.0,0.0,0.0,0.0,0.0,0.0,0.0,0.0,0.0,0.0,0.0,0.0,0.0,0.0,0.0,0.0,0.0,0.0,0.0,0.0,0.0,0.0,0.0,0.0,0.0,0.0,0.0,0.0,0.0,0.0,0.0,0.0,0.0,0.0,0.0,0.0,0.0,0.0,0.0,0.0,0.0,0.0,0.0,0.0,0.0,0.0,0.0,0.0,0.0,0.0,0.0,0.0,0.0,0.0,0.0,0.0,0.0,0.0,0.0,0.0,0.0,0.0,0.0,0.0,0.0,0.0,0.0,0.0,0.0,0.0,0.0,0.0,0.0,0.0,0.0,0.0,0.0,0.0,0.0,0.0,0.0,0.0,0.0,0.0,0.0,0.0,0.0,0.0,0.0,0.0,0.0,0.0,0.0,0.0,0.0,0.0,-3.026,-2.9909,-3.1394,-2.6192,-2.3867,0.0,0.0,0.0,0.0,0.0,0.0,0.0,0.0,0.0,0.0,0.0,0.0,0.0,0.0,0.0,0.0,0.0,0.0,0.0,0.0,0.0,0.0,0.0,0.0,0.0,0.0,0.0,0.0,0.0,0.0,0.0,0.0,0.0,0.0,0.0,0.0,0.0,0.0,0.0,0.0,0.0,0.0,0.0,0.0,0.0,0.0,0.0,0.0,0.0,0.0,0.0,0.0,0.0,0.0,0.0,0.0,0.0,0.0,0.0,0.0,0.0,0.0,0.0,0.0,0.0,0.0,0.0,0.0,0.0,0.0,0.0,0.0,0.0,0.0,0.0,0.0,0.0,0.0,0.0,0.0,0.0,0.0,0.0,0.0,0.0,0.0,0.0,0.0,0.0,0.0,0.0,0.0,0.0,0.0,0.0,0.0,0.0,0.0,0.0,0.0,0.0,0.0,0.0,0.0,0.0,0.0,0.0,0.0,0.0,-2.8325,-2.9535,-3.0214,-3.0219,-2.7626,-2.6275,0.0,0.0,0.0,0.0,0.0,0.0,0.0,0.0,0.0,0.0,0.0,0.0,0.0,0.0,0.0,0.0,0.0,0.0,0.0,0.0,0.0,0.0,0.0,0.0,0.0,0.0,0.0,0.0,0.0,0.0,0.0,0.0,0.0,0.0,0.0,0.0,0.0,0.0,0.0,0.0,0.0,0.0,0.0,0.0,0.0,0.0,0.0,0.0,0.0,0.0,0.0,0.0,0.0,0.0,0.0,0.0,0.0,0.0,0.0,0.0,0.0,0.0,0.0,0.0,0.0,0.0,0.0,0.0,0.0,0.0,0.0,0.0,0.0,0.0,0.0,0.0,0.0,0.0,0.0,0.0,0.0,0.0,0.0,0.0,0.0,0.0,0.0,0.0,0.0,0.0,0.0,0.0,0.0,0.0,0.0,0.0,0.0,0.0,0.0,0.0,0.0,0.0,0.0,0.0,0.0,0.0,0.0,0.0,0.0,-2.8124,0.0,-3.2109,0.0,-2.9054,-2.74,0.0,0.0,0.0,0.0,0.0,0.0,0.0,0.0,0.0,0.0,0.0,0.0,0.0,0.0,0.0,0.0,0.0,0.0,0.0,0.0,0.0,0.0,0.0,0.0,0.0,0.0,0.0,0.0,0.0,0.0,0.0,0.0,0.0,0.0,0.0,0.0,0.0,0.0,0.0,0.0,0.0,0.0,0.0,0.0,0.0,0.0,0.0,0.0,0.0,0.0,0.0,0.0,0.0,0.0,0.0,0.0,0.0,0.0,0.0,0.0,0.0,0.0,0.0,0.0,0.0,0.0,0.0,0.0,0.0,0.0,0.0,0.0,0.0,0.0,0.0,0.0,0.0,0.0,0.0,0.0,0.0,0.0,0.0,0.0,0.0,0.0,0.0,0.0,0.0,0.0,0.0,0.0,0.0,0.0,0.0,0.0,0.0,0.0,0.0,0.0,0.0,0.0,0.0,0.0,0.0,0.0,0.0,0.0,-2.8141,-3.2804,-3.5305,-3.577,-3.4306,-3.0263,-2.6955,0.0,0.0,0.0,0.0,0.0,0.0,0.0,0.0,0.0,0.0,0.0,0.0,0.0,0.0,0.0,0.0,0.0,0.0,0.0,0.0,0.0,0.0,0.0,0.0,0.0,0.0,0.0,0.0,0.0,0.0,0.0,0.0,0.0,0.0,0.0,0.0,0.0,0.0,0.0,0.0,0.0,0.0,0.0,0.0,0.0,0.0,0.0,0.0,0.0,0.0,0.0,0.0,0.0,0.0,0.0,0.0,0.0,0.0,0.0,0.0,0.0,0.0,0.0,0.0,0.0,0.0,0.0,0.0,0.0,0.0,0.0,0.0,0.0,0.0,0.0,0.0,0.0,0.0,0.0,0.0,0.0,0.0,0.0,0.0,0.0,0.0,0.0,0.0,0.0,0.0,0.0,0.0,0.0,0.0,0.0,0.0,0.0,0.0,0.0,0.0,0.0,0.0,0.0,0.0,0.0,0.0,0.0,0.0,0.0,-3.0619,-3.41,-3.63,-3.6687,-3.1112,-2.8484,0.0,0.0,0.0,0.0,0.0,0.0,0.0,0.0,0.0,0.0,0.0,0.0,0.0,0.0,0.0,0.0,0.0,0.0,0.0,0.0,0.0,0.0,0.0,0.0,0.0,0.0,0.0,0.0,0.0,0.0,0.0,0.0,0.0,0.0,0.0,0.0,0.0,0.0,0.0,0.0,0.0,0.0,0.0,0.0,0.0,0.0,0.0,0.0,0.0,0.0,0.0,0.0,0.0,0.0,0.0,0.0,0.0,0.0,0.0,0.0,0.0,0.0,0.0,0.0,0.0,0.0,0.0,0.0,0.0,0.0,0.0,0.0,0.0,0.0,0.0,0.0,0.0,0.0,0.0,0.0,0.0,0.0,0.0,0.0,0.0,0.0,0.0,0.0,0.0,0.0,0.0,0.0,0.0,0.0,0.0,0.0,0.0,0.0,0.0,0.0,0.0,0.0,0.0,0.0,0.0,0.0,0.0,0.0,0.0,-3.2916,-3.621,-3.827,-3.8793,-3.2902,-3.0057,-3.0673,0.0,0.0,0.0,0.0,0.0,0.0,0.0,0.0,0.0,0.0,0.0,0.0,0.0,0.0,0.0,0.0,0.0,0.0,0.0,0.0,0.0,0.0,0.0,0.0,0.0,0.0,0.0,0.0,0.0,0.0,0.0,0.0,0.0,0.0,0.0,0.0,0.0,0.0,0.0,0.0,0.0,0.0,0.0,0.0,0.0,0.0,0.0,0.0,0.0,0.0,0.0,0.0,0.0,0.0,0.0,0.0,0.0,0.0,0.0,0.0,0.0,0.0,0.0,0.0,0.0,0.0,0.0,0.0,0.0,0.0,0.0,0.0,0.0,0.0,0.0,0.0,0.0,0.0,0.0,0.0,0.0,0.0,0.0,0.0,0.0,0.0,0.0,0.0,0.0,0.0,0.0,0.0,0.0,0.0,0.0,0.0,0.0,0.0,0.0,0.0,0.0,0.0,0.0,0.0,0.0,0.0,0.0,0.0,-3.8439,-4.1064,-4.1687,-4.0221,-3.5299,-3.1743,0.0,0.0,0.0,0.0,0.0,0.0,0.0,0.0,0.0,0.0,0.0,0.0,0.0,0.0,0.0,0.0,0.0,0.0,0.0,0.0,0.0,0.0,0.0,0.0,0.0,0.0,0.0,0.0,0.0,0.0,0.0,0.0,0.0,0.0,0.0,0.0,0.0,0.0,0.0,0.0,0.0,0.0,0.0,0.0,0.0,0.0,0.0,0.0,0.0,0.0,0.0,0.0,0.0,0.0,0.0,0.0,0.0,0.0,0.0,0.0,0.0,0.0,0.0,0.0,0.0,0.0,0.0,0.0,0.0,0.0,0.0,0.0,0.0,0.0,0.0,0.0,0.0,0.0,0.0,0.0,0.0,0.0,0.0,0.0,0.0,0.0,0.0,0.0,0.0,0.0,0.0,0.0,0.0,0.0,0.0,0.0,0.0,0.0,0.0,0.0,0.0,0.0,0.0,0.0,0.0,0.0,0.0,0.0,0.0,-4.0624,-4.3565,-4.4616,-4.3542,-3.731,-3.3577,0.0,0.0,0.0,0.0,0.0,0.0,0.0,0.0,0.0,0.0,0.0,0.0,0.0,0.0,0.0,0.0,0.0,0.0,0.0,0.0,0.0,0.0,0.0,0.0,0.0,0.0,0.0,0.0,0.0,0.0,0.0,0.0,0.0,0.0,0.0,0.0,0.0,0.0,0.0,0.0,0.0,0.0,0.0,0.0,0.0,0.0,0.0,0.0,0.0,0.0,0.0,0.0,0.0,0.0,0.0,0.0,0.0,0.0,0.0,0.0,0.0,0.0,0.0,0.0,0.0,0.0,0.0,0.0,0.0,0.0,0.0,0.0,0.0,0.0,0.0,0.0,0.0,0.0,0.0,0.0,0.0,0.0,0.0,0.0,0.0,0.0,0.0,0.0,0.0,0.0,0.0,0.0,0.0,0.0,0.0,0.0,0.0,0.0,0.0,0.0,0.0,0.0,0.0,0.0,0.0,0.0,0.0,0.0,-3.9439,-4.3283,-4.5918,-4.692,-4.6145,-4.0566,-3.6435,0.0,0.0,0.0,0.0,0.0,0.0,0.0,0.0,0.0,0.0,0.0,0.0,0.0,0.0,0.0,0.0,0.0,0.0,0.0,0.0,0.0,0.0,0.0,0.0,0.0,0.0,0.0,0.0,0.0,0.0,0.0,0.0,0.0,0.0,0.0,0.0,0.0,0.0,0.0,0.0,0.0,0.0,0.0,0.0,0.0,0.0,0.0,0.0,0.0,0.0,0.0,0.0,0.0,0.0,0.0,0.0,0.0,0.0,0.0,0.0,0.0,0.0,0.0,0.0,0.0,0.0,0.0,0.0,0.0,0.0,0.0,0.0,0.0,0.0,0.0,0.0,0.0,0.0,0.0,0.0,0.0,0.0,0.0,0.0,0.0,0.0,0.0,0.0,0.0,0.0,0.0,0.0,0.0,0.0,0.0,0.0,0.0,0.0,0.0,0.0,0.0,0.0,0.0,0.0,0.0,0.0,0.0,0.0,-4.0877,-4.5902,-4.7861,-4.8496,-4.7698,-4.4021,-3.9505,0.0,0.0,0.0,0.0,0.0,0.0,0.0,0.0,0.0,0.0,0.0,0.0,0.0,0.0,0.0,0.0,0.0,0.0,0.0,0.0,0.0,0.0,0.0,0.0,0.0,0.0,0.0,0.0,0.0,0.0,0.0,0.0,0.0,0.0,0.0,0.0,0.0,0.0,0.0,0.0,0.0,0.0,0.0,0.0,0.0,0.0,0.0,0.0,0.0,0.0,0.0,0.0,0.0,0.0,0.0,0.0,0.0,0.0,0.0,0.0,0.0,0.0,0.0,0.0,0.0,0.0,0.0,0.0,0.0,0.0,0.0,0.0,0.0,0.0,0.0,0.0,0.0,0.0,0.0,0.0,0.0,0.0,0.0,0.0,0.0,0.0,0.0,0.0,0.0,0.0,0.0,0.0,0.0,0.0,0.0,0.0,0.0,0.0,0.0,0.0,0.0,0.0,0.0,0.0,0.0,0.0,0.0,0.0,-4.2262,-4.6691,-4.7886,-4.8347,-4.8163,-4.4175,-4.0019,0.0,0.0,0.0,0.0,0.0,0.0,0.0,0.0,0.0,0.0,0.0,0.0,0.0,0.0,0.0,0.0,0.0,0.0,0.0,0.0,0.0,0.0,0.0,0.0,0.0,0.0,0.0,0.0,0.0,0.0,0.0,0.0,0.0,0.0,0.0,0.0,0.0,0.0,0.0,0.0,0.0,0.0,0.0,0.0,0.0,0.0,0.0,0.0,-2.2344,0.0,0.0,0.0,0.0,0.0,0.0,0.0,0.0,0.0,0.0,0.0,0.0,0.0,0.0,0.0,0.0,0.0,0.0,0.0,0.0,0.0,0.0,0.0,0.0,0.0,0.0,0.0,0.0,0.0,0.0,0.0,0.0,0.0,0.0,0.0,0.0,0.0,0.0,0.0,0.0,0.0,0.0,0.0,0.0,0.0,0.0,0.0,0.0,0.0,0.0,0.0,0.0,0.0,0.0,0.0,0.0,0.0,0.0,0.0,-4.4098,-4.8105,-4.8673,-4.8893,-4.8802,-4.6342,-4.2118,0.0,0.0,0.0,0.0,0.0,0.0,0.0,0.0,0.0,0.0,0.0,0.0,0.0,0.0,0.0,0.0,0.0,0.0,0.0,0.0,0.0,0.0,0.0,0.0,0.0,0.0,0.0,0.0,0.0,0.0,0.0,0.0,0.0,0.0,0.0,0.0,0.0,0.0,0.0,0.0,0.0,0.0,0.0,0.0,0.0,0.0,0.0,0.0,0.0,0.0,0.0,0.0,0.0,0.0,0.0,0.0,0.0,0.0,0.0,0.0,0.0,0.0,0.0,0.0,0.0,0.0,0.0,0.0,0.0,0.0,0.0,0.0,0.0,0.0,0.0,0.0,0.0,0.0,0.0,0.0,0.0,0.0,0.0,0.0,0.0,0.0,0.0,0.0,0.0,0.0,0.0,0.0,0.0,0.0,0.0,0.0,0.0,0.0,0.0,0.0,0.0,0.0,0.0,0.0,0.0,0.0,0.0,-4.2084,-4.5523,-4.9574,-4.9794,-4.9794,-4.9757,-4.882,-4.4398,-3.6244,0.0,0.0,0.0,0.0,0.0,0.0,0.0,0.0,0.0,0.0,0.0,0.0,0.0,0.0,0.0,0.0,0.0,0.0,0.0,0.0,0.0,0.0,0.0,0.0,0.0,0.0,0.0,0.0,0.0,0.0,0.0,0.0,0.0,0.0,0.0,0.0,0.0,0.0,-2.4348,-2.5536,0.0,0.0,0.0,0.0,0.0,0.0,0.0,0.0,-2.4395,0.0,0.0,0.0,0.0,0.0,0.0,0.0,0.0,0.0,0.0,0.0,0.0,0.0,0.0,0.0,0.0,0.0,0.0,0.0,0.0,0.0,0.0,0.0,0.0,0.0,0.0,0.0,0.0,0.0,0.0,0.0,0.0,0.0,0.0,0.0,0.0,0.0,0.0,0.0,0.0,0.0,0.0,0.0,0.0,0.0,0.0,0.0,0.0,0.0,0.0,0.0,0.0,0.0,0.0,0.0,0.0,-4.0191,-4.1398,-4.4753,-5.0455,-5.0582,-5.0618,-5.0545,-4.9114,-4.4589,-3.7055,0.0,0.0,0.0,0.0,0.0,0.0,0.0,0.0,0.0,0.0,0.0,0.0,0.0,0.0,0.0,0.0,0.0,0.0,0.0,0.0,0.0,0.0,0.0,0.0,0.0,0.0,0.0,0.0,0.0,0.0,0.0,0.0,0.0,0.0,0.0,0.0,0.0,0.0,0.0,-2.6525,-2.6741,0.0,0.0,0.0,0.0,0.0,0.0,0.0,0.0,-2.548,0.0,0.0,0.0,0.0,0.0,0.0,0.0,0.0,0.0,0.0,0.0,0.0,0.0,0.0,0.0,0.0,0.0,0.0,0.0,0.0,0.0,0.0,0.0,0.0,0.0,0.0,0.0,0.0,0.0,0.0,0.0,0.0,0.0,0.0,0.0,0.0,0.0,0.0,0.0,0.0,0.0,0.0,0.0,0.0,0.0,0.0,0.0,0.0,0.0,0.0,0.0,0.0,0.0,0.0,0.0,-4.037,-4.3934,-4.7408,-5.0692,-5.1206,-5.1206,-5.0765,-4.8783,-4.4424,0.0,0.0,0.0,0.0,0.0,0.0,0.0,0.0,0.0,0.0,0.0,0.0,0.0,0.0,0.0,0.0,0.0,0.0,0.0,0.0,0.0,0.0,0.0,0.0,0.0,0.0,0.0,0.0,0.0,0.0,0.0,0.0,0.0,0.0,0.0,0.0,0.0,0.0,0.0,0.0,-2.76,-2.7933,-2.717,0.0,0.0,0.0,0.0,0.0,0.0,-2.6296,-2.6149,0.0,0.0,0.0,0.0,0.0,0.0,0.0,0.0,0.0,0.0,0.0,0.0,0.0,0.0,0.0,0.0,0.0,0.0,0.0,0.0,0.0,0.0,0.0,0.0,0.0,0.0,0.0,0.0,0.0,0.0,0.0,0.0,0.0,0.0,0.0,0.0,0.0,0.0,0.0,0.0,0.0,0.0,0.0,0.0,0.0,0.0,0.0,0.0,0.0,0.0,0.0,0.0,0.0,0.0,0.0,-4.0665,-4.6044,-4.9593,-5.0986,-5.183,-5.1793,-5.0802,-4.8399,-4.413,0.0,0.0,0.0,0.0,0.0,0.0,0.0,0.0,0.0,0.0,0.0,0.0,0.0,0.0,0.0,0.0,0.0,0.0,0.0,0.0,0.0,0.0,0.0,0.0,0.0,0.0,0.0,0.0,0.0,0.0,0.0,0.0,0.0,0.0,0.0,0.0,0.0,0.0,0.0,0.0,0.0,-2.9213,-2.8308,-2.8243,0.0,0.0,0.0,0.0,-2.7547,-2.7537,0.0,0.0,0.0,0.0,0.0,0.0,0.0,0.0,0.0,0.0,0.0,0.0,0.0,0.0,0.0,0.0,0.0,0.0,0.0,0.0,0.0,0.0,0.0,0.0,0.0,0.0,0.0,0.0,0.0,0.0,0.0,0.0,0.0,0.0,0.0,0.0,0.0,0.0,0.0,0.0,0.0,0.0,0.0,0.0,0.0,0.0,0.0,0.0,0.0,0.0,0.0,0.0,0.0,0.0,0.0,0.0,-4.1282,-4.4764,-4.8236,-5.1703,-5.2637,-5.2344,-5.0839,-4.853,-4.3939,0.0,0.0,0.0,0.0,0.0,0.0,0.0,0.0,0.0,0.0,0.0,0.0,0.0,0.0,0.0,0.0,0.0,0.0,0.0,0.0,0.0,0.0,0.0,0.0,0.0,0.0,0.0,0.0,0.0,0.0,0.0,0.0,0.0,0.0,0.0,0.0,0.0,0.0,0.0,0.0,0.0,-3.0138,-2.8583,-2.9453,-2.9972,0.0,0.0,-2.9558,-3.0667,-3.0944,0.0,0.0,0.0,0.0,0.0,0.0,0.0,0.0,0.0,0.0,0.0,0.0,0.0,0.0,0.0,0.0,0.0,0.0,0.0,0.0,0.0,0.0,0.0,0.0,0.0,0.0,0.0,0.0,0.0,0.0,0.0,0.0,0.0,0.0,0.0,0.0,0.0,0.0,0.0,0.0,0.0,0.0,0.0,0.0,0.0,0.0,0.0,0.0,0.0,0.0,0.0,0.0,0.0,0.0,0.0,-3.9235,-4.2239,-4.6965,-5.0274,-5.194,-5.2784,-5.2433,-5.0839,-4.7187,-4.2971,0.0,0.0,0.0,0.0,0.0,0.0,0.0,0.0,0.0,0.0,0.0,0.0,0.0,0.0,0.0,0.0,0.0,0.0,0.0,0.0,0.0,0.0,0.0,0.0,0.0,0.0,0.0,0.0,0.0,0.0,0.0,0.0,0.0,0.0,0.0,0.0,0.0,0.0,0.0,0.0,0.0,0.0,-3.0422,-3.123,0.0,0.0,0.0,-3.2189,-3.2784,0.0,0.0,0.0,0.0,0.0,0.0,0.0,0.0,0.0,0.0,0.0,0.0,0.0,0.0,0.0,0.0,0.0,0.0,0.0,0.0,0.0,0.0,0.0,0.0,0.0,0.0,0.0,0.0,0.0,0.0,0.0,0.0,0.0,0.0,0.0,0.0,0.0,0.0,0.0,0.0,0.0,0.0,0.0,0.0,0.0,0.0,0.0,0.0,0.0,0.0,0.0,0.0,0.0,0.0,0.0,0.0,0.0,-4.3061,-4.8898,-5.2045,-5.2265,-5.2815,-5.2375,-5.0762,-4.6562,0.0,0.0,0.0,0.0,0.0,0.0,0.0,0.0,0.0,0.0,0.0,0.0,0.0,0.0,0.0,0.0,0.0,0.0,0.0,0.0,0.0,0.0,0.0,0.0,0.0,0.0,0.0,-2.0037,0.0,0.0,0.0,0.0,0.0,0.0,0.0,0.0,0.0,0.0,0.0,0.0,0.0,0.0,-3.1826,-3.2357,-3.322,-3.4096,0.0,0.0,-3.4734,-3.5002,-3.4316,-3.3345,0.0,0.0,0.0,0.0,0.0,0.0,0.0,0.0,0.0,0.0,0.0,0.0,0.0,0.0,0.0,0.0,0.0,0.0,0.0,0.0,0.0,0.0,0.0,0.0,0.0,0.0,0.0,0.0,0.0,0.0,0.0,0.0,0.0,0.0,0.0,0.0,0.0,0.0,0.0,0.0,0.0,0.0,0.0,0.0,0.0,0.0,0.0,0.0,0.0,0.0,0.0,0.0,0.0,0.0,0.0,-4.3913,-4.9079,-5.2175,-5.2892,-5.3002,-5.2233,-5.0623,-4.7555,-4.3402,0.0,0.0,0.0,0.0,0.0,0.0,0.0,0.0,0.0,0.0,0.0,0.0,0.0,0.0,0.0,0.0,0.0,0.0,0.0,0.0,0.0,0.0,0.0,0.0,0.0,0.0,0.0,0.0,0.0,0.0,0.0,0.0,0.0,0.0,0.0,0.0,0.0,0.0,0.0,0.0,0.0,-3.3676,-3.3825,-3.545,-3.6865,0.0,0.0,-3.6945,-3.7716,-3.708,-3.5847,-3.3802,0.0,0.0,0.0,0.0,0.0,0.0,0.0,0.0,0.0,0.0,0.0,0.0,0.0,0.0,0.0,0.0,0.0,0.0,0.0,0.0,0.0,0.0,0.0,0.0,0.0,0.0,0.0,0.0,0.0,0.0,0.0,0.0,0.0,0.0,0.0,0.0,0.0,0.0,0.0,0.0,0.0,0.0,0.0,0.0,0.0,0.0,0.0,0.0,0.0,0.0,0.0,0.0,0.0,-4.2743,-4.4654,-4.985,-5.2688,-5.298,-5.2915,-5.2382,-5.137,-4.8362,-4.4608,0.0,0.0,0.0,0.0,0.0,0.0,0.0,0.0,0.0,0.0,0.0,0.0,0.0,0.0,0.0,0.0,0.0,0.0,0.0,0.0,0.0,0.0,0.0,0.0,0.0,0.0,0.0,0.0,-2.4652,-2.5603,-2.6272,0.0,0.0,0.0,0.0,0.0,0.0,0.0,0.0,0.0,0.0,-3.5406,-3.5779,-3.7183,0.0,0.0,-3.8725,-3.8977,-3.9306,-3.8347,-3.6852,-3.4869,-3.2795,0.0,0.0,0.0,0.0,0.0,0.0,0.0,0.0,0.0,0.0,0.0,0.0,0.0,0.0,0.0,0.0,0.0,0.0,0.0,0.0,0.0,0.0,0.0,0.0,0.0,0.0,0.0,0.0,0.0,0.0,0.0,0.0,0.0,0.0,0.0,0.0,0.0,0.0,0.0,0.0,0.0,0.0,0.0,0.0,0.0,0.0,0.0,0.0,0.0,0.0,0.0,0.0,-4.3474,-4.5082,-5.0251,-5.2937,-5.2974,-5.2806,-5.2419,-5.1667,-4.9198,-4.6103,0.0,0.0,0.0,0.0,0.0,0.0,0.0,0.0,0.0,0.0,0.0,0.0,0.0,0.0,0.0,0.0,0.0,0.0,0.0,0.0,0.0,0.0,0.0,0.0,0.0,0.0,0.0,0.0,-2.614,-2.7072,-2.7658,0.0,0.0,0.0,0.0,0.0,0.0,0.0,0.0,0.0,0.0,-3.7238,-3.7649,-3.8788,-3.9715,-3.9952,-4.0054,-4.0214,-4.0468,-3.926,-3.7739,-3.6009,0.0,0.0,0.0,0.0,0.0,0.0,0.0,0.0,0.0,0.0,0.0,0.0,0.0,0.0,0.0,0.0,0.0,0.0,0.0,0.0,0.0,0.0,0.0,0.0,0.0,0.0,0.0,-2.7056,0.0,0.0,-2.7111,0.0,0.0,0.0,0.0,0.0,0.0,0.0,0.0,0.0,0.0,0.0,0.0,0.0,0.0,0.0,0.0,0.0,0.0,0.0,0.0,0.0,0.0,-4.343,-4.5036,-5.0188,-5.2806,-5.2806,-5.2658,-5.2227,-5.1427,-5.0076,-4.7802,-4.4455,0.0,0.0,0.0,0.0,0.0,0.0,0.0,0.0,0.0,0.0,0.0,0.0,0.0,0.0,0.0,0.0,0.0,0.0,0.0,0.0,0.0,0.0,0.0,0.0,0.0,0.0,-2.6616,-2.6966,-2.7308,0.0,0.0,0.0,0.0,0.0,0.0,0.0,0.0,0.0,0.0,-3.7031,-3.9098,-3.9238,-4.0349,-4.1407,-4.2049,-4.1001,-4.0375,-4.1214,-4.0038,-3.8626,0.0,0.0,0.0,0.0,0.0,0.0,0.0,0.0,0.0,0.0,0.0,0.0,0.0,0.0,0.0,0.0,0.0,0.0,0.0,0.0,0.0,0.0,0.0,0.0,0.0,0.0,0.0,-3.1601,-3.0861,0.0,0.0,0.0,0.0,0.0,0.0,0.0,0.0,0.0,0.0,0.0,-3.9726,-4.0797,0.0,0.0,0.0,0.0,0.0,0.0,0.0,0.0,0.0,0.0,0.0,0.0,-4.4449,-4.6632,-5.0659,-5.2761,-5.2658,-5.2581,-5.2427,-5.219,-5.0729,-4.7972,-4.3834,0.0,0.0,0.0,0.0,0.0,0.0,0.0,0.0,0.0,0.0,0.0,0.0,0.0,0.0,0.0,0.0,0.0,0.0,0.0,0.0,0.0,0.0,0.0,0.0,0.0,-2.7548,0.0,0.0,0.0,0.0,0.0,0.0,0.0,0.0,0.0,0.0,0.0,-3.6381,-3.6822,-3.9529,-4.1291,-4.0629,-4.1771,-4.2591,0.0,0.0,0.0,0.0,0.0,0.0,0.0,0.0,0.0,0.0,0.0,0.0,0.0,0.0,-3.3608,-3.0669,-2.978,-2.9461,-2.9303,0.0,0.0,0.0,0.0,0.0,0.0,0.0,0.0,0.0,0.0,0.0,0.0,0.0,0.0,-3.6007,0.0,-3.4613,0.0,0.0,0.0,0.0,0.0,0.0,0.0,0.0,-4.1328,-4.3622,-4.4223,-4.5549,-4.6045,0.0,-4.468,-4.1751,0.0,0.0,0.0,0.0,0.0,0.0,0.0,0.0,-4.5105,-4.7261,-5.0869,-5.2694,-5.259,-5.2549,-5.2526,-5.2522,-5.0998,-4.8416,-4.473,-4.2008,-3.9341,0.0,0.0,0.0,0.0,0.0,0.0,0.0,0.0,0.0,0.0,0.0,0.0,0.0,0.0,0.0,0.0,0.0,0.0,0.0,0.0,0.0,0.0,0.0,-2.8626,0.0,0.0,0.0,0.0,0.0,0.0,0.0,0.0,0.0,-3.4684,-3.6984,-3.8871,-3.93,-4.1393,-4.2641,-4.1756,0.0,0.0,0.0,0.0,0.0,0.0,0.0,-3.9043,-3.7865,-3.677,-3.5943,-3.5591,-3.6534,-3.7217,-3.6908,0.0,0.0,-3.3536,-3.2615,-3.2303,-3.2426,-3.2372,-3.2355,-3.2562,-3.2567,-3.2499,0.0,0.0,0.0,0.0,0.0,0.0,0.0,0.0,-4.0673,-4.0889,0.0,-3.8328,0.0,0.0,0.0,0.0,0.0,-4.0476,0.0,0.0,-4.8719,-5.103,-4.9794,-5.0508,-5.0548,-4.9818,-4.8236,-4.6653,-4.5046,-4.1984,0.0,0.0,0.0,0.0,0.0,0.0,-4.5498,-4.7276,-5.0815,-5.259,-5.259,-5.2549,-5.248,-5.2408,-5.0981,-4.9174,-4.7124,-4.5367,-4.305,-3.9959,-3.7561,0.0,0.0,0.0,0.0,0.0,0.0,0.0,0.0,0.0,0.0,0.0,0.0,0.0,0.0,0.0,0.0,0.0,0.0,0.0,0.0,-2.9148,0.0,0.0,0.0,0.0,0.0,0.0,0.0,0.0,0.0,0.0,-3.6934,-3.8986,-4.0774,-4.1358,0.0,0.0,0.0,0.0,-4.2494,-4.2455,-4.1178,-4.0407,-4.0816,-4.0435,-3.9891,-3.9216,0.0,0.0,-3.777,-3.8077,-3.8385,-3.7738,-3.8169,-3.8234,-3.7157,-3.5498,-3.4513,-3.5134,-3.476,-3.4509,-3.5103,-3.5263,-3.5074,-5.2344,0.0,0.0,0.0,0.0,-4.6827,-4.6987,-4.7858,-4.6858,-4.6368,-4.6076,-4.3926,0.0,0.0,0.0,0.0,0.0,0.0,-4.5624,-4.7456,-5.0456,-5.2218,-5.3041,-5.3849,-5.4127,-5.3855,-5.2826,-5.2091,-5.1561,-4.9025,-4.5053,-3.9852,0.0,0.0,0.0,0.0,-4.6741,-4.9448,-5.1537,-5.2581,-5.2549,-5.2503,-5.2226,-5.1647,-5.1266,-5.0264,-4.855,-4.7534,-4.5786,-4.3178,-4.0718,0.0,0.0,0.0,0.0,0.0,0.0,0.0,0.0,0.0,0.0,0.0,0.0,0.0,0.0,0.0,0.0,0.0,0.0,0.0,-2.9924,-3.0472,-3.0949,0.0,0.0,0.0,0.0,0.0,0.0,0.0,0.0,0.0,-4.0377,-4.116,-4.1512,0.0,0.0,-4.2953,-4.2662,-4.3111,-4.3675,-4.4217,-4.3389,0.0,-4.2106,-4.1086,-4.0234,-3.977,-3.985,-3.9681,-3.8808,-3.9354,-3.9859,-3.9613,-3.9767,-3.9801,-3.9468,-3.8269,-3.7343,-3.7498,-3.7374,-3.7281,-3.7498,-3.756,-3.7498,-5.8694,-5.5794,-5.2621,-5.1688,-5.2273,-5.1675,-5.2045,-5.3004,-5.2168,-5.1914,-5.1914,-4.9465,-4.8088,-4.745,-4.5489,0.0,0.0,0.0,-4.9117,-5.125,-5.2879,-5.4246,-5.5332,-5.6161,-5.6381,-5.6051,-5.5574,-5.5207,-5.484,-5.2742,-4.9331,-4.4798,0.0,0.0,-4.4195,-4.6063,-4.8117,-5.0305,-5.1849,-5.2572,-5.248,-5.248,-5.2263,-5.1792,-5.1497,-5.0947,-5.0046,-4.9024,-4.7664,-4.5896,-4.3506,-4.0994,0.0,0.0,0.0,0.0,0.0,0.0,0.0,0.0,0.0,0.0,0.0,-2.8655,-2.8202,0.0,0.0,0.0,-3.004,-3.0436,-3.1592,-3.2077,0.0,0.0,0.0,0.0,0.0,0.0,0.0,-3.8552,-4.0712,-4.2388,-4.2752,-4.3207,-4.3131,-4.233,-4.3242,-4.389,-4.3557,0.0,-4.4415,-4.4519,-4.3918,-4.3229,-4.2587,-4.1881,-4.1341,-4.1244,-4.0978,-4.0712,-4.0304,-4.0405,-4.0474,-4.0505,-4.0505,-4.0505,-4.0505,-3.9828,-3.9308,-3.9339,-3.9521,-3.9739,-3.9739,-3.9739,-3.9739,-6.4163,-6.3624,-5.7528,-5.5235,-5.5583,-5.5486,-5.6273,-5.7478,-5.6717,-5.7188,-5.8275,-5.4689,-5.303,-5.274,-4.9174,0.0,-5.0889,-5.1637,-5.289,-5.452,-5.6002,-5.6872,-5.7116,-5.785,-5.7776,-5.7005,-5.7005,-5.6565,-5.5757,-5.4122,-5.2849,-5.1898,-4.8952,-4.7285,-4.7057,-4.8374,-4.951,-5.0381,-5.1729,-5.2408,-5.248,-5.248,-5.248,-5.248,-5.1792,-5.1402,-5.1369,-5.0095,-4.8976,-4.8065,-4.5894,-4.3833,-4.205,0.0,0.0,0.0,0.0,0.0,0.0,0.0,0.0,0.0,0.0,0.0,0.0,0.0,0.0,0.0,-3.2924,0.0,-3.3788,-3.404,0.0,0.0,0.0,-3.7204,-3.9349,-4.0619,-4.1335,-4.1298,0.0,0.0,-4.4354,-4.4973,-4.5233,-4.484,-4.5258,-4.545,-4.4884,-4.5033,-4.4886,-4.4268,-4.3594,-4.3099,-4.2912,-4.2714,-4.269,-4.2841,-4.2439,-4.1868,-4.1771,-4.1264,-4.0755,-4.0628,-4.0597,-4.0597,-4.0597,-4.0566,-4.0597,-4.0628,-4.1063,-4.1432,-4.1309,-4.1278,-4.1247,-6.4956,-6.4668,-6.2457,-6.1185,-6.057,-5.9848,-6.0072,-6.0774,-6.0013,-5.9905,-6.0086,-5.7974,-5.667,-5.6054,-5.5136,-5.5354,-5.6453,-5.6733,-5.7498,-5.8592,-5.9091,-5.9395,-5.9538,-5.9758,-5.9428,-5.8694,-5.8634,-5.8217,-5.7409,-5.6283,-5.4939,-5.3394,-5.1936,-5.0294,-4.8592,-4.9293,-5.0443,-5.1923,-5.1615,-5.1795,-5.248,-5.248,-5.248,-5.248,-5.2299,-5.1946,-5.1441,-5.1064,-5.0256,-4.8956,-4.7446,-4.5611,-4.3356,-3.9908,0.0,0.0,0.0,0.0,0.0,0.0,0.0,0.0,0.0,-3.2953,-3.1622,0.0,-3.3987,0.0,-3.5588,-3.6789,-3.7499,-3.7666,0.0,0.0,-4.0241,-4.1025,-4.3196,-4.3935,-4.4371,-4.4599,-4.5214,-4.5658,-4.5795,-4.5823,-4.597,-4.6235,-4.5688,-4.5377,-4.5697,-4.5862,-4.6049,-4.626,-4.58,-4.5223,-4.4407,-4.3399,-4.2705,-4.2752,-4.2695,-4.2607,-4.2428,-4.2376,-4.2133,-4.1498,-4.134,-4.134,-4.134,-4.134,-4.1555,-4.1925,-4.1397,-4.0751,-4.0751,-4.0782,-4.0782,-6.5799,-6.5637,-6.483,-6.3518,-6.1901,-6.1646,-6.1732,-6.2051,-6.1562,-6.1326,-6.1281,-6.0013,-5.9216,-5.8782,-5.842,-5.8492,-5.8927,-5.9004,-5.9412,-5.999,-6.0065,-6.0213,-6.0419,-6.0419,-6.0162,-5.9735,-5.965,-5.9223,-5.8454,-5.7788,-5.6806,-5.5449,-5.487,-5.3566,-5.1574,-5.0403,-5.0262,-5.1233,-5.1161,-5.1713,-5.2951,-5.2697,-5.2312,-5.1904,-5.1542,-5.0963,-5.019,-4.951,-4.8777,-4.8006,-4.6964,-4.559,-4.3796,-4.1264,-3.9371,0.0,0.0,0.0,0.0,0.0,0.0,0.0,0.0,0.0,0.0,0.0,-3.6606,-3.6975,-3.866,-3.9971,-4.0456,-4.0871,-4.1696,-4.3171,-4.3286,-4.4014,-4.5806,-4.6404,-4.6777,-4.6941,-4.7317,-4.7563,-4.7563,-4.7505,-4.7495,-4.7763,-4.7233,-4.6839,-4.6859,-4.6806,-4.6842,-4.7143,-4.6498,-4.5778,-4.5187,-4.4367,-4.3753,-4.3722,-4.3505,-4.3288,-4.3179,-4.2932,-4.2623,-4.2176,-4.2048,-4.2048,-4.2048,-4.2048,-4.2202,-4.2355,-4.2017,-4.1489,-4.1463,-4.1217,-4.1028,-6.6769,-6.6586,-6.5815,-6.4123,-6.2091,-6.2391,-6.2176,-6.1594,-6.147,-6.1534,-6.1679,-6.1172,-6.0964,-6.0919,-6.0231,-5.9905,-5.9905,-5.9931,-6.0062,-6.0281,-6.0343,-6.0468,-6.0713,-6.0689,-6.0615,-6.0518,-6.0396,-5.9908,-5.9115,-5.8785,-5.8151,-5.7254,-5.6985,-5.6027,-5.4314,-5.1454,-5.0016,-5.0016,-5.0971,-5.2134,-5.347,-5.2638,-5.1759,-5.0922,-5.0213,-4.9447,-4.8623,-4.7342,-4.6555,-4.6338,-4.5709,-4.4942,-4.4124,-4.2364,-4.1111,0.0,-3.857,0.0,0.0,0.0,0.0,0.0,0.0,0.0,0.0,-3.9109,-3.9662,-4.0562,-4.1996,-4.2971,-4.3158,-4.3847,-4.4739,-4.5849,-4.597,-4.6451,-4.767,-4.8254,-4.8607,-4.8573,-4.9124,-4.9411,-4.9218,-4.926,-4.9199,-4.8944,-4.8877,-4.8606,-4.8146,-4.7791,-4.7572,-4.7271,-4.6266,-4.5541,-4.5216,-4.5136,-4.5067,-4.5036,-4.4557,-4.4074,-4.4037,-4.3457,-4.2915,-4.2756,-4.2725,-4.2725,-4.2725,-4.2725,-4.2786,-4.291,-4.2817,-4.2633,-4.2479,-4.1986,-4.1832,-6.8054,-6.7393,-6.6586,-6.5972,-6.5506,-6.4665,-6.2089,-5.8457,-5.8333,-5.9009,-6.0254,-6.1308,-6.1788,-6.1761,-6.1616,-6.1571,-6.1571,-6.1642,-6.1802,-6.1959,-6.2026,-6.2215,-6.234,-6.2228,-6.1823,-6.1238,-6.1076,-6.0599,-5.9796,-5.899,-5.7847,-5.6332,-5.5557,-5.4314,-5.2642,0.0,0.0,0.0,-5.2701,-5.2989,-5.2544,-5.1112,-5.0272,-4.9955,-4.9718,0.0,-4.8623,-4.8232,-4.7397,-4.6155,-4.5664,0.0,0.0,0.0,0.0,0.0,0.0,0.0,0.0,0.0,0.0,0.0,-4.2438,-4.1175,-3.9743,-4.13,-4.3019,-4.4394,-4.5355,-4.61,-4.6677,-4.6877,-4.7299,-4.8072,-4.8148,-4.8528,-4.9401,-4.9492,-4.9502,-4.9688,-4.9615,-4.953,-4.9594,-4.95,-4.9385,-4.9267,-4.9168,-4.9073,-4.8815,-4.8666,-4.8482,-4.8032,-4.6689,-4.5656,-4.5061,-4.498,-4.5055,-4.5098,-4.5104,-4.4874,-4.4694,-4.4564,-4.4143,-4.3599,-4.3408,-4.3408,-4.3439,-4.3408,-4.3593,-4.4079,-4.3809,-4.3248,-4.2725,-4.2078,-4.1648,-6.8678,0.0,-6.743,-6.6402,0.0,-6.4652,-6.2307,-5.9006,-5.9885,-6.0518,-6.0926,-6.1643,-6.2041,-6.1942,-6.1172,-6.081,-6.0774,-6.0056,-6.0233,-6.109,-6.1204,-6.1708,-6.264,-6.2526,-6.2318,-6.189,-6.1761,-6.1272,-6.0482,-5.9953,-5.8859,-5.7224,-5.6776,-5.5869,-5.4627,-5.4627,-5.4206,-5.3375,-5.3532,-5.358,-5.3544,-5.2387,-5.1329,-5.042,-4.9919,0.0,0.0,0.0,0.0,0.0,0.0,0.0,0.0,0.0,0.0,-4.5597,-4.4277,-4.387,-4.4879,-4.4155,-4.432,-4.5642,-4.5383,-4.4551,-4.3147,-4.4811,-4.6232,-4.6935,-4.7685,-4.8305,-4.857,-4.8609,-4.8747,-4.909,-4.9217,-4.9383,-4.9703,-4.983,-4.983,-4.9777,-4.9992,-5.0138,-5.0138,-5.0393,-5.0301,-4.9964,-4.9838,-4.9671,-4.927,-4.8642,-4.7934,-4.7032,-4.623,-4.5505,-4.5167,-4.5055,-4.5092,-4.5167,-4.5204,-4.5129,-4.4911,-4.4911,-4.4713,-4.4216,-4.4117,-4.4117,-4.4117,-4.4117,-4.4209,-4.4486,-4.4332,-4.4024,-4.3587,-4.2786,-4.2202,-6.9045,-6.8825,-6.8017,-6.6576,-6.4714,-6.4621,-6.3313,-6.1446,0.0,0.0,0.0,-6.1897,-6.2041,-6.1906,-6.0629,-6.0013,-5.9941,-5.8637,-5.8823,-6.0248,-6.0212,-6.0991,-6.237,-6.2407,-6.2344,-6.2344,-6.2248,-6.1831,-6.1178,-6.0936,-6.0158,-5.8891,-5.8565,-5.7985,-5.7261,-5.7188,-5.6523,-5.5158,-5.4218,-5.4098,-5.4786,-5.3941,-5.2653,-5.1009,-5.0279,-4.9256,-4.7831,-4.718,-4.6588,-4.6105,-4.6179,-4.627,-4.6323,-4.6514,-4.6663,-4.6734,-4.6715,-4.6926,-4.7438,-4.7333,-4.7404,-4.7885,-4.7742,-4.7447,-4.6935,-4.7917,-4.8591,-4.8607,-4.9277,-4.9649,-4.95,-4.9471,-4.9471,-4.9471,-4.959,-4.9654,-4.9701,-4.9919,-5.0081,-4.9975,-5.0549,-5.0922,-5.0834,-5.1188,-5.1364,-5.0878,-5.0649,-5.0354,-4.9647,-4.8425,-4.7203,-4.6301,-4.5724,-4.5309,-4.5241,-4.5272,-4.5241,-4.5315,-4.5241,-4.5129,-4.4986,-4.4874,-4.4799,-4.4579,-4.461,-4.4579,-4.4579,-4.4548,-4.461,-4.461,-4.461,-4.461,-4.4517,-4.3741,-4.3125,-6.9559,-6.8825,-6.8017,-6.7504,-6.7173,-6.7039,-6.6263,-6.4876,-6.2536,-6.1043,-6.0362,-6.1507,-6.2041,-6.1978,-6.1761,-6.1652,-6.1652,-6.1435,-6.1507,-6.1858,-6.1858,-6.2047,-6.237,-6.2301,-6.2212,-6.2212,-6.2087,-6.196,-6.1788,-6.1136,-6.0638,-6.0303,-5.9108,-5.7985,-5.7261,-5.7188,-5.708,-5.6837,-5.5425,-5.4689,-5.4724,-5.3279,-5.1838,-5.0481,-5.0215,-4.921,-4.7448,-4.7181,-4.673,-4.6025,-4.605,-4.6542,-4.7592,-4.8224,-4.9104,-5.0241,-5.0818,-5.1142,-5.118,-5.1062,-5.1035,-5.1261,-5.1107,-5.0253,-4.8506,-4.8357,-4.8739,-4.9409,-4.9679,-4.9649,-4.95,-4.9539,-4.9573,-4.9539,-4.9535,-4.974,-5.0363,-5.0492,-5.0727,-5.1213,-5.1486,-5.1586,-5.1589,-5.1694,-5.1702,-5.1435,-5.1204,-5.1011,-5.0155,-4.8729,-4.7538,-4.7001,-4.6124,-4.5536,-4.5426,-4.5426,-4.5499,-4.5682,-4.542,-4.5204,-4.5129,-4.4905,-4.4648,-4.461,-4.461,-4.461,-4.461,-4.461,-4.461,-4.461,-4.461,-4.461,-4.461,-4.4326,-4.4117,-7.055,-7.0045,-6.8862,-6.8348,-6.8311,-6.7817,-6.7085,-6.6071,-6.4529,-6.3046,-6.1831,-6.1924,-6.2041,-6.1906,-6.11,-6.0701,-6.0665,-5.9796,-5.9895,-6.0745,-6.0808,-6.1306,-6.2132,-6.2114,-6.2087,-6.2087,-6.2033,-6.2041,-6.1969,-6.1643,-6.1245,-6.0738,-5.9232,-5.8304,-5.7942,-5.7506,-5.7264,-5.7188,-5.65,-5.5932,-5.5412,-5.4356,-5.3376,-5.2422,-5.1625,-5.0753,-4.9722,-4.9221,-4.8947,-4.8778,-4.8778,-4.9035,-4.9579,-4.9959,-5.039,-5.0926,-5.118,-5.1501,-5.1725,-5.1537,-5.1537,-5.1819,-5.16,-5.1128,-5.0351,-5.0218,-5.0325,-5.0636,-5.067,-5.0608,-5.0453,-5.0422,-5.0422,-5.0422,-5.0515,-5.0683,-5.0927,-5.1213,-5.1446,-5.1629,-5.2099,-5.2435,-5.234,-5.2586,-5.2622,-5.225,-5.1617,-5.0858,-5.0493,-4.9081,-4.7869,-4.751,-4.6697,-4.6024,-4.5704,-4.5646,-4.5646,-4.5677,-4.5494,-4.5278,-4.5092,-4.4836,-4.4723,-4.461,-4.461,-4.461,-4.461,-4.461,-4.461,-4.461,-4.461,-4.461,-4.461,-4.461,-4.4486,-7.1293,-7.1146,-6.9779,-6.9082,-6.8825,-6.8054,-6.732,-6.669,-6.619,-6.5176,-6.3755,-6.2757,-6.2159,-6.1869,-6.0675,-6.0132,-5.9977,-5.8854,-5.8963,-6.005,-6.0158,-6.081,-6.1906,-6.2041,-6.2041,-6.2041,-6.2041,-6.2041,-6.2005,-6.2033,-6.1661,-6.088,-5.975,-5.9012,-5.8623,-5.7969,-5.752,-5.725,-5.7188,-5.6899,-5.6283,-5.5737,-5.5116,-5.4277,-5.3156,-5.2327,-5.1806,-5.1255,-5.1078,-5.1287,-5.1218,-5.1114,-5.1114,-5.1114,-5.1124,-5.1047,-5.1188,-5.1449,-5.1883,-5.1824,-5.1854,-5.2109,-5.1887,-5.1822,-5.2111,-5.2111,-5.1909,-5.1607,-5.1471,-5.1376,-5.1182,-5.1183,-5.1217,-5.1217,-5.1346,-5.1412,-5.1485,-5.1807,-5.2101,-5.2015,-5.2686,-5.3126,-5.3132,-5.341,-5.3378,-5.2867,-5.1897,-5.1229,-5.1028,-4.9922,-4.8831,-4.8212,-4.7379,-4.651,-4.6092,-4.5898,-4.5761,-4.5594,-4.5389,-4.5204,-4.4986,-4.4874,-4.4799,-4.4648,-4.461,-4.461,-4.461,-4.461,-4.461,-4.461,-4.461,-4.461,-4.461,-4.461,-4.461,-7.1293,-7.1174,-7.0367,-6.9559,-6.8825,-6.8054,-6.7596,-6.7277,-6.6418,-6.5851,-6.5319,-6.38,-6.2693,-6.2078,-6.1797,-6.1716,-6.1716,-6.1616,-6.1543,-6.1716,-6.1788,-6.1897,-6.2005,-6.2041,-6.2041,-6.2041,-6.2041,-6.2005,-6.2005,-6.2141,-6.1848,-6.1251,-6.1022,-6.0133,-5.883,-5.8551,-5.8039,-5.7224,-5.7188,-5.7152,-5.7091,-5.6668,-5.591,-5.4682,-5.4189,-5.3375,-5.2269,-5.2106,-5.2041,-5.2046,-5.1464,-5.1114,-5.1149,-5.1114,-5.1335,-5.1867,-5.2332,-5.2861,-5.3246,-5.3281,-5.328,-5.348,-5.3279,-5.3246,-5.3445,-5.3347,-5.2771,-5.1917,-5.1541,-5.1545,-5.1217,-5.1285,-5.1386,-5.142,-5.1419,-5.1454,-5.2063,-5.2231,-5.2502,-5.328,-5.3381,-5.3449,-5.3415,-5.3483,-5.3484,-5.3415,-5.3011,-5.2707,-5.2605,-5.1418,-5.0306,-4.9692,-4.8433,-4.7081,-4.6561,-4.6297,-4.5978,-4.5614,-4.5204,-4.5055,-4.4911,-4.4761,-4.461,-4.4685,-4.461,-4.461,-4.461,-4.461,-4.461,-4.461,-4.461,-4.461,-4.461,-4.461,-4.461,-7.2018,-7.1945,-7.1138,-7.0073,-6.8935,-6.8531,-6.81,-6.7542,-6.6994,-6.6417,-6.5859,-6.498,-6.3925,-6.2693,-6.2195,-6.2041,-6.2041,-6.2041,-6.2041,-6.2041,-6.2041,-6.2041,-6.2041,-6.2041,-6.2041,-6.2005,-6.2087,-6.2078,-6.2141,-6.2238,-6.2225,-6.1989,-6.1576,-6.0941,-6.0222,-5.9211,-5.8674,-5.8693,-5.771,-5.7406,-5.7753,-5.6948,-5.6087,-5.5377,-5.4466,-5.3644,-5.2938,-5.2459,-5.2425,-5.2839,-5.2632,-5.2459,-5.2459,-5.2046,-5.1993,-5.2466,-5.2931,-5.3279,-5.3484,-5.3518,-5.3517,-5.3584,-5.3517,-5.3551,-5.3584,-5.3517,-5.3247,-5.2805,-5.2669,-5.2669,-5.2668,-5.2636,-5.2603,-5.2635,-5.2603,-5.2672,-5.2942,-5.311,-5.3312,-5.3617,-5.3751,-5.3751,-5.3651,-5.3551,-5.3518,-5.3416,-5.3144,-5.2903,-5.2729,-5.1438,-5.0442,-4.9994,-4.8859,-4.7791,-4.7083,-4.6497,-4.6146,-4.5903,-4.5453,-4.5092,-4.5055,-4.4911,-4.4799,-4.4761,-4.4685,-4.461,-4.461,-4.461,-4.461,-4.461,-4.461,-4.461,-4.461,-4.461,-4.461,-7.2532,-7.2386,-7.1651,-7.066,-6.9559,-6.9082,-6.8541,-6.7936,-6.7432,-6.6854,-6.6251,-6.5815,-6.4975,-6.3816,-6.2802,-6.2331,-6.2295,-6.2087,-6.2041,-6.2041,-6.2041,-6.2041,-6.2041,-6.2041,-6.2041,-6.2005,-6.2141,-6.2212,-6.2291,-6.2397,-6.2526,-6.2519,-6.2068,-6.164,-6.1286,-6.0053,-5.9625,-5.9681,-5.833,-5.7855,-5.8202,-5.7198,-5.6339,-5.5865,-5.4788,-5.4031,-5.3732,-5.3149,-5.3187,-5.3914,-5.3635,-5.3535,-5.3785,-5.2957,-5.2695,-5.3335,-5.3821,-5.4126,-5.4126,-5.3923,-5.3822,-5.3788,-5.3653,-5.3585,-5.3754,-5.3788,-5.3923,-5.4093,-5.4093,-5.4059,-5.3685,-5.3788,-5.3855,-5.3784,-5.3685,-5.3618,-5.3651,-5.3751,-5.3716,-5.3717,-5.3783,-5.3849,-5.3684,-5.3551,-5.3518,-5.345,-5.3007,-5.2659,-5.2485,-5.1549,-5.0576,-5.026,-4.951,-4.86,-4.7582,-4.7006,-4.6617,-4.6102,-4.5728,-4.5372,-4.5223,-4.5017,-4.4911,-4.4836,-4.4685,-4.461,-4.461,-4.461,-4.461,-4.461,-4.461,-4.461,-4.461,-4.461,-4.461,-7.2532,-7.2386,-7.1623,-7.1219,-7.1036,-6.9568,-6.8816,-6.8494,-6.7595,-6.7089,-6.6801,-6.604,-6.5555,-6.5337,-6.3889,-6.3128,-6.3019,-6.2404,-6.205,-6.2014,-6.2041,-6.2041,-6.2041,-6.2041,-6.2041,-6.2069,-6.2241,-6.2427,-6.2662,-6.2676,-6.2654,-6.2817,-6.278,-6.229,-6.1556,-6.1249,-6.0809,-6.0136,-5.9023,-5.8537,-5.8439,-5.7623,-5.6707,-5.5901,-5.5367,-5.4883,-5.4488,-5.4425,-5.4672,-5.5235,-5.4124,-5.3923,-5.4764,-5.3802,-5.3601,-5.4533,-5.5177,-5.5512,-5.5446,-5.4905,-5.4566,-5.4465,-5.4025,-5.3856,-5.4465,-5.4566,-5.4803,-5.5445,-5.548,-5.5075,-5.4126,-5.4431,-5.4465,-5.405,-5.4016,-5.4017,-5.3948,-5.3983,-5.3882,-5.3783,-5.375,-5.3717,-5.3551,-5.3484,-5.3484,-5.3518,-5.3416,-5.3382,-5.3212,-5.2624,-5.1806,-5.0995,-5.0236,-4.9378,-4.8155,-4.749,-4.7004,-4.6633,-4.6205,-4.5732,-4.5366,-4.5055,-4.4949,-4.4874,-4.4723,-4.461,-4.461,-4.461,-4.461,-4.461,-4.461,-4.461,-4.461,-4.461,-4.461,-7.2973,-7.2496,-7.2202,-7.1798,-7.1183,-6.9998,-6.9245,-6.8612,-6.7518,-6.704,-6.6954,-6.6519,-6.6388,-6.6315,-6.5229,-6.4178,-6.3237,-6.2875,-6.2512,-6.2078,-6.2041,-6.2041,-6.2041,-6.2041,-6.206,-6.2214,-6.2811,-6.3534,-6.4281,-6.4306,-6.4075,-6.3686,-6.3613,-6.3184,-6.2363,-6.1665,-6.1469,-6.1416,-5.976,-5.8817,-5.8834,-5.762,-5.6418,-5.5531,-5.5584,-5.5289,-5.4526,-5.4494,-5.4778,-5.5372,-5.4922,-5.5031,-5.562,-5.528,-5.4906,-5.4873,-5.538,-5.5681,-5.5647,-5.5446,-5.531,-5.531,-5.5108,-5.4972,-5.5243,-5.531,-5.5446,-5.575,-5.6296,-5.6096,-5.545,-5.5314,-5.5009,-5.4389,-5.4701,-5.4737,-5.4256,-5.4257,-5.4327,-5.4019,-5.3882,-5.3816,-5.3684,-5.3617,-5.3584,-5.3484,-5.3518,-5.3518,-5.3382,-5.2834,-5.2059,-5.122,-5.0422,-4.9567,-4.8532,-4.7916,-4.7392,-4.7167,-4.6788,-4.632,-4.5934,-4.5385,-4.5179,-4.498,-4.483,-4.461,-4.461,-4.461,-4.461,-4.461,-4.461,-4.461,-4.461,-4.461,-4.461,-7.2973,-7.2569,-7.2532,-7.2202,-7.1586,-7.0731,-6.984,-6.8921,-6.7919,-6.7266,-6.6969,-6.6815,-6.6822,-6.6714,-6.6243,-6.5265,-6.3961,-6.3454,-6.2875,-6.2404,-6.215,-6.2041,-6.2041,-6.2041,-6.2205,-6.2721,-6.3636,-6.4406,-6.482,-6.5165,-6.4725,-6.3672,-6.3881,-6.3649,-6.2817,-6.2118,-6.2141,-6.2135,-6.0583,-5.9583,-5.9318,-5.8067,-5.6705,-5.5684,-5.5759,-5.5469,-5.456,-5.4494,-5.4849,-5.5545,-5.5511,-5.572,-5.6372,-5.6404,-5.6198,-5.5891,-5.6227,-5.6427,-5.6359,-5.6224,-5.6055,-5.6055,-5.5783,-5.5749,-5.6021,-5.6055,-5.6156,-5.6496,-5.6906,-5.708,-5.6537,-5.6364,-5.5959,-5.5141,-5.5315,-5.5383,-5.4801,-5.4698,-5.4492,-5.4148,-5.4013,-5.3948,-5.3849,-5.3816,-5.375,-5.3651,-5.3618,-5.3584,-5.3484,-5.3076,-5.2272,-5.1294,-5.0691,-4.9797,-4.8891,-4.8204,-4.7885,-4.7592,-4.7362,-4.6912,-4.6341,-4.5797,-4.5341,-4.5148,-4.4905,-4.4685,-4.461,-4.461,-4.461,-4.461,-4.461,-4.461,-4.461,-4.461,-4.461,-7.2532,-7.2532,-7.2532,-7.2496,-7.2275,-7.1513,-7.0608,-6.9529,-6.8669,-6.7731,-6.6917,-6.6786,-6.6822,-6.6786,-6.6714,-6.6279,-6.5374,-6.407,-6.3309,-6.3056,-6.2331,-6.2041,-6.2041,-6.2041,-6.2558,-6.3439,-6.4519,-6.4652,-6.4213,-6.4867,-6.4427,-6.3203,-6.3819,-6.3807,-6.2853,-6.2865,-6.2778,-6.2406,-6.1517,-6.0747,-6.0016,-5.8937,-5.7629,-5.6199,-5.6036,-5.5605,-5.4635,-5.4566,-5.5025,-5.5893,-5.5719,-5.5927,-5.6847,-5.7049,-5.7248,-5.7582,-5.778,-5.7814,-5.7712,-5.7171,-5.6799,-5.6731,-5.619,-5.619,-5.6733,-5.6799,-5.7036,-5.7546,-5.7683,-5.762,-5.7218,-5.7316,-5.708,-5.6372,-5.5825,-5.5859,-5.5687,-5.513,-5.4434,-5.4239,-5.411,-5.4013,-5.4013,-5.398,-5.398,-5.3915,-5.3783,-5.3617,-5.3517,-5.3281,-5.2661,-5.1516,-5.0691,-4.9994,-4.9228,-4.8543,-4.8296,-4.8047,-4.7809,-4.7463,-4.6773,-4.6174,-4.5639,-4.5315,-4.4861,-4.4641,-4.461,-4.461,-4.461,-4.461,-4.461,-4.461,-4.461,-4.461,-4.461,-7.301,-7.2532,-7.2532,-7.2532,-7.2357,-7.1537,-7.0645,-6.9725,-6.8713,-6.7775,-6.7041,-6.6815,-6.6822,-6.6822,-6.6822,-6.6677,-6.6351,-6.5301,-6.4251,-6.3237,-6.2404,-6.2078,-6.2041,-6.2041,-6.2831,-6.4202,-6.4865,-6.5301,-6.5384,-6.5174,-6.4636,-6.4469,-6.4595,-6.4328,-6.357,-6.3972,-6.3811,-6.2569,-6.2168,-6.1443,-6.0203,-5.8936,-5.7793,-5.6906,-5.6387,-5.5957,-5.5685,-5.5304,-5.5269,-5.5685,-5.5858,-5.6304,-5.6982,-5.7452,-5.7717,-5.7884,-5.7881,-5.7881,-5.7848,-5.7679,-5.7509,-5.7509,-5.7273,-5.7378,-5.769,-5.7582,-5.7683,-5.7995,-5.7765,-5.7359,-5.7152,-5.6986,-5.6645,-5.5788,-5.6508,-5.6372,-5.5372,-5.4778,-5.4532,-5.4431,-5.4367,-5.4303,-5.4175,-5.4143,-5.411,-5.4013,-5.3849,-5.3617,-5.3213,-5.2939,-5.2128,-5.0838,-5.0454,-5.0065,-4.9188,-4.8646,-4.8543,-4.8306,-4.8171,-4.7862,-4.7198,-4.6617,-4.6083,-4.5448,-4.4994,-4.4671,-4.4641,-4.461,-4.461,-4.461,-4.461,-4.461,-4.461,-4.461,-4.461,-7.323,-7.2532,-7.2532,-7.2532,-7.2459,-7.1859,-7.1113,-7.025,-6.918,-6.824,-6.7528,-6.6954,-6.6822,-6.6822,-6.6822,-6.6822,-6.6714,-6.5953,-6.5048,-6.407,-6.3273,-6.2766,-6.2685,-6.3202,-6.3812,-6.4694,-6.5294,-6.5603,-6.5696,-6.5486,-6.5121,-6.4672,-6.5228,-6.5207,-6.4448,-6.4752,-6.4353,-6.3437,-6.3253,-6.263,-6.1491,-6.0266,-5.9238,-5.8448,-5.7707,-5.7259,-5.7021,-5.6713,-5.6405,-5.6199,-5.6508,-5.6987,-5.7529,-5.7695,-5.7757,-5.7957,-5.7918,-5.7881,-5.7881,-5.7848,-5.7881,-5.7881,-5.7881,-5.7954,-5.8027,-5.7991,-5.8063,-5.8103,-5.7868,-5.7597,-5.7494,-5.702,-5.644,-5.5788,-5.6576,-5.6508,-5.5128,-5.4847,-5.4707,-5.4569,-5.4463,-5.4431,-5.4367,-5.4303,-5.4239,-5.411,-5.3915,-5.3683,-5.3145,-5.2732,-5.1736,-5.0876,-5.0493,-4.9868,-4.9015,-4.8759,-4.8759,-4.8605,-4.8461,-4.809,-4.7534,-4.7141,-4.6638,-4.5835,-4.5226,-4.4887,-4.4787,-4.4671,-4.461,-4.461,-4.4671,-4.461,-4.461,-4.461,-4.461,-7.3303,-7.2532,-7.2532,-7.2532,-7.2532,-7.2459,-7.1859,-7.0974,-6.9996,-6.8983,-6.8102,-6.72,-6.6822,-6.6822,-6.6822,-6.6822,-6.6677,-6.6134,-6.5663,-6.5301,-6.4758,-6.4142,-6.3554,-6.4757,-6.5259,-6.5122,-6.5806,-6.5769,-6.5286,-6.5659,-6.5404,-6.4373,-6.561,-6.6082,-6.5443,-6.5217,-6.5057,-6.4603,-6.4475,-6.4007,-6.3167,-6.2489,-6.1557,-6.0321,-5.9628,-5.9064,-5.8518,-5.8453,-5.8113,-5.7431,-5.7432,-5.7809,-5.8149,-5.7738,-5.77,-5.8137,-5.7991,-5.7918,-5.7881,-5.7881,-5.7881,-5.7881,-5.7881,-5.7918,-5.8024,-5.8097,-5.8169,-5.8207,-5.8072,-5.8004,-5.7765,-5.7359,-5.6747,-5.6338,-5.6201,-5.5823,-5.5477,-5.5338,-5.5094,-5.4741,-5.4566,-5.4566,-5.4603,-5.4569,-5.4367,-5.4207,-5.4045,-5.3816,-5.3416,-5.2767,-5.2098,-5.1406,-5.0685,-5.0136,-4.934,-4.9006,-4.9006,-4.8903,-4.8738,-4.844,-4.7988,-4.7577,-4.7013,-4.6243,-4.5719,-4.5349,-4.5064,-4.5033,-4.488,-4.488,-4.4818,-4.4702,-4.461,-4.461,-4.461,-7.378,-7.2569,-7.2532,-7.2532,-7.2532,-7.2532,-7.2027,-7.1162,-7.0062,-6.9143,-6.8226,-6.723,-6.6822,-6.6822,-6.6822,-6.6822,-6.6714,-6.6569,-6.6134,-6.5736,-6.6098,-6.5337,-6.4496,-6.5246,-6.5814,-6.5715,-6.5916,-6.6007,-6.5842,-6.5496,-6.5377,-6.565,-6.606,-6.6306,-6.606,-6.6363,-6.5861,-6.4821,-6.4537,-6.4106,-6.3351,-6.2653,-6.1821,-6.1,-6.0774,-6.0376,-5.9729,-5.98,-5.91,-5.7707,-5.7979,-5.8082,-5.8015,-5.7976,-5.814,-5.8239,-5.8095,-5.7915,-5.7915,-5.7949,-5.7915,-5.7881,-5.8017,-5.8061,-5.8312,-5.8133,-5.8169,-5.821,-5.7941,-5.7429,-5.6952,-5.6782,-5.6713,-5.6678,-5.5892,-5.5268,-5.5408,-5.5407,-5.5304,-5.5197,-5.5163,-5.5163,-5.5094,-5.4849,-5.4505,-5.4276,-5.4114,-5.385,-5.3349,-5.2835,-5.2167,-5.1475,-5.08,-5.037,-4.986,-4.9493,-4.925,-4.921,-4.9107,-4.8913,-4.8409,-4.7937,-4.7321,-4.6542,-4.6419,-4.6111,-4.5926,-4.5803,-4.5588,-4.5341,-4.4972,-4.4825,-4.4671,-4.4603,-4.461,-7.3964,-7.2532,-7.2532,-7.2532,-7.2532,-7.2532,-7.2239,-7.1558,-7.0237,-6.9325,-6.8648,-6.7404,-6.6822,-6.6822,-6.6822,-6.6822,-6.6822,-6.6822,-6.6533,-6.6279,-6.6569,-6.6025,-6.5366,-6.5872,-6.6167,-6.5896,-6.5924,-6.6007,-6.6044,-6.5551,-6.5715,-6.6189,-6.6709,-6.6883,-6.6883,-6.703,-6.6781,-6.5795,-6.5226,-6.4649,-6.4186,-6.3496,-6.2821,-6.2248,-6.2092,-6.1755,-6.0883,-6.1045,-6.0449,-5.9238,-5.9173,-5.9277,-5.8972,-5.9032,-5.9123,-5.9123,-5.8906,-5.8829,-5.8829,-5.8829,-5.8829,-5.8829,-5.8795,-5.894,-5.912,-5.9013,-5.9086,-5.9232,-5.8897,-5.8487,-5.8009,-5.7567,-5.7123,-5.6748,-5.5856,-5.5477,-5.603,-5.5926,-5.5788,-5.5754,-5.5754,-5.5754,-5.5754,-5.5408,-5.4998,-5.4627,-5.4427,-5.3923,-5.3314,-5.2797,-5.2343,-5.1806,-5.114,-5.0608,-5.0214,-4.9781,-4.9493,-4.9452,-4.9372,-4.9219,-4.8891,-4.8368,-4.7895,-4.7361,-4.7167,-4.6942,-4.6665,-4.6419,-4.6172,-4.5834,-4.5341,-4.5133,-4.5033,-4.4756,-4.4733,-7.3964,-7.2532,-7.2532,-7.2532,-7.2532,-7.2532,-7.2496,-7.2144,-7.0566,-6.969,-6.9194,-6.7694,-6.6967,-6.6822,-6.6822,-6.6822,-6.6822,-6.6822,-6.6786,-6.6714,-6.675,-6.6351,-6.5946,-6.6431,-6.6518,-6.6139,-6.5957,-6.6106,-6.6318,-6.6236,-6.629,-6.6682,-6.7303,-6.7614,-6.7486,-6.7378,-6.7238,-6.6854,-6.5755,-6.5359,-6.5135,-6.4464,-6.3637,-6.3233,-6.2952,-6.2535,-6.1945,-6.1956,-6.1719,-6.0649,-6.0734,-6.0603,-6.0569,-6.0458,-6.0313,-6.0208,-5.999,-5.9911,-6.0013,-5.9877,-5.9979,-5.9911,-5.9945,-6.0118,-6.0024,-5.9994,-6.0068,-6.0143,-6.0529,-6.0154,-5.9743,-5.8921,-5.7871,-5.7124,-5.6577,-5.6713,-5.6915,-5.6678,-5.6304,-5.6304,-5.6304,-5.6304,-5.6304,-5.6167,-5.586,-5.5144,-5.4873,-5.433,-5.3754,-5.3244,-5.2901,-5.259,-5.1806,-5.0914,-5.0525,-5.0136,-4.9821,-4.9622,-4.9573,-4.9452,-4.9291,-4.891,-4.8562,-4.8233,-4.7885,-4.7527,-4.7219,-4.6973,-4.6757,-4.648,-4.6111,-4.5865,-4.5649,-4.5187,-4.4972,-7.3964,-7.2532,-7.2532,-7.2532,-7.2532,-7.2532,-7.2532,-7.2393,-7.1114,-7.0164,-6.9449,-6.8275,-6.7402,-6.6858,-6.6822,-6.6822,-6.6822,-6.6822,-6.6822,-6.6822,-6.6822,-6.675,-6.6533,-6.6809,-6.6758,-6.6663,-6.6806,-6.6983,-6.7094,-6.7104,-6.7313,-6.7376,-6.745,-6.7687,-6.766,-6.7497,-6.7442,-6.7131,-6.575,-6.5255,-6.5374,-6.4423,-6.3641,-6.3376,-6.2933,-6.2591,-6.2329,-6.2318,-6.2251,-6.1956,-6.1562,-6.117,-6.0873,-6.0625,-6.0547,-6.051,-6.0329,-6.0148,-6.0148,-6.025,-6.0114,-6.025,-6.0317,-6.019,-6.0303,-6.0329,-6.0333,-6.034,-6.0452,-6.0458,-6.0021,-5.9032,-5.835,-5.794,-5.7699,-5.7627,-5.762,-5.7252,-5.6914,-5.6915,-5.6915,-5.6915,-5.6881,-5.6508,-5.6132,-5.5723,-5.5281,-5.4737,-5.4228,-5.3686,-5.3449,-5.3212,-5.2345,-5.1512,-5.1065,-5.0563,-4.9939,-4.9701,-4.9661,-4.9533,-4.9412,-4.921,-4.882,-4.8625,-4.8492,-4.8142,-4.7742,-4.7588,-4.7404,-4.7127,-4.688,-4.6603,-4.6234,-4.5711,-4.5249,-7.3964,-7.2532,-7.2532,-7.2532,-7.2532,-7.2532,-7.2532,-7.2291,-7.1385,-7.0661,-6.9953,-6.8734,-6.7787,-6.7329,-6.7003,-6.6822,-6.6822,-6.6822,-6.704,-6.7184,-6.7076,-6.7003,-6.7221,-6.6967,-6.6845,-6.6903,-6.6954,-6.7105,-6.7247,-6.7359,-6.7314,-6.746,-6.746,-6.7524,-6.7579,-6.747,-6.7414,-6.7232,-6.608,-6.5347,-6.5192,-6.4531,-6.3692,-6.338,-6.2802,-6.2415,-6.2381,-6.2381,-6.2415,-6.2318,-6.2092,-6.1796,-6.1533,-6.1393,-6.1316,-6.1316,-6.124,-6.1163,-6.1197,-6.1197,-6.1231,-6.1129,-6.1163,-6.124,-6.1278,-6.1201,-6.1201,-6.1355,-6.1507,-6.1422,-6.0818,-6.0027,-5.9407,-5.8751,-5.8375,-5.8133,-5.7887,-5.7652,-5.745,-5.745,-5.7484,-5.745,-5.7318,-5.6981,-5.6743,-5.6433,-5.6229,-5.5686,-5.4737,-5.4262,-5.4024,-5.3619,-5.2834,-5.2131,-5.1659,-5.0989,-5.0018,-4.9781,-4.9701,-4.9541,-4.9412,-4.9169,-4.8965,-4.8769,-4.8615,-4.8573,-4.8266,-4.8142,-4.8019,-4.7896,-4.7619,-4.7281,-4.688,-4.6449,-4.5926,-7.3964,-7.2532,-7.2532,-7.2532,-7.2532,-7.2532,-7.2532,-7.2357,-7.1655,-7.1114,-7.0565,-6.907,-6.8275,-6.7902,-6.7329,-6.7076,-6.7221,-6.7293,-6.7728,-6.8054,-6.7438,-6.7474,-6.7619,-6.7221,-6.6822,-6.6822,-6.6845,-6.6961,-6.7105,-6.7069,-6.7303,-6.7294,-6.7266,-6.7442,-6.747,-6.7387,-6.7387,-6.7351,-6.6455,-6.5904,-6.5393,-6.487,-6.3925,-6.3218,-6.2745,-6.2415,-6.2415,-6.2415,-6.2415,-6.2415,-6.2415,-6.2415,-6.2415,-6.2415,-6.2415,-6.2347,-6.2212,-6.2144,-6.211,-6.2212,-6.2245,-6.2415,-6.2347,-6.2313,-6.2279,-6.2081,-6.2053,-6.23,-6.2421,-6.2419,-6.2027,-6.1097,-6.0162,-5.937,-5.8619,-5.8239,-5.8027,-5.7954,-5.7887,-5.785,-5.7785,-5.7751,-5.7785,-5.7618,-5.7376,-5.7137,-5.69,-5.6496,-5.5552,-5.4805,-5.4532,-5.4058,-5.3244,-5.2343,-5.1806,-5.1252,-5.0331,-5.0018,-4.99,-4.9541,-4.9372,-4.9169,-4.8955,-4.8841,-4.8687,-4.8646,-4.8604,-4.845,-4.8389,-4.8481,-4.8296,-4.7865,-4.7496,-4.7157,-4.6634,-7.3964,-7.2532,-7.2532,-7.2532,-7.2532,-7.2532,-7.2532,-7.2467,-7.2204,-7.1589,-7.0748,-6.9689,-6.8777,-6.8192,-6.7945,-6.8162,-6.8452,-6.8525,-6.8736,-6.8814,-6.8162,-6.7909,-6.7909,-6.7221,-6.6858,-6.6815,-6.6874,-6.7076,-6.7303,-6.7414,-6.7387,-6.7552,-6.747,-6.7497,-6.7552,-6.7524,-6.747,-6.7478,-6.6692,-6.6324,-6.6105,-6.4721,-6.3415,-6.2783,-6.2498,-6.242,-6.2415,-6.2415,-6.2415,-6.2415,-6.2415,-6.2415,-6.2415,-6.2415,-6.2415,-6.2415,-6.2415,-6.2415,-6.2415,-6.2415,-6.2415,-6.2415,-6.2352,-6.2381,-6.2285,-6.1995,-6.1898,-6.2232,-6.2416,-6.234,-6.1307,-6.0964,-6.0278,-5.9351,-5.8802,-5.8561,-5.8385,-5.8207,-5.8063,-5.7954,-5.7918,-5.7881,-5.7881,-5.7881,-5.7679,-5.7442,-5.7239,-5.697,-5.6399,-5.5553,-5.4975,-5.4364,-5.3652,-5.2722,-5.1806,-5.1252,-5.0608,-5.037,-5.0097,-4.9573,-4.9331,-4.9159,-4.8996,-4.88,-4.8687,-4.8604,-4.8604,-4.8604,-4.8604,-4.8543,-4.8481,-4.8389,-4.8081,-4.7742,-4.7496,-7.3964,-7.2532,-7.2532,-7.2532,-7.2532,-7.2532,-7.2532,-7.2496,-7.2409,-7.2043,-7.1288,-7.0513,-6.9818,-6.9237,-6.8742,-6.885,-6.9134,-6.9207,-6.9424,-6.9466,-6.8633,-6.8271,-6.8343,-6.7402,-6.699,-6.6874,-6.6932,-6.7019,-6.7219,-6.7303,-6.7387,-6.7378,-6.7387,-6.7442,-6.7524,-6.7442,-6.747,-6.7351,-6.6957,-6.6424,-6.6186,-6.4076,-6.2922,-6.2557,-6.2415,-6.2415,-6.2415,-6.2415,-6.2415,-6.2415,-6.2415,-6.2415,-6.2415,-6.2415,-6.2415,-6.2415,-6.2415,-6.2415,-6.2415,-6.2415,-6.2415,-6.2347,-6.2154,-6.212,-6.2092,-6.1732,-6.1344,-6.162,-6.2021,-6.1937,-6.1101,-6.0763,-6.0145,-5.942,-5.901,-5.877,-5.8561,-5.8419,-5.8277,-5.8063,-5.7991,-5.7954,-5.7881,-5.7881,-5.7881,-5.7746,-5.7543,-5.7275,-5.7042,-5.6401,-5.5656,-5.4737,-5.4059,-5.3239,-5.2263,-5.1471,-5.0951,-5.0685,-5.0136,-4.9582,-4.925,-4.9047,-4.8841,-4.8676,-4.8604,-4.8604,-4.8604,-4.8604,-4.8604,-4.8604,-4.8543,-4.8512,-4.8481,-4.8327,-4.8019,-7.3817,-7.2532,-7.2532,-7.2532,-7.2532,-7.2532,-7.2532,-7.2496,-7.2467,-7.2255,-7.1908,-7.1126,-7.0575,-7.0252,-6.9823,-6.9533,-6.9642,-6.972,-7.0118,-7.0154,-6.9068,-6.8633,-6.8561,-6.7758,-6.6845,-6.6903,-6.6932,-6.6903,-6.7069,-6.7126,-6.7182,-6.721,-6.721,-6.7238,-6.7387,-6.7238,-6.7331,-6.7294,-6.721,-6.644,-6.5006,-6.3716,-6.2731,-6.242,-6.2415,-6.2415,-6.2415,-6.2415,-6.2415,-6.2415,-6.2415,-6.2415,-6.2415,-6.2415,-6.2415,-6.2415,-6.2415,-6.2415,-6.2415,-6.2415,-6.2415,-6.2381,-6.1956,-6.199,-6.183,-6.1374,-6.0782,-6.093,-6.1302,-6.1402,-6.0832,-6.0596,-6.0078,-5.9525,-5.9147,-5.8942,-5.87,-5.8596,-5.8525,-5.8348,-5.8099,-5.7991,-5.7918,-5.7881,-5.7881,-5.7881,-5.7679,-5.7647,-5.7345,-5.7114,-5.6335,-5.5281,-5.4465,-5.3718,-5.2822,-5.1831,-5.1392,-5.1027,-5.0182,-4.9412,-4.9097,-4.8893,-4.8728,-4.8604,-4.8604,-4.8604,-4.8604,-4.8604,-4.8604,-4.8604,-4.8604,-4.8604,-4.8543,-4.8543,-4.8327,-7.3303,-7.2532,-7.2532,-7.2532,-7.2496,-7.2496,-7.2496,-7.2467,-7.2387,-7.2204,-7.1957,-7.1108,-7.0629,-7.047,-7.0372,-7.0589,-7.0951,-7.1024,-7.106,-7.0987,-6.9684,-6.8959,-6.8953,-6.751,-6.6895,-6.6845,-6.6932,-6.704,-6.717,-6.7149,-6.7097,-6.7182,-6.7126,-6.7097,-6.7238,-6.7162,-6.7097,-6.7182,-6.704,-6.6197,-6.4806,-6.3826,-6.3087,-6.2581,-6.2415,-6.2415,-6.2415,-6.2415,-6.2415,-6.2415,-6.2415,-6.2415,-6.2415,-6.2415,-6.2415,-6.2415,-6.2415,-6.2415,-6.2415,-6.2415,-6.2352,-6.2285,-6.212,-6.2024,-6.1435,-6.1075,-6.0581,-6.0322,-6.0798,-6.0865,-6.0559,-6.0662,-6.0181,-5.9802,-5.9526,-5.9321,-5.9081,-5.8736,-5.8701,-5.8561,-5.8348,-5.8099,-5.7954,-5.7918,-5.7881,-5.7881,-5.7884,-5.7816,-5.7649,-5.7316,-5.6978,-5.5925,-5.5178,-5.4428,-5.364,-5.2656,-5.1843,-5.1452,-5.0292,-4.9291,-4.9047,-4.8841,-4.8687,-4.8604,-4.8604,-4.8604,-4.8604,-4.8604,-4.8604,-4.8604,-4.8604,-4.8604,-4.8604,-4.8573,-4.8543,-7.2826,-7.2532,-7.2532,-7.2532,-7.2496,-7.2409,-7.2416,-7.2387,-7.2204,-7.2054,-7.1866,-7.1484,-7.1179,-7.1019,-7.1024,-7.1168,-7.1458,-7.1494,-7.1494,-7.1168,-7.0009,-6.9207,-6.8814,-6.7655,-6.6822,-6.6822,-6.6954,-6.7237,-6.7353,-6.7287,-6.7154,-6.7219,-6.7154,-6.7154,-6.7154,-6.704,-6.704,-6.6801,-6.6166,-6.5108,-6.4112,-6.3348,-6.2779,-6.2454,-6.2415,-6.2415,-6.2415,-6.2415,-6.2415,-6.2415,-6.2415,-6.2415,-6.2415,-6.2415,-6.2415,-6.2415,-6.2415,-6.2415,-6.2415,-6.2415,-6.2251,-6.1859,-6.1635,-6.101,-6.0406,-6.044,-6.0309,-5.9599,-6.035,-6.045,-6.0214,-6.0553,-6.0448,-6.0174,-5.9801,-5.9664,-5.9391,-5.9082,-5.884,-5.8701,-5.8525,-5.8277,-5.8063,-5.8027,-5.7991,-5.7881,-5.7881,-5.7884,-5.7613,-5.7243,-5.6974,-5.6532,-5.5854,-5.5243,-5.4485,-5.3609,-5.2589,-5.1837,-5.031,-4.9475,-4.9078,-4.8841,-4.8718,-4.8604,-4.8604,-4.8604,-4.8604,-4.8604,-4.8604,-4.8604,-4.8604,-4.8604,-4.8604,-4.8604,-4.8481,-7.2532,-7.2532,-7.2532,-7.2467,-7.2438,-7.2321,-7.2299,-7.2204,-7.2054,-7.1903,-7.178,-7.1718,-7.1589,-7.1526,-7.1458,-7.1458,-7.1494,-7.1494,-7.1494,-7.0987,-7.0082,-6.9279,-6.8706,-6.7692,-6.6822,-6.6822,-6.7148,-6.7468,-6.7744,-6.7862,-6.7724,-6.7425,-6.7477,-6.7287,-6.7076,-6.6954,-6.6874,-6.6476,-6.5371,-6.4393,-6.357,-6.2851,-6.2537,-6.2415,-6.2415,-6.2415,-6.2415,-6.2415,-6.2415,-6.2415,-6.2415,-6.2454,-6.2493,-6.2532,-6.2571,-6.2537,-6.2537,-6.2532,-6.2459,-6.2425,-6.212,-6.1694,-6.117,-6.074,-5.9935,-6.0206,-6.0174,-5.9185,-5.9631,-5.9938,-5.9902,-6.014,-6.014,-6.0038,-5.9937,-5.9869,-5.9664,-5.9219,-5.8875,-5.8736,-5.8561,-5.8348,-5.8171,-5.8171,-5.8063,-5.7954,-5.7881,-5.7918,-5.7681,-5.7342,-5.7241,-5.7038,-5.653,-5.6022,-5.5503,-5.4631,-5.3577,-5.2259,-5.0763,-4.9609,-4.9212,-4.8944,-4.8759,-4.8676,-4.8604,-4.8604,-4.8604,-4.8604,-4.8604,-4.8604,-4.8604,-4.8604,-4.8604,-4.8604,-4.8543,-7.2532,-7.2532,-7.2532,-7.2446,-7.2329,-7.2299,-7.2174,-7.2054,-7.1872,-7.1816,-7.1718,-7.1625,-7.1562,-7.1494,-7.1494,-7.1494,-7.1494,-7.1494,-7.1494,-7.0987,-7.0046,-6.9388,-6.8742,-6.7836,-6.6895,-6.6931,-6.7366,-6.78,-6.8199,-6.8802,-6.8506,-6.8047,-6.7955,-6.7461,-6.7099,-6.6917,-6.6482,-6.5981,-6.5008,-6.4253,-6.3496,-6.2851,-6.242,-6.2415,-6.2415,-6.2415,-6.2415,-6.2454,-6.242,-6.242,-6.2459,-6.2571,-6.2688,-6.2688,-6.2731,-6.2808,-6.2693,-6.2615,-6.2615,-6.2498,-6.2386,-6.2154,-6.1635,-6.0873,-6.0204,-5.9935,-5.9631,-5.9116,-5.9425,-5.9426,-5.9391,-5.9528,-5.997,-5.9937,-5.9937,-5.9766,-5.9527,-5.915,-5.8875,-5.8736,-5.8596,-5.8455,-5.8312,-5.8278,-5.8099,-5.7954,-5.7991,-5.7991,-5.7954,-5.7751,-5.7749,-5.7579,-5.7103,-5.6765,-5.6558,-5.5579,-5.4091,-5.2811,-5.147,-5.0228,-4.9295,-4.9078,-4.8831,-4.8676,-4.8604,-4.8604,-4.8604,-4.8604,-4.8604,-4.8604,-4.8604,-4.8604,-4.8604,-4.8604,-4.8604,-7.2532,-7.2532,-7.2532,-7.2409,-7.2299,-7.2174,-7.2024,-7.1872,-7.1687,-7.1625,-7.1625,-7.1526,-7.1494,-7.1494,-7.1494,-7.1494,-7.1494,-7.1494,-7.1494,-7.1205,-7.048,-6.975,-6.8989,-6.8126,-6.7329,-6.7076,-6.7583,-6.8343,-6.8814,-6.9539,-6.972,-6.9358,-6.8597,-6.7945,-6.751,-6.701,-6.6361,-6.5728,-6.4974,-6.4253,-6.3496,-6.2813,-6.2415,-6.2415,-6.2415,-6.2415,-6.2454,-6.2571,-6.2537,-6.2615,-6.2693,-6.277,-6.2847,-6.2885,-6.2923,-6.3,-6.2847,-6.2731,-6.2654,-6.2503,-6.229,-6.1698,-6.1037,-6.0474,-6.0307,-5.9733,-5.9322,-5.9151,-5.9288,-5.9391,-5.9631,-6.0038,-6.0376,-6.0105,-5.9834,-5.9664,-5.9425,-5.9081,-5.8875,-5.8771,-5.8701,-5.8596,-5.849,-5.8419,-5.8171,-5.7991,-5.8027,-5.8063,-5.8063,-5.8027,-5.7991,-5.7954,-5.7512,-5.7265,-5.7058,-5.5854,-5.4498,-5.3279,-5.2093,-5.0853,-4.9678,-4.912,-4.8914,-4.8718,-4.8604,-4.8604,-4.8604,-4.8604,-4.8604,-4.8604,-4.8604,-4.8604,-4.8604,-4.8604,-4.8604,-7.2532,-7.2532,-7.2532,-7.238,-7.2204,-7.2048,-7.1866,-7.1687,-7.1593,-7.1494,-7.1494,-7.1494,-7.1494,-7.1494,-7.1494,-7.1494,-7.1494,-7.1494,-7.1494,-7.1205,-7.0698,-6.9968,-6.914,-6.8343,-6.7547,-6.7221,-6.7909,-6.8742,-6.9134,-7.0191,-7.0553,-7.0263,-6.943,-6.8742,-6.78,-6.7227,-6.6452,-6.5728,-6.4974,-6.4253,-6.3496,-6.2813,-6.2415,-6.2415,-6.2415,-6.2459,-6.2498,-6.2615,-6.2727,-6.2808,-6.2885,-6.3,-6.3076,-6.3114,-6.308,-6.3076,-6.3,-6.2847,-6.2842,-6.2542,-6.2222,-6.1859,-6.1105,-6.054,-6.0037,-5.9596,-5.9391,-5.9047,-5.9357,-5.9665,-5.9664,-5.9801,-5.9937,-5.9596,-5.9563,-5.9357,-5.9288,-5.9047,-5.8909,-5.8771,-5.8701,-5.8596,-5.8525,-5.8419,-5.8348,-5.8205,-5.8277,-5.8277,-5.8277,-5.8241,-5.8099,-5.8027,-5.7853,-5.7634,-5.7413,-5.6307,-5.5121,-5.3608,-5.2449,-5.1265,-5.0258,-4.9636,-4.9006,-4.8718,-4.8604,-4.8604,-4.8604,-4.8604,-4.8604,-4.8604,-4.8604,-4.8604,-4.8604,-4.8604,-4.8604,-7.2532,-7.2532,-7.2532,-7.2321,-7.2048,-7.2018,-7.1836,-7.1593,-7.1494,-7.1494,-7.1494,-7.1494,-7.1494,-7.1494,-7.1494,-7.1494,-7.1494,-7.1494,-7.1494,-7.1313,-7.0915,-7.0046,-6.9321,-6.8597,-6.8126,-6.7474,-6.8307,-6.9243,-6.9352,-7.0625,-7.1241,-7.1132,-7.0335,-6.9321,-6.8054,-6.7221,-6.6457,-6.5728,-6.5041,-6.4358,-6.3643,-6.2969,-6.2693,-6.2459,-6.2498,-6.2576,-6.2693,-6.277,-6.2885,-6.3,-6.3076,-6.3189,-6.3265,-6.3302,-6.3377,-6.3489,-6.334,-6.3227,-6.3189,-6.2693,-6.2358,-6.212,-6.1405,-6.0941,-6.0574,-6.0105,-5.9494,-5.9047,-5.9082,-5.9082,-5.9082,-5.9116,-5.9254,-5.9254,-5.9219,-5.9185,-5.9116,-5.9082,-5.8909,-5.8875,-5.8666,-5.8525,-5.8455,-5.8419,-5.8419,-5.8384,-5.8455,-5.849,-5.8419,-5.8348,-5.8241,-5.8027,-5.7918,-5.7772,-5.7443,-5.6844,-5.5739,-5.418,-5.2796,-5.1601,-5.0703,-5.0049,-4.9418,-4.8861,-4.8604,-4.8604,-4.8604,-4.8604,-4.8604,-4.8604,-4.8604,-4.8604,-4.8604,-4.8604,-4.8604,-7.2532,-7.2532,-7.2532,-7.238,-7.2174,-7.2048,-7.1866,-7.1687,-7.1593,-7.1494,-7.1494,-7.1494,-7.1494,-7.1494,-7.1494,-7.1494,-7.1494,-7.1494,-7.1494,-7.1458,-7.1168,-7.0698,-7.0046,-6.9539,-6.9068,-6.885,-6.9497,-6.9968,-7.0046,-7.106,-7.1422,-7.1313,-7.077,-6.9539,-6.838,-6.7619,-6.7222,-6.6469,-6.5728,-6.4974,-6.4253,-6.3606,-6.308,-6.2654,-6.2693,-6.2808,-6.2885,-6.2962,-6.3076,-6.3189,-6.3265,-6.3414,-6.3489,-6.3489,-6.3526,-6.3563,-6.3414,-6.3152,-6.2923,-6.2576,-6.2454,-6.2159,-6.1533,-6.0975,-6.0677,-5.9766,-5.9288,-5.9082,-5.8978,-5.9012,-5.9013,-5.9013,-5.9116,-5.9082,-5.9047,-5.9047,-5.9013,-5.9013,-5.8978,-5.8944,-5.884,-5.8736,-5.8666,-5.8525,-5.849,-5.8419,-5.8455,-5.849,-5.8455,-5.8419,-5.8348,-5.8063,-5.7881,-5.7772,-5.7443,-5.6768,-5.5995,-5.4671,-5.3218,-5.1946,-5.1141,-5.0511,-4.9912,-4.9323,-4.8912,-4.8604,-4.8604,-4.8604,-4.8604,-4.8604,-4.8604,-4.8604,-4.8604,-4.8604,-4.8604,-7.2532,-7.2532,-7.2532,-7.2409,-7.2263,-7.2078,-7.1866,-7.1687,-7.1526,-7.1494,-7.1494,-7.1494,-7.1494,-7.1494,-7.1494,-7.1494,-7.1494,-7.1494,-7.1494,-7.1494,-7.1494,-7.0951,-7.0553,-7.0372,-6.9714,-6.9678,-6.9937,-7.0372,-7.0335,-7.1132,-7.1458,-7.1386,-7.0987,-7.0191,-6.9176,-6.8633,-6.8054,-6.727,-6.6487,-6.5625,-6.481,-6.4041,-6.342,-6.3004,-6.2923,-6.3038,-6.3114,-6.3227,-6.334,-6.3414,-6.3526,-6.36,-6.36,-6.36,-6.36,-6.3526,-6.3452,-6.3227,-6.3,-6.2885,-6.277,-6.2625,-6.1453,-6.0776,-6.0474,-5.9699,-5.9219,-5.8978,-5.9081,-5.9081,-5.9116,-5.9116,-5.9081,-5.9116,-5.9047,-5.9047,-5.9047,-5.9047,-5.8978,-5.8978,-5.8978,-5.8909,-5.8806,-5.8701,-5.8561,-5.849,-5.8455,-5.8455,-5.8455,-5.8419,-5.8348,-5.8099,-5.7808,-5.7628,-5.7256,-5.6614,-5.5836,-5.4985,-5.3788,-5.2455,-5.1691,-5.1061,-5.0444,-4.9816,-4.9447,-4.9035,-4.8696,-4.8604,-4.8604,-4.8604,-4.8604,-4.8604,-4.8604,-4.8604,-4.8604,-7.2532,-7.2532,-7.2496,-7.2409,-7.2299,-7.2084,-7.1805,-7.1494,-7.1494,-7.1494,-7.1494,-7.1494,-7.1494,-7.1494,-7.1494,-7.1494,-7.1494,-7.1494,-7.1494,-7.1494,-7.1494,-7.1024,-7.0734,-7.0517,-7.0227,-6.9968,-7.0113,-7.0698,-7.0553,-7.1168,-7.1494,-7.1494,-7.1386,-7.0806,-7.0191,-6.9684,-6.885,-6.7908,-6.7199,-6.6235,-6.5182,-6.4393,-6.3788,-6.3346,-6.3155,-6.3227,-6.3265,-6.334,-6.3414,-6.3526,-6.36,-6.36,-6.36,-6.36,-6.36,-6.36,-6.36,-6.3414,-6.3265,-6.3152,-6.3076,-6.2753,-6.1664,-6.1018,-6.0615,-6.0146,-5.9736,-5.9564,-5.9599,-5.9426,-5.9288,-5.9288,-5.9288,-5.9219,-5.9116,-5.9082,-5.9082,-5.9047,-5.8978,-5.8978,-5.8978,-5.8909,-5.8806,-5.8666,-5.8561,-5.8419,-5.8312,-5.8277,-5.8277,-5.8312,-5.8241,-5.8135,-5.7845,-5.7517,-5.7072,-5.6691,-5.5876,-5.5076,-5.4369,-5.3232,-5.2455,-5.159,-5.1079,-5.0494,-4.9897,-4.9404,-4.885,-4.8604,-4.8604,-4.8604,-4.8604,-4.8604,-4.8604,-4.8604,-4.8635,-7.2532,-7.2496,-7.2416,-7.2321,-7.227,-7.1964,-7.1682,-7.1494,-7.1494,-7.1494,-7.1494,-7.1494,-7.1494,-7.1494,-7.1494,-7.1494,-7.1494,-7.1494,-7.1494,-7.1494,-7.1494,-7.135,-7.1241,-7.1096,-7.0951,-7.0915,-7.0987,-7.106,-7.1168,-7.1494,-7.1494,-7.1494,-7.1494,-7.1277,-7.1132,-7.0915,-6.9647,-6.8536,-6.7889,-6.6836,-6.5785,-6.5011,-6.4393,-6.3895,-6.3528,-6.3526,-6.3489,-6.3489,-6.3563,-6.3563,-6.36,-6.36,-6.36,-6.36,-6.36,-6.36,-6.3489,-6.334,-6.3265,-6.3152,-6.3076,-6.2977,-6.2227,-6.1921,-6.1549,-6.1076,-6.053,-6.0358,-6.0323,-6.0254,-6.0116,-6.0047,-6.0082,-6.0082,-5.984,-5.953,-5.9529,-5.9425,-5.9357,-5.9081,-5.9116,-5.8944,-5.8806,-5.8631,-5.849,-5.8312,-5.8171,-5.8099,-5.8099,-5.8135,-5.8099,-5.8027,-5.7954,-5.7628,-5.7406,-5.6996,-5.6113,-5.5239,-5.4495,-5.373,-5.2759,-5.2021,-5.159,-5.1005,-5.0266,-4.9497,-4.8758,-4.8635,-4.8604,-4.8604,-4.8604,-4.8604,-4.8604,-4.8604,-4.8758,-7.2467,-7.2409,-7.2358,-7.224,-7.2091,-7.178,-7.1625,-7.1494,-7.1494,-7.1494,-7.1494,-7.1494,-7.1494,-7.1494,-7.1494,-7.1494,-7.1494,-7.1494,-7.1494,-7.1494,-7.1494,-7.1494,-7.1494,-7.1494,-7.1422,-7.1494,-7.1494,-7.1422,-7.1494,-7.1494,-7.1494,-7.1494,-7.1494,-7.1494,-7.1458,-7.1277,-7.0553,-6.9466,-6.8542,-6.758,-6.6666,-6.5746,-6.5045,-6.4358,-6.4002,-6.3821,-6.36,-6.36,-6.36,-6.36,-6.36,-6.36,-6.36,-6.36,-6.3526,-6.3489,-6.3489,-6.3377,-6.3302,-6.3302,-6.3265,-6.3162,-6.2927,-6.2793,-6.235,-6.1803,-6.1392,-6.1082,-6.1185,-6.122,-6.1082,-6.0978,-6.1082,-6.1185,-6.0667,-6.0115,-6.001,-5.9904,-5.9663,-5.9355,-5.915,-5.8978,-5.8806,-5.8631,-5.849,-5.8419,-5.8277,-5.8063,-5.8027,-5.8063,-5.8027,-5.7954,-5.7918,-5.7845,-5.7554,-5.7256,-5.6381,-5.5474,-5.4685,-5.3879,-5.3007,-5.2452,-5.2021,-5.1313,-5.0513,-4.9774,-4.9097,-4.8727,-4.8604,-4.8604,-4.8604,-4.8604,-4.8604,-4.8604,-4.882,-7.2409,-7.2299,-7.227,-7.2024,-7.1786,-7.1557,-7.1494,-7.1494,-7.1494,-7.1494,-7.1494,-7.1494,-7.1494,-7.1494,-7.1494,-7.1494,-7.1494,-7.1494,-7.1494,-7.1494,-7.1494,-7.1494,-7.1494,-7.1494,-7.1494,-7.1494,-7.1494,-7.1494,-7.1494,-7.1494,-7.1494,-7.1494,-7.1494,-7.1494,-7.1494,-7.1494,-7.0987,-7.0408,-6.9472,-6.8595,-6.7388,-6.6428,-6.5575,-6.4636,-6.4288,-6.4145,-6.3747,-6.3563,-6.3565,-6.36,-6.36,-6.36,-6.36,-6.36,-6.3489,-6.3414,-6.3452,-6.3452,-6.3414,-6.3414,-6.3489,-6.3526,-6.36,-6.3425,-6.2942,-6.2529,-6.2151,-6.2013,-6.2117,-6.2117,-6.2013,-6.1737,-6.1703,-6.1668,-6.1357,-6.0973,-6.0863,-6.0515,-5.9999,-5.9694,-5.9424,-5.9219,-5.8909,-5.8702,-5.8561,-5.8561,-5.8384,-5.8099,-5.7991,-5.7991,-5.7954,-5.7881,-5.7881,-5.7881,-5.7772,-5.7331,-5.6536,-5.5708,-5.4893,-5.3911,-5.2949,-5.262,-5.2452,-5.1682,-5.0913,-5.0236,-4.9589,-4.922,-4.882,-4.8604,-4.8604,-4.8604,-4.8604,-4.8604,-4.9097,-7.2358,-7.227,-7.1994,-7.178,-7.1593,-7.1494,-7.1494,-7.1494,-7.1494,-7.1494,-7.1494,-7.1494,-7.1494,-7.1494,-7.1494,-7.1494,-7.1494,-7.1494,-7.1494,-7.1494,-7.1494,-7.1494,-7.1494,-7.1494,-7.1494,-7.1494,-7.1494,-7.1494,-7.1494,-7.1494,-7.1494,-7.1494,-7.1494,-7.1494,-7.1494,-7.1494,-7.1313,-7.1024,-7.0444,-6.9399,-6.8094,-6.7191,-6.6349,-6.5192,-6.4568,-6.4036,-6.3669,-6.3411,-6.3489,-6.3563,-6.36,-6.36,-6.36,-6.36,-6.3563,-6.3526,-6.3414,-6.3414,-6.3452,-6.3452,-6.3452,-6.3563,-6.36,-6.36,-6.3462,-6.3186,-6.3013,-6.2979,-6.2944,-6.291,-6.2841,-6.2496,-6.2255,-6.2186,-6.2081,-6.1863,-6.1676,-6.1018,-6.0398,-6.0066,-5.973,-5.9425,-5.9082,-5.884,-5.8701,-5.8525,-5.8348,-5.8135,-5.7991,-5.7954,-5.7954,-5.7881,-5.7881,-5.7881,-5.7808,-5.7476,-5.6652,-5.5868,-5.5099,-5.4008,-5.2922,-5.2726,-5.2513,-5.2021,-5.1374,-5.0759,-5.0174,-4.9682,-4.9312,-4.8943,-4.8604,-4.8604,-4.8604,-4.8604,-4.9312,-7.227,-7.2114,-7.1811,-7.1625,-7.1494,-7.1494,-7.1494,-7.1494,-7.1494,-7.1494,-7.1494,-7.1494,-7.1494,-7.1494,-7.1494,-7.1494,-7.1494,-7.1494,-7.1494,-7.1494,-7.1494,-7.1494,-7.1494,-7.1494,-7.1494,-7.1494,-7.1494,-7.1494,-7.1494,-7.1494,-7.1494,-7.1494,-7.1494,-7.1494,-7.1494,-7.1494,-7.1494,-7.1458,-7.1024,-7.0191,-6.8995,-6.8327,-6.7368,-6.6171,-6.5303,-6.4594,-6.3796,-6.3501,-6.334,-6.3489,-6.3526,-6.36,-6.36,-6.36,-6.3563,-6.3452,-6.3377,-6.334,-6.3414,-6.3414,-6.3377,-6.3526,-6.36,-6.36,-6.36,-6.3358,-6.3358,-6.3324,-6.3324,-6.3324,-6.3289,-6.3048,-6.2975,-6.2832,-6.2726,-6.2578,-6.2146,-6.1548,-6.0938,-6.0403,-6.0037,-5.9528,-5.9219,-5.8875,-5.8736,-5.8631,-5.8455,-5.8207,-5.8063,-5.7918,-5.7918,-5.7845,-5.7808,-5.7845,-5.7845,-5.7406,-5.6724,-5.5988,-5.5108,-5.4051,-5.3055,-5.2833,-5.2544,-5.2206,-5.1836,-5.1405,-5.0851,-5.0266,-4.9743,-4.9343,-4.8943,-4.8604,-4.8604,-4.8635,-4.922,-7.2144,-7.1897,-7.162,-7.1494,-7.1494,-7.1494,-7.1494,-7.1494,-7.1494,-7.1494,-7.1494,-7.1494,-7.1494,-7.1494,-7.1494,-7.1494,-7.1494,-7.1494,-7.1494,-7.1494,-7.1494,-7.1494,-7.1494,-7.1494,-7.1494,-7.1494,-7.1494,-7.1494,-7.1494,-7.1494,-7.1494,-7.1494,-7.1494,-7.1494,-7.1494,-7.1494,-7.1494,-7.1494,-7.1277,-7.1096,-7.0408,-6.9689,-6.8424,-6.7399,-6.6426,-6.5368,-6.4349,-6.3589,-6.3292,-6.334,-6.3452,-6.3526,-6.36,-6.36,-6.3526,-6.3452,-6.3265,-6.3265,-6.3302,-6.3265,-6.3377,-6.3489,-6.3563,-6.36,-6.36,-6.36,-6.36,-6.36,-6.36,-6.36,-6.3565,-6.3565,-6.3454,-6.3343,-6.3196,-6.3049,-6.2548,-6.2008,-6.1476,-6.0876,-6.0307,-5.9766,-5.9356,-5.9046,-5.8806,-5.8701,-5.8561,-5.835,-5.8135,-5.7991,-5.7918,-5.7772,-5.7662,-5.7698,-5.7698,-5.7293,-5.6685,-5.5708,-5.481,-5.3911,-5.3188,-5.2877,-5.2698,-5.2606,-5.2236,-5.1836,-5.1405,-5.0851,-5.0328,-4.9774,-4.9374,-4.8974,-4.8604,-4.8696,-4.9004,-7.1866,-7.1589,-7.1526,-7.1494,-7.1494,-7.1494,-7.1494,-7.1494,-7.1494,-7.1494,-7.1494,-7.1494,-7.1494,-7.1494,-7.1494,-7.1494,-7.1494,-7.1494,-7.1494,-7.1494,-7.1494,-7.1494,-7.1494,-7.1494,-7.1494,-7.1494,-7.1494,-7.1494,-7.1494,-7.1494,-7.1494,-7.1494,-7.1494,-7.1494,-7.1494,-7.1494,-7.1494,-7.1494,-7.1494,-7.135,-7.1168,-7.0261,-6.889,-6.7614,-6.6251,-6.5144,-6.408,-6.3217,-6.2987,-6.3076,-6.3265,-6.3452,-6.3563,-6.36,-6.3563,-6.3452,-6.3302,-6.3265,-6.3265,-6.3189,-6.3265,-6.3414,-6.3489,-6.3563,-6.36,-6.36,-6.36,-6.36,-6.36,-6.36,-6.36,-6.36,-6.3526,-6.3343,-6.3268,-6.308,-6.2753,-6.2348,-6.1931,-6.1337,-6.0774,-6.0239,-5.9732,-5.9321,-5.8875,-5.8771,-5.8596,-5.8419,-5.8171,-5.8027,-5.7918,-5.7735,-5.7588,-5.7289,-5.7139,-5.7101,-5.6492,-5.5466,-5.4591,-5.3825,-5.3277,-5.2877,-5.2743,-5.2757,-5.2575,-5.2298,-5.1836,-5.1374,-5.082,-5.0266,-4.9835,-4.9404,-4.8943,-4.8666,-4.8912]},{"header":{"parameterUnit":"m.s-1","parameterCategory":1,"la1":31.0,"la2":29.5877,"lo1":-88.7671,"lo2":-86.6584,"dy":0.0162,"dx":0.0185,"nx":115,"ny":88,"refTime":"2024-07-07T06:00:00:Z","depth":0,"parameterNumber":3,"parameterNumberName":"V-component_of_WINDS"},"data":[0.0,0.0,0.0,0.0,0.0,0.0,0.0,0.0,0.0,0.0,0.0,0.0,0.0,0.0,0.0,0.0,0.0,0.0,0.0,0.0,0.0,0.0,0.0,0.0,0.0,0.0,0.0,0.0,0.0,0.0,0.0,0.0,0.0,0.0,0.0,0.0,0.0,0.0,0.0,0.0,0.0,0.0,0.0,0.0,0.0,0.0,0.0,0.0,0.0,0.0,0.0,0.0,0.0,0.0,0.0,0.0,0.0,0.0,0.0,0.0,0.0,0.0,0.0,0.0,0.0,0.0,0.0,0.0,0.0,0.0,0.0,0.0,0.0,0.0,0.0,0.0,0.0,0.0,0.0,0.0,0.0,0.0,0.0,0.0,0.0,0.0,0.0,0.0,0.0,0.0,0.0,0.0,0.0,0.0,0.0,0.0,0.0,0.0,0.0,0.0,0.0,0.0,0.0,0.0,0.0,0.0,0.0,0.0,0.0,0.0,0.0,0.0,0.0,0.0,0.0,0.0,0.0,0.0,0.0,0.0,0.0,0.0,0.0,0.0,0.0,0.0,0.0,0.0,0.0,0.0,0.0,0.0,0.0,0.0,0.0,0.0,0.0,0.0,0.0,0.0,0.0,0.0,0.0,0.0,0.0,0.0,0.0,0.0,0.0,0.0,0.0,0.0,0.0,0.0,0.0,0.0,0.0,0.0,0.0,0.0,0.0,0.0,0.0,0.0,0.0,0.0,0.0,0.0,0.0,0.0,0.0,0.0,0.0,0.0,0.0,0.0,0.0,0.0,0.0,0.0,0.0,0.0,0.0,0.0,0.0,0.0,0.0,0.0,0.0,0.0,0.0,0.0,0.0,0.0,0.0,0.0,0.0,0.0,0.0,0.0,0.0,0.0,0.0,0.0,0.0,0.0,0.0,0.0,0.0,0.0,0.0,0.0,0.0,0.0,0.0,0.0,0.0,0.0,0.0,0.0,0.0,0.0,0.0,0.0,0.0,0.0,0.0,0.0,0.0,0.0,0.0,0.0,0.0,0.0,0.0,0.0,0.0,0.0,0.0,0.0,0.0,0.0,0.0,0.0,0.0,0.0,0.0,0.0,0.0,0.0,0.0,0.0,0.0,0.0,0.0,0.0,0.0,0.0,0.0,0.0,0.0,0.0,0.0,0.0,0.0,0.0,0.0,0.0,0.0,0.0,0.0,0.0,0.0,0.0,0.0,0.0,0.0,0.0,0.0,0.0,0.0,0.0,0.0,0.0,0.0,0.0,0.0,0.0,0.0,0.0,0.0,0.0,0.0,0.0,0.0,0.0,0.0,0.0,0.0,0.0,0.0,0.0,0.0,0.0,0.0,0.0,0.0,0.0,0.0,0.0,0.0,0.0,0.0,0.0,0.0,0.0,0.0,0.0,0.0,0.0,0.0,0.0,0.0,0.0,0.0,0.0,0.0,0.0,0.0,0.0,0.0,0.0,0.0,0.0,0.0,0.0,0.0,0.0,0.0,0.0,0.0,0.0,0.0,0.0,0.0,0.0,0.0,0.0,0.0,0.0,0.0,0.0,0.0,0.0,0.0,0.0,0.0,0.0,0.0,0.0,0.0,0.0,0.0,0.0,0.0,0.0,0.0,0.0,0.0,0.0,0.0,0.0,0.0,0.0,0.0,0.0,0.0,0.0,0.0,0.0,0.0,0.0,0.0,0.0,0.0,0.0,0.0,0.0,0.0,0.0,0.0,0.0,0.0,0.0,0.0,0.0,0.0,0.0,0.0,0.0,0.0,0.0,0.0,0.0,0.0,0.0,0.0,0.0,0.0,0.0,0.0,0.0,0.0,0.0,0.0,0.0,0.0,0.0,0.0,0.0,0.0,0.0,0.0,0.0,0.0,0.0,0.0,0.0,0.0,0.0,0.0,0.0,0.0,0.0,0.0,0.0,0.0,0.0,0.0,0.0,0.0,0.0,0.0,0.0,0.0,0.0,0.0,0.0,0.0,0.0,0.0,0.0,0.0,0.0,0.0,0.0,0.0,0.0,0.0,0.0,0.0,0.0,0.0,0.0,0.0,0.0,0.0,0.0,0.0,0.0,0.0,0.0,0.0,0.0,0.0,0.0,0.0,0.0,0.0,0.0,0.0,0.0,0.0,0.0,0.0,0.0,0.0,0.0,0.0,0.0,0.0,0.0,0.0,0.0,0.0,0.0,0.0,0.0,0.0,0.0,0.0,0.0,0.0,0.0,0.0,0.0,0.0,0.0,0.0,0.0,0.0,0.0,0.0,0.0,0.0,0.0,0.0,0.0,0.0,0.0,0.0,0.0,0.0,0.0,0.0,0.0,0.0,0.0,0.0,0.0,0.0,0.0,0.0,0.0,0.0,0.0,0.0,0.0,0.0,0.0,0.0,0.0,0.0,0.0,0.0,0.0,0.0,0.0,0.0,0.0,0.0,0.0,0.0,0.0,0.0,0.0,0.0,0.0,0.0,0.0,0.0,0.0,0.0,0.0,0.0,0.0,0.0,0.0,0.0,0.0,0.0,0.0,0.0,0.0,0.0,0.0,0.0,0.0,0.0,0.0,0.0,0.0,0.0,0.0,0.0,0.0,0.0,0.0,0.0,0.0,0.0,0.0,0.0,0.0,0.0,0.0,0.0,0.0,0.0,0.0,0.0,0.0,0.0,0.0,0.0,0.0,0.0,0.0,0.0,0.0,0.0,0.0,0.0,0.0,0.0,0.0,0.0,0.0,0.0,0.0,0.0,0.0,0.0,0.0,0.0,0.0,0.0,0.0,0.0,0.0,0.0,0.0,0.0,0.0,0.0,0.0,0.0,0.0,0.0,0.0,0.0,0.0,0.0,0.0,0.0,0.0,0.0,0.0,0.0,0.0,0.0,0.0,0.0,0.0,0.0,0.0,0.0,0.0,0.0,0.0,0.0,0.0,0.0,0.0,0.0,0.0,0.0,0.0,0.0,0.0,0.0,0.0,0.0,0.0,0.0,0.0,0.0,0.0,0.0,0.0,0.0,0.0,0.0,0.0,0.0,0.0,0.0,0.0,0.0,0.0,0.0,0.0,0.0,0.0,0.0,0.0,0.0,0.0,0.0,0.0,0.0,0.0,0.0,0.0,0.0,0.0,0.0,0.0,0.0,0.0,0.0,0.0,0.0,0.0,0.0,0.0,0.0,0.0,0.0,0.0,0.0,0.0,0.0,0.0,0.0,0.0,0.0,0.0,0.0,0.0,0.0,0.0,0.0,0.0,0.0,0.0,0.0,0.0,0.0,0.0,0.0,0.0,0.0,0.0,0.0,0.0,0.0,0.0,0.0,0.0,0.0,0.0,0.0,0.0,0.0,0.0,0.0,0.0,0.0,0.0,0.0,0.0,0.0,0.0,0.0,0.0,0.0,0.0,0.0,0.0,0.0,0.0,0.0,0.0,0.0,0.0,0.0,0.0,0.0,0.0,0.0,0.0,0.0,0.0,0.0,0.0,0.0,0.0,0.0,0.0,0.0,0.0,0.0,0.0,0.0,0.0,0.0,0.0,0.0,0.0,0.0,0.0,0.0,0.0,0.0,0.0,0.0,0.0,0.0,0.0,0.0,0.0,0.0,0.0,0.0,0.0,0.0,0.0,0.0,0.0,0.0,0.0,0.0,0.0,0.0,0.0,0.0,0.0,0.0,0.0,0.0,0.0,0.0,0.0,0.0,0.0,0.0,0.0,0.0,0.0,0.0,0.0,0.0,0.0,0.0,0.0,0.0,0.0,0.0,0.0,0.0,0.0,0.0,0.0,0.0,0.0,0.0,0.0,0.0,0.0,0.0,0.0,0.0,0.0,0.0,0.0,0.0,0.0,0.0,0.0,0.0,0.0,0.0,0.0,0.0,0.0,0.0,0.0,0.0,0.0,0.0,0.0,0.0,0.0,0.0,0.0,0.0,0.0,0.0,0.0,0.0,0.0,0.0,0.0,0.0,0.0,0.0,0.0,0.0,0.0,0.0,0.0,0.0,0.0,0.0,0.0,0.0,0.0,0.0,0.0,0.0,0.0,0.0,0.0,0.0,0.0,0.0,0.0,0.0,0.0,0.0,0.0,0.0,0.0,0.0,0.0,0.0,0.0,0.0,0.0,0.0,0.0,0.0,0.0,0.0,0.0,0.0,0.0,0.0,0.0,0.0,0.0,0.0,0.0,0.0,0.0,0.0,0.0,0.0,0.0,0.0,0.0,0.0,0.0,0.0,0.0,0.0,0.0,0.0,0.0,0.0,0.0,0.0,0.0,0.0,0.0,0.3607,0.0,0.0,0.0,0.0,0.0,0.0,0.0,0.0,0.0,0.0,0.0,0.0,0.0,0.0,0.0,0.0,0.0,0.0,0.0,0.0,0.0,0.0,0.0,0.0,0.0,0.0,0.0,0.0,0.0,0.0,0.0,0.0,0.0,0.0,0.0,0.0,0.0,0.0,0.0,0.0,0.0,0.0,0.0,0.0,0.0,0.0,0.0,0.0,0.0,0.0,0.0,0.0,0.0,0.0,0.0,0.0,0.0,0.0,0.0,0.0,0.0,0.0,0.0,0.0,0.0,0.0,0.0,0.0,0.0,0.0,0.0,0.0,0.0,0.0,0.0,0.0,0.0,0.0,0.0,0.0,0.0,0.0,0.0,0.0,0.0,0.0,0.0,0.0,0.0,0.0,0.0,0.0,0.0,0.0,0.0,0.0,0.0,0.0,0.0,0.0,0.0,0.0,0.0,0.0,0.0,0.0,0.0,0.0,0.0,0.0,0.2358,0.2921,0.2048,0.2158,0.3306,0.0,0.0,0.0,0.0,0.0,0.0,0.0,0.0,0.0,0.0,0.0,0.0,0.0,0.0,0.0,0.0,0.0,0.0,0.0,0.0,0.0,0.0,0.0,0.0,0.0,0.0,0.0,0.0,0.0,0.0,0.0,0.0,0.0,0.0,0.0,0.0,0.0,0.0,0.0,0.0,0.0,0.0,0.0,0.0,0.0,0.0,0.0,0.0,0.0,0.0,0.0,0.0,0.0,0.0,0.0,0.0,0.0,0.0,0.0,0.0,0.0,0.0,0.0,0.0,0.0,0.0,0.0,0.0,0.0,0.0,0.0,0.0,0.0,0.0,0.0,0.0,0.0,0.0,0.0,0.0,0.0,0.0,0.0,0.0,0.0,0.0,0.0,0.0,0.0,0.0,0.0,0.0,0.0,0.0,0.0,0.0,0.0,0.0,0.0,0.0,0.0,0.0,0.0,0.0,0.0,0.0,0.0,0.0,0.0,0.0,0.0,0.0,0.1466,0.1546,0.259,0.0,0.0,0.0,0.0,0.0,0.0,0.0,0.0,0.0,0.0,0.0,0.0,0.0,0.0,0.0,0.0,0.0,0.0,0.0,0.0,0.0,0.0,0.0,0.0,0.0,0.0,0.0,0.0,0.0,0.0,0.0,0.0,0.0,0.0,0.0,0.0,0.0,0.0,0.0,0.0,0.0,0.0,0.0,0.0,0.0,0.0,0.0,0.0,0.0,0.0,0.0,0.0,0.0,0.0,0.0,0.0,0.0,0.0,0.0,0.0,0.0,0.0,0.0,0.0,0.0,0.0,0.0,0.0,0.0,0.0,0.0,0.0,0.0,0.0,0.0,0.0,0.0,0.0,0.0,0.0,0.0,0.0,0.0,0.0,0.0,0.0,0.0,0.0,0.0,0.0,0.0,0.0,0.0,0.0,0.0,0.0,0.0,0.0,0.0,0.0,0.0,0.0,0.0,0.0,0.0,0.0,0.0,0.0,0.0,0.0,0.1422,0.0464,0.0303,0.0,0.1036,0.0,0.0,0.0,0.0,0.0,0.0,0.0,0.0,0.0,0.0,0.0,0.0,0.0,0.0,0.0,0.0,0.0,0.0,0.0,0.0,0.0,0.0,0.0,0.0,0.0,0.0,0.0,0.0,0.0,0.0,0.0,0.0,0.0,0.0,0.0,0.0,0.0,0.0,0.0,0.0,0.0,0.0,0.0,0.0,0.0,0.0,0.0,0.0,0.0,0.0,0.0,0.0,0.0,0.0,0.0,0.0,0.0,0.0,0.0,0.0,0.0,0.0,0.0,0.0,0.0,0.0,0.0,0.0,0.0,0.0,0.0,0.0,0.0,0.0,0.0,0.0,0.0,0.0,0.0,0.0,0.0,0.0,0.0,0.0,0.0,0.0,0.0,0.0,0.0,0.0,0.0,0.0,0.0,0.0,0.0,0.0,0.0,0.0,0.0,0.0,0.0,0.0,0.0,0.0,0.0,0.0,0.0,0.0,0.0,0.0,0.0894,-0.02,0.0028,0.0509,0.0,0.0,0.0,0.0,0.0,0.0,0.0,0.0,0.0,0.0,0.0,0.0,0.0,0.0,0.0,0.0,0.0,0.0,0.0,0.0,0.0,0.0,0.0,0.0,0.0,0.0,0.0,0.0,0.0,0.0,0.0,0.0,0.0,0.0,0.0,0.0,0.0,0.0,0.0,0.0,0.0,0.0,0.0,0.0,0.0,0.0,0.0,0.0,0.0,0.0,0.0,0.0,0.0,0.0,0.0,0.0,0.0,0.0,0.0,0.0,0.0,0.0,0.0,0.0,0.0,0.0,0.0,0.0,0.0,0.0,0.0,0.0,0.0,0.0,0.0,0.0,0.0,0.0,0.0,0.0,0.0,0.0,0.0,0.0,0.0,0.0,0.0,0.0,0.0,0.0,0.0,0.0,0.0,0.0,0.0,0.0,0.0,0.0,0.0,0.0,0.0,0.0,0.0,0.0,0.0,0.0,0.0,0.0,0.0,0.0,0.0192,0.0,-0.1098,-0.0312,0.0421,0.092,0.0,0.0,0.0,0.0,0.0,0.0,0.0,0.0,0.0,0.0,0.0,0.0,0.0,0.0,0.0,0.0,0.0,0.0,0.0,0.0,0.0,0.0,0.0,0.0,0.0,0.0,0.0,0.0,0.0,0.0,0.0,0.0,0.0,0.0,0.0,0.0,0.0,0.0,0.0,0.0,0.0,0.0,0.0,0.0,0.0,0.0,0.0,0.0,0.0,0.0,0.0,0.0,0.0,0.0,0.0,0.0,0.0,0.0,0.0,0.0,0.0,0.0,0.0,0.0,0.0,0.0,0.0,0.0,0.0,0.0,0.0,0.0,0.0,0.0,0.0,0.0,0.0,0.0,0.0,0.0,0.0,0.0,0.0,0.0,0.0,0.0,0.0,0.0,0.0,0.0,0.0,0.0,0.0,0.0,0.0,0.0,0.0,0.0,0.0,0.0,0.0,0.0,0.0,0.0,0.0,0.0,0.0,0.0,0.0,-0.1785,-0.1764,-0.285,-0.1,-0.0156,0.0,0.0,0.0,0.0,0.0,0.0,0.0,0.0,0.0,0.0,0.0,0.0,0.0,0.0,0.0,0.0,0.0,0.0,0.0,0.0,0.0,0.0,0.0,0.0,0.0,0.0,0.0,0.0,0.0,0.0,0.0,0.0,0.0,0.0,0.0,0.0,0.0,0.0,0.0,0.0,0.0,0.0,0.0,0.0,0.0,0.0,0.0,0.0,0.0,0.0,0.0,0.0,0.0,0.0,0.0,0.0,0.0,0.0,0.0,0.0,0.0,0.0,0.0,0.0,0.0,0.0,0.0,0.0,0.0,0.0,0.0,0.0,0.0,0.0,0.0,0.0,0.0,0.0,0.0,0.0,0.0,0.0,0.0,0.0,0.0,0.0,0.0,0.0,0.0,0.0,0.0,0.0,0.0,0.0,0.0,0.0,0.0,0.0,0.0,0.0,0.0,0.0,0.0,0.0,0.0,0.0,0.0,0.0,0.0,-0.1392,-0.2098,-0.2444,-0.2378,-0.1962,-0.1665,0.0,0.0,0.0,0.0,0.0,0.0,0.0,0.0,0.0,0.0,0.0,0.0,0.0,0.0,0.0,0.0,0.0,0.0,0.0,0.0,0.0,0.0,0.0,0.0,0.0,0.0,0.0,0.0,0.0,0.0,0.0,0.0,0.0,0.0,0.0,0.0,0.0,0.0,0.0,0.0,0.0,0.0,0.0,0.0,0.0,0.0,0.0,0.0,0.0,0.0,0.0,0.0,0.0,0.0,0.0,0.0,0.0,0.0,0.0,0.0,0.0,0.0,0.0,0.0,0.0,0.0,0.0,0.0,0.0,0.0,0.0,0.0,0.0,0.0,0.0,0.0,0.0,0.0,0.0,0.0,0.0,0.0,0.0,0.0,0.0,0.0,0.0,0.0,0.0,0.0,0.0,0.0,0.0,0.0,0.0,0.0,0.0,0.0,0.0,0.0,0.0,0.0,0.0,0.0,0.0,0.0,0.0,0.0,0.0,-0.1505,0.0,-0.3552,0.0,-0.2702,-0.2337,0.0,0.0,0.0,0.0,0.0,0.0,0.0,0.0,0.0,0.0,0.0,0.0,0.0,0.0,0.0,0.0,0.0,0.0,0.0,0.0,0.0,0.0,0.0,0.0,0.0,0.0,0.0,0.0,0.0,0.0,0.0,0.0,0.0,0.0,0.0,0.0,0.0,0.0,0.0,0.0,0.0,0.0,0.0,0.0,0.0,0.0,0.0,0.0,0.0,0.0,0.0,0.0,0.0,0.0,0.0,0.0,0.0,0.0,0.0,0.0,0.0,0.0,0.0,0.0,0.0,0.0,0.0,0.0,0.0,0.0,0.0,0.0,0.0,0.0,0.0,0.0,0.0,0.0,0.0,0.0,0.0,0.0,0.0,0.0,0.0,0.0,0.0,0.0,0.0,0.0,0.0,0.0,0.0,0.0,0.0,0.0,0.0,0.0,0.0,0.0,0.0,0.0,0.0,0.0,0.0,0.0,0.0,0.0,-0.1875,-0.3665,-0.4766,-0.5107,-0.486,-0.3181,-0.2033,0.0,0.0,0.0,0.0,0.0,0.0,0.0,0.0,0.0,0.0,0.0,0.0,0.0,0.0,0.0,0.0,0.0,0.0,0.0,0.0,0.0,0.0,0.0,0.0,0.0,0.0,0.0,0.0,0.0,0.0,0.0,0.0,0.0,0.0,0.0,0.0,0.0,0.0,0.0,0.0,0.0,0.0,0.0,0.0,0.0,0.0,0.0,0.0,0.0,0.0,0.0,0.0,0.0,0.0,0.0,0.0,0.0,0.0,0.0,0.0,0.0,0.0,0.0,0.0,0.0,0.0,0.0,0.0,0.0,0.0,0.0,0.0,0.0,0.0,0.0,0.0,0.0,0.0,0.0,0.0,0.0,0.0,0.0,0.0,0.0,0.0,0.0,0.0,0.0,0.0,0.0,0.0,0.0,0.0,0.0,0.0,0.0,0.0,0.0,0.0,0.0,0.0,0.0,0.0,0.0,0.0,0.0,0.0,0.0,-0.2746,-0.4338,-0.5263,-0.5319,-0.3992,-0.3277,0.0,0.0,0.0,0.0,0.0,0.0,0.0,0.0,0.0,0.0,0.0,0.0,0.0,0.0,0.0,0.0,0.0,0.0,0.0,0.0,0.0,0.0,0.0,0.0,0.0,0.0,0.0,0.0,0.0,0.0,0.0,0.0,0.0,0.0,0.0,0.0,0.0,0.0,0.0,0.0,0.0,0.0,0.0,0.0,0.0,0.0,0.0,0.0,0.0,0.0,0.0,0.0,0.0,0.0,0.0,0.0,0.0,0.0,0.0,0.0,0.0,0.0,0.0,0.0,0.0,0.0,0.0,0.0,0.0,0.0,0.0,0.0,0.0,0.0,0.0,0.0,0.0,0.0,0.0,0.0,0.0,0.0,0.0,0.0,0.0,0.0,0.0,0.0,0.0,0.0,0.0,0.0,0.0,0.0,0.0,0.0,0.0,0.0,0.0,0.0,0.0,0.0,0.0,0.0,0.0,0.0,0.0,0.0,0.0,-0.5177,-0.6548,-0.7222,-0.6971,-0.5506,-0.4492,-0.4038,0.0,0.0,0.0,0.0,0.0,0.0,0.0,0.0,0.0,0.0,0.0,0.0,0.0,0.0,0.0,0.0,0.0,0.0,0.0,0.0,0.0,0.0,0.0,0.0,0.0,0.0,0.0,0.0,0.0,0.0,0.0,0.0,0.0,0.0,0.0,0.0,0.0,0.0,0.0,0.0,0.0,0.0,0.0,0.0,0.0,0.0,0.0,0.0,0.0,0.0,0.0,0.0,0.0,0.0,0.0,0.0,0.0,0.0,0.0,0.0,0.0,0.0,0.0,0.0,0.0,0.0,0.0,0.0,0.0,0.0,0.0,0.0,0.0,0.0,0.0,0.0,0.0,0.0,0.0,0.0,0.0,0.0,0.0,0.0,0.0,0.0,0.0,0.0,0.0,0.0,0.0,0.0,0.0,0.0,0.0,0.0,0.0,0.0,0.0,0.0,0.0,0.0,0.0,0.0,0.0,0.0,0.0,0.0,-1.0031,-1.0955,-1.0733,-0.9332,-0.7342,-0.5561,0.0,0.0,0.0,0.0,0.0,0.0,0.0,0.0,0.0,0.0,0.0,0.0,0.0,0.0,0.0,0.0,0.0,0.0,0.0,0.0,0.0,0.0,0.0,0.0,0.0,0.0,0.0,0.0,0.0,0.0,0.0,0.0,0.0,0.0,0.0,0.0,0.0,0.0,0.0,0.0,0.0,0.0,0.0,0.0,0.0,0.0,0.0,0.0,0.0,0.0,0.0,0.0,0.0,0.0,0.0,0.0,0.0,0.0,0.0,0.0,0.0,0.0,0.0,0.0,0.0,0.0,0.0,0.0,0.0,0.0,0.0,0.0,0.0,0.0,0.0,0.0,0.0,0.0,0.0,0.0,0.0,0.0,0.0,0.0,0.0,0.0,0.0,0.0,0.0,0.0,0.0,0.0,0.0,0.0,0.0,0.0,0.0,0.0,0.0,0.0,0.0,0.0,0.0,0.0,0.0,0.0,0.0,0.0,0.0,-1.2082,-1.3945,-1.3322,-1.0052,-0.7041,-0.5243,0.0,0.0,0.0,0.0,0.0,0.0,0.0,0.0,0.0,0.0,0.0,0.0,0.0,0.0,0.0,0.0,0.0,0.0,0.0,0.0,0.0,0.0,0.0,0.0,0.0,0.0,0.0,0.0,0.0,0.0,0.0,0.0,0.0,0.0,0.0,0.0,0.0,0.0,0.0,0.0,0.0,0.0,0.0,0.0,0.0,0.0,0.0,0.0,0.0,0.0,0.0,0.0,0.0,0.0,0.0,0.0,0.0,0.0,0.0,0.0,0.0,0.0,0.0,0.0,0.0,0.0,0.0,0.0,0.0,0.0,0.0,0.0,0.0,0.0,0.0,0.0,0.0,0.0,0.0,0.0,0.0,0.0,0.0,0.0,0.0,0.0,0.0,0.0,0.0,0.0,0.0,0.0,0.0,0.0,0.0,0.0,0.0,0.0,0.0,0.0,0.0,0.0,0.0,0.0,0.0,0.0,0.0,0.0,-1.1682,-1.443,-1.542,-1.4737,-1.2365,-0.9226,-0.7041,0.0,0.0,0.0,0.0,0.0,0.0,0.0,0.0,0.0,0.0,0.0,0.0,0.0,0.0,0.0,0.0,0.0,0.0,0.0,0.0,0.0,0.0,0.0,0.0,0.0,0.0,0.0,0.0,0.0,0.0,0.0,0.0,0.0,0.0,0.0,0.0,0.0,0.0,0.0,0.0,0.0,0.0,0.0,0.0,0.0,0.0,0.0,0.0,0.0,0.0,0.0,0.0,0.0,0.0,0.0,0.0,0.0,0.0,0.0,0.0,0.0,0.0,0.0,0.0,0.0,0.0,0.0,0.0,0.0,0.0,0.0,0.0,0.0,0.0,0.0,0.0,0.0,0.0,0.0,0.0,0.0,0.0,0.0,0.0,0.0,0.0,0.0,0.0,0.0,0.0,0.0,0.0,0.0,0.0,0.0,0.0,0.0,0.0,0.0,0.0,0.0,0.0,0.0,0.0,0.0,0.0,0.0,0.0,-1.2987,-1.665,-1.6014,-1.5582,-1.5383,-1.2571,-0.9804,0.0,0.0,0.0,0.0,0.0,0.0,0.0,0.0,0.0,0.0,0.0,0.0,0.0,0.0,0.0,0.0,0.0,0.0,0.0,0.0,0.0,0.0,0.0,0.0,0.0,0.0,0.0,0.0,0.0,0.0,0.0,0.0,0.0,0.0,0.0,0.0,0.0,0.0,0.0,0.0,0.0,0.0,0.0,0.0,0.0,0.0,0.0,0.0,0.0,0.0,0.0,0.0,0.0,0.0,0.0,0.0,0.0,0.0,0.0,0.0,0.0,0.0,0.0,0.0,0.0,0.0,0.0,0.0,0.0,0.0,0.0,0.0,0.0,0.0,0.0,0.0,0.0,0.0,0.0,0.0,0.0,0.0,0.0,0.0,0.0,0.0,0.0,0.0,0.0,0.0,0.0,0.0,0.0,0.0,0.0,0.0,0.0,0.0,0.0,0.0,0.0,0.0,0.0,0.0,0.0,0.0,0.0,0.0,-1.3528,-1.6994,-1.7134,-1.7121,-1.7055,-1.3295,-1.0163,0.0,0.0,0.0,0.0,0.0,0.0,0.0,0.0,0.0,0.0,0.0,0.0,0.0,0.0,0.0,0.0,0.0,0.0,0.0,0.0,0.0,0.0,0.0,0.0,0.0,0.0,0.0,0.0,0.0,0.0,0.0,0.0,0.0,0.0,0.0,0.0,0.0,0.0,0.0,0.0,0.0,0.0,0.0,0.0,0.0,0.0,0.0,0.0,-0.8717,0.0,0.0,0.0,0.0,0.0,0.0,0.0,0.0,0.0,0.0,0.0,0.0,0.0,0.0,0.0,0.0,0.0,0.0,0.0,0.0,0.0,0.0,0.0,0.0,0.0,0.0,0.0,0.0,0.0,0.0,0.0,0.0,0.0,0.0,0.0,0.0,0.0,0.0,0.0,0.0,0.0,0.0,0.0,0.0,0.0,0.0,0.0,0.0,0.0,0.0,0.0,0.0,0.0,0.0,0.0,0.0,0.0,0.0,0.0,-1.4702,-1.7449,-1.7716,-1.7796,-1.7702,-1.5506,-1.2676,0.0,0.0,0.0,0.0,0.0,0.0,0.0,0.0,0.0,0.0,0.0,0.0,0.0,0.0,0.0,0.0,0.0,0.0,0.0,0.0,0.0,0.0,0.0,0.0,0.0,0.0,0.0,0.0,0.0,0.0,0.0,0.0,0.0,0.0,0.0,0.0,0.0,0.0,0.0,0.0,0.0,0.0,0.0,0.0,0.0,0.0,0.0,0.0,0.0,0.0,0.0,0.0,0.0,0.0,0.0,0.0,0.0,0.0,0.0,0.0,0.0,0.0,0.0,0.0,0.0,0.0,0.0,0.0,0.0,0.0,0.0,0.0,0.0,0.0,0.0,0.0,0.0,0.0,0.0,0.0,0.0,0.0,0.0,0.0,0.0,0.0,0.0,0.0,0.0,0.0,0.0,0.0,0.0,0.0,0.0,0.0,0.0,0.0,0.0,0.0,0.0,0.0,0.0,0.0,0.0,0.0,0.0,-1.3826,-1.573,-1.7982,-1.8062,-1.8062,-1.8049,-1.7769,-1.5396,-1.0779,0.0,0.0,0.0,0.0,0.0,0.0,0.0,0.0,0.0,0.0,0.0,0.0,0.0,0.0,0.0,0.0,0.0,0.0,0.0,0.0,0.0,0.0,0.0,0.0,0.0,0.0,0.0,0.0,0.0,0.0,0.0,0.0,0.0,0.0,0.0,0.0,0.0,0.0,-0.8712,-0.9994,0.0,0.0,0.0,0.0,0.0,0.0,0.0,0.0,-1.0607,0.0,0.0,0.0,0.0,0.0,0.0,0.0,0.0,0.0,0.0,0.0,0.0,0.0,0.0,0.0,0.0,0.0,0.0,0.0,0.0,0.0,0.0,0.0,0.0,0.0,0.0,0.0,0.0,0.0,0.0,0.0,0.0,0.0,0.0,0.0,0.0,0.0,0.0,0.0,0.0,0.0,0.0,0.0,0.0,0.0,0.0,0.0,0.0,0.0,0.0,0.0,0.0,0.0,0.0,0.0,0.0,-1.2432,-1.3152,-1.5083,-1.8302,-1.841,-1.8424,-1.8397,-1.7876,-1.568,-1.1728,0.0,0.0,0.0,0.0,0.0,0.0,0.0,0.0,0.0,0.0,0.0,0.0,0.0,0.0,0.0,0.0,0.0,0.0,0.0,0.0,0.0,0.0,0.0,0.0,0.0,0.0,0.0,0.0,0.0,0.0,0.0,0.0,0.0,0.0,0.0,0.0,0.0,0.0,0.0,-1.0987,-1.1282,0.0,0.0,0.0,0.0,0.0,0.0,0.0,0.0,-1.1814,0.0,0.0,0.0,0.0,0.0,0.0,0.0,0.0,0.0,0.0,0.0,0.0,0.0,0.0,0.0,0.0,0.0,0.0,0.0,0.0,0.0,0.0,0.0,0.0,0.0,0.0,0.0,0.0,0.0,0.0,0.0,0.0,0.0,0.0,0.0,0.0,0.0,0.0,0.0,0.0,0.0,0.0,0.0,0.0,0.0,0.0,0.0,0.0,0.0,0.0,0.0,0.0,0.0,0.0,0.0,-1.2777,-1.47,-1.6613,-1.845,-1.8637,-1.8637,-1.8477,-1.7756,-1.5677,0.0,0.0,0.0,0.0,0.0,0.0,0.0,0.0,0.0,0.0,0.0,0.0,0.0,0.0,0.0,0.0,0.0,0.0,0.0,0.0,0.0,0.0,0.0,0.0,0.0,0.0,0.0,0.0,0.0,0.0,0.0,0.0,0.0,0.0,0.0,0.0,0.0,0.0,0.0,0.0,-1.1858,-1.2364,-1.2061,0.0,0.0,0.0,0.0,0.0,0.0,-1.2648,-1.2683,0.0,0.0,0.0,0.0,0.0,0.0,0.0,0.0,0.0,0.0,0.0,0.0,0.0,0.0,0.0,0.0,0.0,0.0,0.0,0.0,0.0,0.0,0.0,0.0,0.0,0.0,0.0,0.0,0.0,0.0,0.0,0.0,0.0,0.0,0.0,0.0,0.0,0.0,0.0,0.0,0.0,0.0,0.0,0.0,0.0,0.0,0.0,0.0,0.0,0.0,0.0,0.0,0.0,0.0,0.0,-1.3262,-1.6135,-1.7928,-1.8557,-1.8865,-1.8851,-1.849,-1.7556,-1.5573,0.0,0.0,0.0,0.0,0.0,0.0,0.0,0.0,0.0,0.0,0.0,0.0,0.0,0.0,0.0,0.0,0.0,0.0,0.0,0.0,0.0,0.0,0.0,0.0,0.0,0.0,0.0,0.0,0.0,0.0,0.0,0.0,0.0,0.0,0.0,0.0,0.0,0.0,0.0,0.0,0.0,-1.37,-1.3238,-1.3737,0.0,0.0,0.0,0.0,-1.3734,-1.3842,0.0,0.0,0.0,0.0,0.0,0.0,0.0,0.0,0.0,0.0,0.0,0.0,0.0,0.0,0.0,0.0,0.0,0.0,0.0,0.0,0.0,0.0,0.0,0.0,0.0,0.0,0.0,0.0,0.0,0.0,0.0,0.0,0.0,0.0,0.0,0.0,0.0,0.0,0.0,0.0,0.0,0.0,0.0,0.0,0.0,0.0,0.0,0.0,0.0,0.0,0.0,0.0,0.0,0.0,0.0,0.0,-1.3513,-1.5414,-1.72,-1.8755,-1.9158,-1.9052,-1.8504,-1.7305,-1.529,0.0,0.0,0.0,0.0,0.0,0.0,0.0,0.0,0.0,0.0,0.0,0.0,0.0,0.0,0.0,0.0,0.0,0.0,0.0,0.0,0.0,0.0,0.0,0.0,0.0,0.0,0.0,0.0,0.0,0.0,0.0,0.0,0.0,0.0,0.0,0.0,0.0,0.0,0.0,0.0,0.0,-1.5191,-1.48,-1.5496,-1.5936,0.0,0.0,-1.5799,-1.6868,-1.6932,0.0,0.0,0.0,0.0,0.0,0.0,0.0,0.0,0.0,0.0,0.0,0.0,0.0,0.0,0.0,0.0,0.0,0.0,0.0,0.0,0.0,0.0,0.0,0.0,0.0,0.0,0.0,0.0,0.0,0.0,0.0,0.0,0.0,0.0,0.0,0.0,0.0,0.0,0.0,0.0,0.0,0.0,0.0,0.0,0.0,0.0,0.0,0.0,0.0,0.0,0.0,0.0,0.0,0.0,0.0,-1.2607,-1.3979,-1.6458,-1.8112,-1.8905,-1.9212,-1.9149,-1.8504,-1.6768,-1.4744,0.0,0.0,0.0,0.0,0.0,0.0,0.0,0.0,0.0,0.0,0.0,0.0,0.0,0.0,0.0,0.0,0.0,0.0,0.0,0.0,0.0,0.0,0.0,0.0,0.0,0.0,0.0,0.0,0.0,0.0,0.0,0.0,0.0,0.0,0.0,0.0,0.0,0.0,0.0,0.0,0.0,0.0,-1.5921,-1.6649,0.0,0.0,0.0,-1.7341,-1.78,0.0,0.0,0.0,0.0,0.0,0.0,0.0,0.0,0.0,0.0,0.0,0.0,0.0,0.0,0.0,0.0,0.0,0.0,0.0,0.0,0.0,0.0,0.0,0.0,0.0,0.0,0.0,0.0,0.0,0.0,0.0,0.0,0.0,0.0,0.0,0.0,0.0,0.0,0.0,0.0,0.0,0.0,0.0,0.0,0.0,0.0,0.0,0.0,0.0,0.0,0.0,0.0,0.0,0.0,0.0,0.0,0.0,-1.4356,-1.7436,-1.9072,-1.9152,-1.9354,-1.9193,-1.8601,-1.6546,0.0,0.0,0.0,0.0,0.0,0.0,0.0,0.0,0.0,0.0,0.0,0.0,0.0,0.0,0.0,0.0,0.0,0.0,0.0,0.0,0.0,0.0,0.0,0.0,0.0,0.0,0.0,-0.551,0.0,0.0,0.0,0.0,0.0,0.0,0.0,0.0,0.0,0.0,0.0,0.0,0.0,0.0,-1.6523,-1.7024,-1.7897,-1.8657,0.0,0.0,-1.8957,-1.8955,-1.8826,-1.8483,0.0,0.0,0.0,0.0,0.0,0.0,0.0,0.0,0.0,0.0,0.0,0.0,0.0,0.0,0.0,0.0,0.0,0.0,0.0,0.0,0.0,0.0,0.0,0.0,0.0,0.0,0.0,0.0,0.0,0.0,0.0,0.0,0.0,0.0,0.0,0.0,0.0,0.0,0.0,0.0,0.0,0.0,0.0,0.0,0.0,0.0,0.0,0.0,0.0,0.0,0.0,0.0,0.0,0.0,0.0,-1.464,-1.7742,-1.9508,-1.971,-1.9751,-1.9464,-1.8864,-1.7016,-1.505,0.0,0.0,0.0,0.0,0.0,0.0,0.0,0.0,0.0,0.0,0.0,0.0,0.0,0.0,0.0,0.0,0.0,0.0,0.0,0.0,0.0,0.0,0.0,0.0,0.0,0.0,0.0,0.0,0.0,0.0,0.0,0.0,0.0,0.0,0.0,0.0,0.0,0.0,0.0,0.0,0.0,-1.8285,-1.8175,-1.96,-2.091,0.0,0.0,-2.0849,-2.123,-2.1086,-2.0488,-1.9027,0.0,0.0,0.0,0.0,0.0,0.0,0.0,0.0,0.0,0.0,0.0,0.0,0.0,0.0,0.0,0.0,0.0,0.0,0.0,0.0,0.0,0.0,0.0,0.0,0.0,0.0,0.0,0.0,0.0,0.0,0.0,0.0,0.0,0.0,0.0,0.0,0.0,0.0,0.0,0.0,0.0,0.0,0.0,0.0,0.0,0.0,0.0,0.0,0.0,0.0,0.0,0.0,0.0,-1.4198,-1.4887,-1.8021,-1.9699,-1.9809,-1.9982,-1.9846,-1.9207,-1.7543,-1.5742,0.0,0.0,0.0,0.0,0.0,0.0,0.0,0.0,0.0,0.0,0.0,0.0,0.0,0.0,0.0,0.0,0.0,0.0,0.0,0.0,0.0,0.0,0.0,0.0,0.0,0.0,0.0,0.0,-0.8189,-0.891,-0.9595,0.0,0.0,0.0,0.0,0.0,0.0,0.0,0.0,0.0,0.0,-1.9274,-1.9731,-2.0984,0.0,0.0,-2.2301,-2.2333,-2.2465,-2.1861,-2.117,-2.0539,-1.9366,0.0,0.0,0.0,0.0,0.0,0.0,0.0,0.0,0.0,0.0,0.0,0.0,0.0,0.0,0.0,0.0,0.0,0.0,0.0,0.0,0.0,0.0,0.0,0.0,0.0,0.0,0.0,0.0,0.0,0.0,0.0,0.0,0.0,0.0,0.0,0.0,0.0,0.0,0.0,0.0,0.0,0.0,0.0,0.0,0.0,0.0,0.0,0.0,0.0,0.0,0.0,0.0,-1.4599,-1.5084,-1.829,-1.9924,-1.9938,-2.027,-2.0187,-1.9639,-1.8211,-1.6666,0.0,0.0,0.0,0.0,0.0,0.0,0.0,0.0,0.0,0.0,0.0,0.0,0.0,0.0,0.0,0.0,0.0,0.0,0.0,0.0,0.0,0.0,0.0,0.0,0.0,0.0,0.0,0.0,-0.9385,-1.0021,-1.0238,0.0,0.0,0.0,0.0,0.0,0.0,0.0,0.0,0.0,0.0,-2.0483,-2.1031,-2.2113,-2.293,-2.3066,-2.3125,-2.3159,-2.3188,-2.2781,-2.2286,-2.1905,0.0,0.0,0.0,0.0,0.0,0.0,0.0,0.0,0.0,0.0,0.0,0.0,0.0,0.0,0.0,0.0,0.0,0.0,0.0,0.0,0.0,0.0,0.0,0.0,0.0,0.0,0.0,-0.8498,0.0,0.0,-0.8321,0.0,0.0,0.0,0.0,0.0,0.0,0.0,0.0,0.0,0.0,0.0,0.0,0.0,0.0,0.0,0.0,0.0,0.0,0.0,0.0,0.0,0.0,-1.4848,-1.5343,-1.8577,-2.027,-2.027,-2.0544,-2.0573,-2.0258,-1.9097,-1.7932,-1.6843,0.0,0.0,0.0,0.0,0.0,0.0,0.0,0.0,0.0,0.0,0.0,0.0,0.0,0.0,0.0,0.0,0.0,0.0,0.0,0.0,0.0,0.0,0.0,0.0,0.0,0.0,-0.9327,-1.052,-1.1137,0.0,0.0,0.0,0.0,0.0,0.0,0.0,0.0,0.0,0.0,-2.0211,-2.2121,-2.2031,-2.3003,-2.3906,-2.4277,-2.3672,-2.3193,-2.3377,-2.3998,-2.4136,0.0,0.0,0.0,0.0,0.0,0.0,0.0,0.0,0.0,0.0,0.0,0.0,0.0,0.0,0.0,0.0,0.0,0.0,0.0,0.0,0.0,0.0,0.0,0.0,0.0,0.0,0.0,-1.0689,-1.0438,0.0,0.0,0.0,0.0,0.0,0.0,0.0,0.0,0.0,0.0,0.0,-1.3727,-1.4097,0.0,0.0,0.0,0.0,0.0,0.0,0.0,0.0,0.0,0.0,0.0,0.0,-1.5251,-1.6228,-1.8878,-2.0385,-2.0544,-2.0845,-2.0916,-2.0558,-1.9791,-1.8475,-1.6607,0.0,0.0,0.0,0.0,0.0,0.0,0.0,0.0,0.0,0.0,0.0,0.0,0.0,0.0,0.0,0.0,0.0,0.0,0.0,0.0,0.0,0.0,0.0,0.0,0.0,-1.0197,0.0,0.0,0.0,0.0,0.0,0.0,0.0,0.0,0.0,0.0,0.0,-1.8939,-1.9941,-2.1911,-2.3242,-2.3221,-2.4056,-2.459,0.0,0.0,0.0,0.0,0.0,0.0,0.0,0.0,0.0,0.0,0.0,0.0,0.0,0.0,-2.4586,-2.2384,-2.1144,-2.0581,-2.0805,0.0,0.0,0.0,0.0,0.0,0.0,0.0,0.0,0.0,0.0,0.0,0.0,0.0,0.0,-1.2883,0.0,-1.2257,0.0,0.0,0.0,0.0,0.0,0.0,0.0,0.0,-1.494,-1.5716,-1.566,-1.613,-1.6249,0.0,-1.5658,-1.4325,0.0,0.0,0.0,0.0,0.0,0.0,0.0,0.0,-1.5862,-1.691,-1.9209,-2.0558,-2.0716,-2.1031,-2.1089,-2.0888,-2.0282,-1.895,-1.6891,-1.5915,-1.4905,0.0,0.0,0.0,0.0,0.0,0.0,0.0,0.0,0.0,0.0,0.0,0.0,0.0,0.0,0.0,0.0,0.0,0.0,0.0,0.0,0.0,0.0,0.0,-1.1421,0.0,0.0,0.0,0.0,0.0,0.0,0.0,0.0,0.0,-1.7104,-1.9048,-2.0832,-2.184,-2.33,-2.4187,-2.3926,0.0,0.0,0.0,0.0,0.0,0.0,0.0,-2.4279,-2.4531,-2.428,-2.453,-2.5977,-2.7719,-2.8882,-2.8771,0.0,0.0,-2.5271,-2.4024,-2.3524,-2.3885,-2.3628,-2.3453,-2.3766,-2.3825,-2.372,0.0,0.0,0.0,0.0,0.0,0.0,0.0,0.0,-1.5359,-1.5339,0.0,-1.4045,0.0,0.0,0.0,0.0,0.0,-1.4882,0.0,0.0,-1.8155,-1.8889,-1.8062,-1.8384,-1.8273,-1.7764,-1.72,-1.6521,-1.5676,-1.461,0.0,0.0,0.0,0.0,0.0,0.0,-1.6729,-1.7441,-1.957,-2.0716,-2.0716,-2.1031,-2.1203,-2.1174,-2.0533,-1.937,-1.7736,-1.7301,-1.6472,-1.5039,-1.409,0.0,0.0,0.0,0.0,0.0,0.0,0.0,0.0,0.0,0.0,0.0,0.0,0.0,0.0,0.0,0.0,0.0,0.0,0.0,0.0,-1.241,0.0,0.0,0.0,0.0,0.0,0.0,0.0,0.0,0.0,0.0,-1.8717,-2.0784,-2.2485,-2.3043,0.0,0.0,0.0,0.0,-2.4287,-2.4512,-2.3834,-2.3683,-2.4525,-2.6384,-2.7544,-2.7078,0.0,0.0,-2.9443,-2.9749,-2.9989,-2.9484,-2.9821,-2.9738,-2.8319,-2.6628,-2.5596,-2.5939,-2.5721,-2.5535,-2.5915,-2.6093,-2.5954,-1.9052,0.0,0.0,0.0,0.0,-1.7858,-1.8096,-1.8551,-1.8105,-1.7857,-1.7745,-1.6807,0.0,0.0,0.0,0.0,0.0,0.0,-1.7285,-1.7743,-1.8865,-1.9394,-1.9305,-1.9599,-1.9634,-1.9469,-1.9097,-1.8831,-1.8576,-1.7662,-1.6009,-1.3722,0.0,0.0,0.0,0.0,-1.7534,-1.8549,-1.9977,-2.0845,-2.1031,-2.1146,-2.1101,-2.0867,-2.0453,-1.98,-1.8819,-1.8306,-1.7518,-1.6466,-1.5681,0.0,0.0,0.0,0.0,0.0,0.0,0.0,0.0,0.0,0.0,0.0,0.0,0.0,0.0,0.0,0.0,0.0,0.0,0.0,-1.2779,-1.3767,-1.4227,0.0,0.0,0.0,0.0,0.0,0.0,0.0,0.0,0.0,-2.1244,-2.177,-2.2189,0.0,0.0,-2.3871,-2.3831,-2.5016,-2.5984,-2.6372,-2.6981,0.0,-2.754,-2.7453,-2.7459,-2.7718,-2.9152,-2.9969,-2.931,-3.0334,-3.1211,-3.1019,-3.1139,-3.1096,-3.0697,-2.9565,-2.8784,-2.8838,-2.8807,-2.8736,-2.8838,-2.8886,-2.8838,-2.1363,-2.0307,-1.9543,-1.9583,-2.0131,-2.016,-2.0501,-2.0945,-2.0615,-2.0515,-2.0515,-1.9485,-1.8821,-1.8631,-1.7747,0.0,0.0,0.0,-1.8977,-1.9417,-1.9968,-2.0215,-2.0207,-2.0441,-2.0521,-2.0401,-2.0227,-2.0094,-1.996,-1.9327,-1.8077,-1.6139,0.0,0.0,-1.6086,-1.7452,-1.8531,-1.9373,-2.0359,-2.0974,-2.1203,-2.1203,-2.1115,-2.0925,-2.061,-2.0197,-1.9714,-1.9003,-1.8296,-1.756,-1.6809,-1.5942,0.0,0.0,0.0,0.0,0.0,0.0,0.0,0.0,0.0,0.0,0.0,-1.1869,-1.1323,0.0,0.0,0.0,-1.3296,-1.3751,-1.4606,-1.5043,0.0,0.0,0.0,0.0,0.0,0.0,0.0,-1.9326,-2.1193,-2.2538,-2.2852,-2.2913,-2.3054,-2.3464,-2.4155,-2.4517,-2.4393,0.0,-2.6952,-2.7081,-2.8046,-2.8816,-2.8861,-2.8717,-2.888,-2.9692,-3.0322,-3.0678,-3.044,-3.1144,-3.1693,-3.1717,-3.1717,-3.1717,-3.1717,-3.1187,-3.0711,-3.0735,-3.0946,-3.1048,-3.1048,-3.1048,-3.1048,-2.3354,-2.3236,-2.1366,-2.1134,-2.1965,-2.1997,-2.2451,-2.3223,-2.2915,-2.3106,-2.3545,-2.1888,-2.109,-2.0974,-1.937,0.0,-2.0238,-2.0471,-2.0701,-2.0928,-2.1427,-2.1334,-2.0788,-2.1056,-2.1029,-2.0748,-2.0748,-2.0588,-2.0294,-2.0101,-1.9825,-1.9468,-1.8424,-1.7974,-1.824,-1.9055,-1.969,-2.0036,-2.0769,-2.1174,-2.1203,-2.1203,-2.1203,-2.1203,-2.0925,-2.0638,-2.0299,-1.9481,-1.88,-1.845,-1.7674,-1.7046,-1.6564,0.0,0.0,0.0,0.0,0.0,0.0,0.0,0.0,0.0,0.0,0.0,0.0,0.0,0.0,0.0,-1.5353,0.0,-1.68,-1.6373,0.0,0.0,0.0,-1.7995,-1.9565,-2.0864,-2.169,-2.1843,0.0,0.0,-2.3832,-2.4165,-2.4752,-2.5693,-2.6064,-2.6043,-2.5459,-2.6527,-2.7305,-2.7194,-2.7973,-2.873,-2.9355,-3.0187,-3.1159,-3.2137,-3.2344,-3.2126,-3.2124,-3.195,-3.1841,-3.1813,-3.1789,-3.1789,-3.1789,-3.1765,-3.1789,-3.1813,-3.2082,-3.237,-3.2274,-3.225,-3.2226,-2.3803,-2.4018,-2.3352,-2.3181,-2.3478,-2.35,-2.389,-2.4554,-2.4247,-2.4203,-2.4276,-2.335,-2.2824,-2.2576,-2.2137,-2.2224,-2.2737,-2.2562,-2.2432,-2.2418,-2.2314,-2.2059,-2.167,-2.175,-2.163,-2.1363,-2.1413,-2.1189,-2.0895,-2.0903,-2.0815,-2.0697,-2.0458,-1.9938,-1.9141,-1.9916,-2.0509,-2.0913,-2.105,-2.1124,-2.1203,-2.1203,-2.1203,-2.1203,-2.113,-2.0856,-2.0328,-2.0115,-1.9607,-1.8854,-1.9169,-1.9009,-1.8125,-1.7249,0.0,0.0,0.0,0.0,0.0,0.0,0.0,0.0,0.0,-1.5105,-1.3873,0.0,-1.6393,0.0,-1.7743,-1.8745,-1.9158,-1.9088,0.0,0.0,-1.979,-2.0231,-2.1655,-2.2871,-2.3468,-2.3032,-2.4295,-2.5114,-2.4864,-2.5139,-2.5679,-2.6559,-2.5783,-2.5218,-2.5526,-2.6813,-2.7874,-2.8279,-2.9956,-3.1372,-3.1311,-3.2041,-3.2768,-3.3027,-3.2909,-3.2767,-3.2999,-3.2811,-3.255,-3.2349,-3.2298,-3.2298,-3.2298,-3.2298,-3.2466,-3.2755,-3.2415,-3.191,-3.191,-3.1934,-3.1934,-2.4112,-2.4215,-2.3917,-2.3748,-2.3607,-2.405,-2.4473,-2.4834,-2.4794,-2.4855,-2.4759,-2.4247,-2.3925,-2.3749,-2.3603,-2.3632,-2.3808,-2.3615,-2.3328,-2.3028,-2.2831,-2.2438,-2.1991,-2.1991,-2.1897,-2.1815,-2.1932,-2.1849,-2.1565,-2.1894,-2.1948,-2.1772,-2.196,-2.1642,-2.0837,-2.0813,-2.0948,-2.1156,-2.1126,-2.1222,-2.1393,-2.1291,-2.1202,-2.1168,-2.1021,-2.0785,-2.0406,-2.0003,-1.9522,-1.9031,-1.9213,-1.9059,-1.859,-1.8049,-1.7787,0.0,0.0,0.0,0.0,0.0,0.0,0.0,0.0,0.0,0.0,0.0,-1.8501,-1.8637,-1.9805,-2.0586,-2.0669,-2.0713,-2.1073,-2.1878,-2.1996,-2.2547,-2.3845,-2.4804,-2.5266,-2.4959,-2.5825,-2.6432,-2.6432,-2.6536,-2.6872,-2.7506,-2.6859,-2.6366,-2.6647,-2.8055,-2.9342,-2.9745,-3.1585,-3.2955,-3.2906,-3.3357,-3.3648,-3.3625,-3.3458,-3.3291,-3.3433,-3.3241,-3.3002,-3.2877,-3.2851,-3.2851,-3.2851,-3.2851,-3.2971,-3.3092,-3.2827,-3.2488,-3.2394,-3.2202,-3.2126,-2.4302,-2.4235,-2.3955,-2.3577,-2.3215,-2.4184,-2.4413,-2.4185,-2.4602,-2.4862,-2.492,-2.4715,-2.4709,-2.4613,-2.4335,-2.4203,-2.4203,-2.4138,-2.381,-2.314,-2.3088,-2.2759,-2.2098,-2.2164,-2.2137,-2.2176,-2.2506,-2.2473,-2.2249,-2.2786,-2.2906,-2.2625,-2.2879,-2.285,-2.2498,-2.1642,-2.1231,-2.1231,-2.1178,-2.1329,-2.1671,-2.1334,-2.1109,-2.1092,-2.0863,-2.0671,-2.0514,-1.9731,-1.9284,-1.9194,-1.8875,-1.8788,-1.9014,-1.8751,-1.8681,0.0,-1.876,0.0,0.0,0.0,0.0,0.0,0.0,0.0,0.0,-2.0467,-2.0757,-2.1059,-2.1687,-2.2013,-2.199,-2.21,-2.2673,-2.3931,-2.4122,-2.4633,-2.5748,-2.6473,-2.6805,-2.6786,-2.716,-2.753,-2.7634,-2.7799,-2.7906,-2.8116,-2.8077,-2.7921,-2.7937,-2.9143,-3.0307,-3.0918,-3.2471,-3.3545,-3.3918,-3.4089,-3.4115,-3.4091,-3.3882,-3.3743,-3.3791,-3.3648,-3.3454,-3.3404,-3.338,-3.338,-3.338,-3.338,-3.3428,-3.3525,-3.3452,-3.3308,-3.3188,-3.2803,-3.2683,-2.477,-2.4529,-2.4235,-2.4093,-2.4004,-2.458,-2.3989,-2.2659,-2.2978,-2.3393,-2.3963,-2.4692,-2.4964,-2.5031,-2.4973,-2.4876,-2.4876,-2.4593,-2.4189,-2.3784,-2.3499,-2.3107,-2.2767,-2.2957,-2.3038,-2.282,-2.314,-2.3186,-2.2879,-2.3014,-2.2932,-2.2617,-2.2658,-2.2498,-2.2142,0.0,0.0,0.0,-2.1695,-2.1611,-2.1563,-2.1041,-2.0823,-2.1076,-2.1232,0.0,-2.0514,-2.0535,-2.0302,-1.983,-2.0271,0.0,0.0,0.0,0.0,0.0,0.0,0.0,0.0,0.0,0.0,0.0,-2.1682,-2.115,-2.0855,-2.1671,-2.2514,-2.3172,-2.361,-2.4126,-2.4623,-2.4663,-2.4951,-2.5493,-2.5601,-2.5803,-2.6406,-2.6732,-2.6877,-2.6698,-2.7079,-2.7314,-2.7279,-2.7368,-2.7657,-2.7945,-2.796,-2.8048,-2.8184,-2.8595,-2.9059,-2.9796,-3.179,-3.3323,-3.4188,-3.4359,-3.4261,-3.4139,-3.4066,-3.4046,-3.4218,-3.4195,-3.4102,-3.3911,-3.3838,-3.3838,-3.3862,-3.3838,-3.3982,-3.4438,-3.415,-3.3789,-3.338,-3.2875,-3.2539,-2.4997,0.0,-2.4543,-2.4168,0.0,-2.4172,-2.3528,-2.2208,-2.3514,-2.4144,-2.4384,-2.4905,-2.5066,-2.5105,-2.4715,-2.4569,-2.4554,-2.4036,-2.3802,-2.3757,-2.3571,-2.3456,-2.342,-2.3611,-2.361,-2.3525,-2.3863,-2.3827,-2.3596,-2.3767,-2.3557,-2.312,-2.3083,-2.2928,-2.2558,-2.2558,-2.2453,-2.2314,-2.2037,-2.192,-2.1905,-2.1432,-2.113,-2.1078,-2.1061,0.0,0.0,0.0,0.0,0.0,0.0,0.0,0.0,0.0,0.0,-2.3484,-2.2804,-2.2655,-2.3425,-2.3292,-2.3565,-2.4653,-2.4641,-2.4126,-2.2942,-2.3889,-2.4711,-2.5219,-2.5555,-2.5887,-2.6303,-2.6393,-2.6467,-2.6654,-2.6584,-2.6604,-2.6916,-2.6845,-2.6845,-2.7027,-2.7285,-2.7506,-2.7506,-2.7933,-2.8098,-2.7981,-2.8125,-2.8103,-2.8018,-2.8867,-2.9953,-3.1351,-3.2521,-3.3595,-3.4113,-3.4261,-3.4211,-3.4113,-3.4064,-3.4162,-3.4384,-3.4384,-3.4387,-3.439,-3.439,-3.439,-3.439,-3.439,-3.4462,-3.4679,-3.4558,-3.4318,-3.4054,-3.3428,-3.2971,-2.513,-2.505,-2.4756,-2.4149,-2.3554,-2.392,-2.3515,-2.2821,0.0,0.0,0.0,-2.5008,-2.5066,-2.509,-2.4496,-2.4247,-2.4218,-2.3691,-2.3542,-2.3657,-2.3642,-2.3795,-2.402,-2.4034,-2.4088,-2.4088,-2.4442,-2.4434,-2.4176,-2.4465,-2.4305,-2.3793,-2.3662,-2.3427,-2.3135,-2.3106,-2.298,-2.2706,-2.232,-2.2201,-2.2274,-2.1862,-2.1608,-2.139,-2.1213,-2.1417,-2.2114,-2.1938,-2.2097,-2.2736,-2.2585,-2.2755,-2.3349,-2.3318,-2.3456,-2.4005,-2.4383,-2.482,-2.5356,-2.5633,-2.6074,-2.6817,-2.7149,-2.664,-2.5219,-2.5949,-2.6589,-2.6805,-2.6964,-2.7098,-2.7368,-2.7422,-2.7422,-2.7422,-2.7206,-2.7171,-2.7408,-2.7174,-2.7121,-2.7559,-2.7732,-2.7864,-2.8105,-2.8593,-2.8839,-2.8347,-2.8437,-2.8562,-2.8304,-2.953,-3.1021,-3.242,-3.3296,-3.3988,-3.4014,-3.4038,-3.4014,-3.3915,-3.4014,-3.4162,-3.4286,-3.4433,-3.4531,-3.4751,-3.4775,-3.4751,-3.4751,-3.4727,-3.4775,-3.4775,-3.4775,-3.4775,-3.4703,-3.4174,-3.3693,-2.5317,-2.505,-2.4756,-2.4569,-2.4449,-2.4815,-2.5105,-2.5229,-2.4241,-2.3662,-2.3473,-2.4616,-2.5066,-2.5119,-2.5031,-2.4987,-2.4987,-2.4899,-2.4616,-2.4367,-2.4367,-2.4207,-2.402,-2.4306,-2.4428,-2.4428,-2.4849,-2.4955,-2.4964,-2.4701,-2.4576,-2.4364,-2.3881,-2.3427,-2.3135,-2.3106,-2.3062,-2.3036,-2.2464,-2.2304,-2.2528,-2.1933,-2.1937,-2.2608,-2.2818,-2.2947,-2.3014,-2.3203,-2.3235,-2.3073,-2.3022,-2.3523,-2.4643,-2.5037,-2.563,-2.6573,-2.7234,-2.7623,-2.7716,-2.8014,-2.8144,-2.7977,-2.8256,-2.7784,-2.6337,-2.6529,-2.6808,-2.6967,-2.7043,-2.7098,-2.7368,-2.746,-2.7479,-2.746,-2.7387,-2.75,-2.7988,-2.7916,-2.7974,-2.8388,-2.8539,-2.8521,-2.8596,-2.8728,-2.8955,-2.8952,-2.9043,-2.9303,-2.9913,-3.0302,-3.0578,-3.1257,-3.2672,-3.3618,-3.3767,-3.3767,-3.3668,-3.3419,-3.384,-3.4064,-3.4162,-3.4457,-3.4726,-3.4775,-3.4775,-3.4775,-3.4775,-3.4775,-3.4775,-3.4775,-3.4775,-3.4775,-3.4775,-3.4631,-3.439,-2.5678,-2.5581,-2.5064,-2.4877,-2.4863,-2.4851,-2.4915,-2.495,-2.4609,-2.4438,-2.4434,-2.494,-2.5066,-2.509,-2.4686,-2.4525,-2.451,-2.4159,-2.4123,-2.4312,-2.426,-2.4381,-2.4631,-2.4781,-2.4849,-2.4849,-2.4984,-2.5066,-2.5037,-2.4905,-2.4744,-2.454,-2.3781,-2.3261,-2.3116,-2.2943,-2.2918,-2.3106,-2.2828,-2.2669,-2.2599,-2.3003,-2.3208,-2.334,-2.3868,-2.4344,-2.4587,-2.4541,-2.4738,-2.5325,-2.5325,-2.5594,-2.6154,-2.6354,-2.6793,-2.7364,-2.7716,-2.8108,-2.8672,-2.901,-2.901,-2.8502,-2.8897,-2.878,-2.7767,-2.7765,-2.7895,-2.814,-2.8159,-2.827,-2.8545,-2.86,-2.86,-2.86,-2.8435,-2.8456,-2.874,-2.8388,-2.837,-2.8766,-2.8804,-2.8841,-2.9013,-2.9374,-2.947,-2.9336,-2.9502,-3.0107,-3.064,-3.1646,-3.2137,-3.1971,-3.3079,-3.3746,-3.3588,-3.3469,-3.3469,-3.3492,-3.3741,-3.3965,-3.4211,-3.4482,-3.4628,-3.4775,-3.4775,-3.4775,-3.4775,-3.4775,-3.4775,-3.4775,-3.4775,-3.4775,-3.4775,-3.4775,-3.4679,-2.6037,-2.5983,-2.5398,-2.5144,-2.505,-2.477,-2.4502,-2.452,-2.5077,-2.5428,-2.5516,-2.5276,-2.5193,-2.5075,-2.4591,-2.4371,-2.4232,-2.3779,-2.3823,-2.4262,-2.4305,-2.4569,-2.509,-2.5066,-2.5066,-2.5066,-2.5066,-2.5066,-2.5052,-2.4984,-2.4756,-2.4289,-2.3536,-2.3171,-2.3092,-2.2835,-2.2803,-2.3058,-2.3106,-2.2988,-2.274,-2.3947,-2.4395,-2.4166,-2.4928,-2.5663,-2.6183,-2.5975,-2.6236,-2.727,-2.7233,-2.7178,-2.7178,-2.7178,-2.7326,-2.7716,-2.7865,-2.8445,-2.9429,-2.977,-2.9637,-2.9108,-2.9581,-2.9694,-2.9184,-2.9184,-2.9145,-2.9124,-2.9047,-2.9215,-2.9475,-2.9551,-2.957,-2.957,-2.9346,-2.931,-2.9575,-2.9087,-2.888,-2.9354,-2.9355,-2.9448,-2.9679,-3.0141,-3.0277,-2.9911,-3.0189,-3.0554,-3.0812,-3.2575,-3.3639,-3.3368,-3.3873,-3.4337,-3.3719,-3.3654,-3.3707,-3.3738,-3.3817,-3.4064,-3.4286,-3.4433,-3.4531,-3.4726,-3.4775,-3.4775,-3.4775,-3.4775,-3.4775,-3.4775,-3.4775,-3.4775,-3.4775,-3.4775,-3.4775,-2.6037,-2.5905,-2.5611,-2.5317,-2.505,-2.477,-2.477,-2.507,-2.5246,-2.5525,-2.5812,-2.5615,-2.533,-2.5081,-2.5046,-2.4935,-2.4935,-2.4973,-2.4943,-2.4935,-2.4964,-2.5008,-2.5052,-2.5066,-2.5066,-2.5066,-2.5066,-2.5052,-2.5052,-2.4713,-2.4285,-2.3666,-2.35,-2.3309,-2.31,-2.3064,-2.3082,-2.312,-2.3106,-2.3091,-2.3139,-2.4054,-2.482,-2.5353,-2.6211,-2.6976,-2.75,-2.7559,-2.7598,-2.7673,-2.7436,-2.7178,-2.7196,-2.7178,-2.7511,-2.8088,-2.8785,-2.9604,-3.0587,-3.0762,-3.0606,-3.0335,-3.0529,-3.0587,-3.0238,-3.049,-3.0238,-2.9448,-2.9161,-2.9312,-2.957,-2.9609,-2.9668,-2.9687,-2.9612,-2.9707,-3.0059,-3.008,-3.0236,-3.0684,-3.0509,-3.0704,-3.0607,-3.0723,-3.0801,-3.0607,-3.0838,-3.1047,-3.1219,-3.2994,-3.4252,-3.3834,-3.4547,-3.5077,-3.4532,-3.4493,-3.4333,-3.3907,-3.4064,-3.4261,-3.4384,-3.458,-3.4775,-3.4677,-3.4775,-3.4775,-3.4775,-3.4775,-3.4775,-3.4775,-3.4775,-3.4775,-3.4775,-3.4775,-3.4775,-2.6213,-2.6186,-2.5892,-2.5504,-2.509,-2.4943,-2.4871,-2.4918,-2.5382,-2.5578,-2.5611,-2.5924,-2.5827,-2.533,-2.5207,-2.5066,-2.5066,-2.5066,-2.5066,-2.5066,-2.5066,-2.5066,-2.5066,-2.5066,-2.5066,-2.5052,-2.4849,-2.4766,-2.4713,-2.436,-2.3964,-2.3486,-2.3252,-2.3165,-2.2967,-2.2877,-2.2964,-2.3342,-2.317,-2.3193,-2.348,-2.4393,-2.5192,-2.5896,-2.6712,-2.7481,-2.8074,-2.7893,-2.7875,-2.8095,-2.7985,-2.7893,-2.7893,-2.7673,-2.7937,-2.8784,-2.9719,-3.0451,-3.0879,-3.0898,-3.082,-3.0704,-3.082,-3.084,-3.0704,-3.082,-3.0665,-3.0257,-3.0179,-3.0179,-3.0102,-3.0237,-3.0294,-3.016,-3.0217,-3.041,-3.0566,-3.0432,-3.0393,-3.0567,-3.0411,-3.0411,-3.0587,-3.0762,-3.0898,-3.0995,-3.1383,-3.1787,-3.2076,-3.3966,-3.5156,-3.525,-3.6154,-3.6341,-3.5399,-3.4879,-3.4695,-3.4434,-3.4252,-3.4211,-3.4261,-3.4384,-3.4531,-3.458,-3.4677,-3.4775,-3.4775,-3.4775,-3.4775,-3.4775,-3.4775,-3.4775,-3.4775,-3.4775,-3.4775,-2.64,-2.6346,-2.6079,-2.5718,-2.5317,-2.5144,-2.5032,-2.4979,-2.5548,-2.5747,-2.5681,-2.6257,-2.6252,-2.5783,-2.5374,-2.5183,-2.5169,-2.5163,-2.5066,-2.5066,-2.5066,-2.5066,-2.5066,-2.5066,-2.5066,-2.5052,-2.4713,-2.4428,-2.4224,-2.3952,-2.3611,-2.3297,-2.3052,-2.297,-2.2914,-2.2752,-2.2888,-2.3284,-2.3197,-2.3228,-2.3515,-2.4206,-2.501,-2.605,-2.6944,-2.7753,-2.8495,-2.826,-2.8355,-2.8818,-2.8594,-2.8615,-2.8975,-2.8455,-2.8611,-2.9716,-3.0683,-3.125,-3.125,-3.1133,-3.1074,-3.1055,-3.0976,-3.0937,-3.1035,-3.1055,-3.1133,-3.123,-3.123,-3.1054,-3.0528,-3.0742,-3.0703,-3.0352,-3.0528,-3.0645,-3.0587,-3.0411,-3.0314,-3.0392,-3.0274,-3.0157,-3.045,-3.0762,-3.0898,-3.1015,-3.1614,-3.219,-3.2399,-3.3797,-3.5168,-3.5685,-3.6719,-3.6956,-3.61,-3.5825,-3.5368,-3.4819,-3.4537,-3.4424,-3.4233,-3.431,-3.4384,-3.4482,-3.4677,-3.4775,-3.4775,-3.4775,-3.4775,-3.4775,-3.4775,-3.4775,-3.4775,-3.4775,-3.4775,-2.64,-2.6346,-2.6157,-2.601,-2.5943,-2.5407,-2.5302,-2.5609,-2.5778,-2.6005,-2.6314,-2.6431,-2.6486,-2.6398,-2.5813,-2.5505,-2.5461,-2.5213,-2.5149,-2.5134,-2.5066,-2.5066,-2.5066,-2.5066,-2.5066,-2.4999,-2.4674,-2.4198,-2.3584,-2.3434,-2.327,-2.2941,-2.2928,-2.2903,-2.2862,-2.29,-2.2963,-2.3084,-2.325,-2.3206,-2.3241,-2.3281,-2.4363,-2.6067,-2.7004,-2.7889,-2.882,-2.8938,-2.9223,-2.999,-2.9006,-2.905,-3.02,-2.9517,-2.9559,-3.0853,-3.1696,-3.2131,-3.2012,-3.1699,-3.1504,-3.1445,-3.1191,-3.1094,-3.1445,-3.1504,-3.1641,-3.2092,-3.2031,-3.1638,-3.0701,-3.0874,-3.0736,-3.0038,-3.0019,-3.0097,-2.9981,-3.0077,-3.0098,-3.0274,-3.0333,-3.0392,-3.0762,-3.0879,-3.0879,-3.0898,-3.0995,-3.1054,-3.1344,-3.2248,-3.3402,-3.4558,-3.5585,-3.6372,-3.6701,-3.6606,-3.6149,-3.5541,-3.5135,-3.4854,-3.4497,-3.4261,-3.4335,-3.4433,-3.4628,-3.4775,-3.4775,-3.4775,-3.4775,-3.4775,-3.4775,-3.4775,-3.4775,-3.4775,-3.4775,-2.656,-2.6386,-2.6279,-2.6132,-2.5996,-2.5824,-2.5718,-2.5738,-2.6087,-2.6239,-2.6458,-2.6707,-2.6822,-2.6793,-2.6354,-2.593,-2.5549,-2.5403,-2.5257,-2.5081,-2.5066,-2.5066,-2.5066,-2.5066,-2.4916,-2.4742,-2.4505,-2.415,-2.3714,-2.3644,-2.348,-2.318,-2.3153,-2.3075,-2.293,-2.2903,-2.2982,-2.3345,-2.4145,-2.4589,-2.4445,-2.5203,-2.6158,-2.6935,-2.6736,-2.734,-2.8916,-2.8975,-2.9356,-3.0065,-2.9665,-2.9957,-3.0831,-3.08,-3.0749,-3.1125,-3.1813,-3.2229,-3.2209,-3.2012,-3.1934,-3.1934,-3.1816,-3.1738,-3.1894,-3.1934,-3.2012,-3.2187,-3.2257,-3.1899,-3.1532,-3.1535,-3.1202,-3.0071,-3.0634,-3.089,-3.023,-3.0308,-3.0503,-3.0174,-3.0098,-3.0216,-3.045,-3.0567,-3.0704,-3.0879,-3.0898,-3.0898,-3.1054,-3.1903,-3.3006,-3.4224,-3.5388,-3.6511,-3.7493,-3.7268,-3.686,-3.6193,-3.5659,-3.4984,-3.4457,-3.4278,-3.4355,-3.4359,-3.4555,-3.4775,-3.4775,-3.4775,-3.4775,-3.4775,-3.4775,-3.4775,-3.4775,-3.4775,-3.4775,-2.656,-2.6413,-2.64,-2.6279,-2.6144,-2.6094,-2.6025,-2.6026,-2.6242,-2.6412,-2.6633,-2.691,-2.6998,-2.6954,-2.6764,-2.6369,-2.5842,-2.5637,-2.5403,-2.5213,-2.511,-2.5066,-2.5066,-2.5066,-2.4975,-2.4627,-2.4428,-2.4161,-2.3833,-2.3799,-2.3638,-2.3332,-2.333,-2.3166,-2.2941,-2.2917,-2.3079,-2.3541,-2.44,-2.4985,-2.5409,-2.631,-2.7199,-2.7687,-2.7271,-2.7505,-2.8934,-2.8975,-2.9471,-3.0237,-3.0218,-3.0569,-3.1408,-3.175,-3.1876,-3.1864,-3.2299,-3.2578,-3.2539,-3.2461,-3.2363,-3.2363,-3.2287,-3.2268,-3.2344,-3.2363,-3.2422,-3.2536,-3.2607,-3.2459,-3.215,-3.2296,-3.1902,-3.0487,-3.0978,-3.1255,-3.0455,-3.0319,-3.0127,-2.9861,-2.9863,-2.9981,-3.0157,-3.0216,-3.0333,-3.0587,-3.0645,-3.0704,-3.0879,-3.1498,-3.2742,-3.4112,-3.5002,-3.6263,-3.7346,-3.7661,-3.7244,-3.6601,-3.626,-3.5431,-3.4762,-3.451,-3.44,-3.4331,-3.4457,-3.4677,-3.4775,-3.4775,-3.4775,-3.4775,-3.4775,-3.4775,-3.4775,-3.4775,-3.4775,-2.64,-2.64,-2.64,-2.6386,-2.6306,-2.6117,-2.6312,-2.6516,-2.636,-2.6509,-2.6867,-2.6983,-2.6998,-2.6983,-2.6954,-2.6778,-2.6413,-2.5886,-2.5579,-2.5476,-2.5183,-2.5066,-2.5066,-2.5066,-2.5037,-2.4829,-2.4525,-2.4172,-2.4008,-2.3931,-2.3768,-2.3474,-2.3386,-2.3303,-2.2954,-2.3036,-2.316,-2.3488,-2.3845,-2.4621,-2.5863,-2.6472,-2.7257,-2.8403,-2.8552,-2.8792,-2.9126,-2.909,-2.9721,-3.0823,-3.0489,-3.0841,-3.1999,-3.2277,-3.2637,-3.3078,-3.3359,-3.3379,-3.332,-3.3008,-3.2793,-3.2754,-3.2441,-3.2441,-3.2672,-3.2793,-3.293,-3.314,-3.3136,-3.2932,-3.2455,-3.2676,-3.2459,-3.1408,-3.0865,-3.0884,-3.063,-2.9855,-2.9172,-2.945,-2.9686,-2.9863,-2.9863,-2.9922,-2.9922,-3.0039,-3.0274,-3.0567,-3.0743,-3.115,-3.2113,-3.3776,-3.5002,-3.5991,-3.7096,-3.7926,-3.7479,-3.7035,-3.6768,-3.6256,-3.5486,-3.5112,-3.4783,-3.4693,-3.4579,-3.4799,-3.4775,-3.4775,-3.4775,-3.4775,-3.4775,-3.4775,-3.4775,-3.4775,-3.4775,-2.6573,-2.64,-2.64,-2.64,-2.6425,-2.6391,-2.6325,-2.633,-2.6463,-2.6612,-2.6662,-2.691,-2.6998,-2.6998,-2.6998,-2.6939,-2.6808,-2.6383,-2.5959,-2.5549,-2.5213,-2.5081,-2.5066,-2.5066,-2.4987,-2.4806,-2.4494,-2.4334,-2.4446,-2.4449,-2.4327,-2.4104,-2.3991,-2.3812,-2.361,-2.3759,-2.3858,-2.394,-2.5275,-2.6002,-2.6021,-2.7875,-2.8972,-2.8995,-2.9824,-3.0461,-3.0471,-3.0027,-3.0009,-3.0471,-3.0724,-3.129,-3.2157,-3.2753,-3.3155,-3.3335,-3.3418,-3.3418,-3.3398,-3.3301,-3.3203,-3.3203,-3.3066,-3.2961,-3.2889,-3.3078,-3.3136,-3.3063,-3.2598,-3.2205,-3.2253,-3.1751,-3.1318,-3.0527,-3.1565,-3.1408,-3.0065,-2.9356,-2.9071,-2.9094,-2.9213,-2.9331,-2.9568,-2.9627,-2.9686,-2.9863,-3.0157,-3.049,-3.1189,-3.1652,-3.297,-3.4858,-3.5411,-3.5959,-3.715,-3.7921,-3.7671,-3.7403,-3.713,-3.6892,-3.6216,-3.569,-3.536,-3.5032,-3.4917,-3.4823,-3.4799,-3.4775,-3.4775,-3.4775,-3.4775,-3.4775,-3.4775,-3.4775,-3.4775,-2.6653,-2.64,-2.64,-2.64,-2.6373,-2.6421,-2.6411,-2.6265,-2.6556,-2.6709,-2.66,-2.6881,-2.6998,-2.6998,-2.6998,-2.6998,-2.6954,-2.6647,-2.6281,-2.5886,-2.5564,-2.5359,-2.5247,-2.5215,-2.5056,-2.4834,-2.4575,-2.4528,-2.4726,-2.4729,-2.4591,-2.4341,-2.4307,-2.4137,-2.3936,-2.4129,-2.4301,-2.451,-2.5717,-2.6504,-2.6977,-2.8988,-3.0183,-3.0183,-3.1332,-3.1903,-3.1688,-3.1195,-3.0945,-3.0832,-3.1082,-3.1588,-3.23,-3.2642,-3.2928,-3.3209,-3.3355,-3.3418,-3.3418,-3.3398,-3.3418,-3.3418,-3.3418,-3.3292,-3.3165,-3.3228,-3.3102,-3.2873,-3.2574,-3.2338,-3.2363,-3.1851,-3.1124,-3.0607,-3.1603,-3.1565,-2.9777,-2.9393,-2.9241,-2.9168,-2.9035,-2.9094,-2.9213,-2.9331,-2.945,-2.9686,-3.0039,-3.0372,-3.1227,-3.192,-3.3438,-3.4803,-3.5356,-3.6231,-3.7441,-3.7838,-3.7838,-3.7719,-3.7522,-3.7235,-3.6805,-3.6418,-3.6111,-3.5489,-3.5255,-3.4991,-3.4992,-3.4823,-3.4775,-3.4775,-3.4823,-3.4775,-3.4775,-3.4775,-3.4775,-2.668,-2.64,-2.64,-2.64,-2.64,-2.6373,-2.6421,-2.6448,-2.6607,-2.6739,-2.674,-2.6895,-2.6998,-2.6998,-2.6998,-2.6998,-2.6939,-2.672,-2.653,-2.6383,-2.6164,-2.5915,-2.5597,-2.5427,-2.5214,-2.4917,-2.4768,-2.4754,-2.4816,-2.4712,-2.4616,-2.4469,-2.4286,-2.4134,-2.4062,-2.4222,-2.4648,-2.4961,-2.5397,-2.6349,-2.763,-2.9222,-3.044,-3.1067,-3.246,-3.3077,-3.2772,-3.2568,-3.2296,-3.1834,-3.1508,-3.1715,-3.215,-3.2005,-3.2314,-3.2892,-3.3228,-3.3355,-3.3418,-3.3418,-3.3418,-3.3418,-3.3418,-3.3355,-3.3248,-3.3121,-3.2994,-3.2848,-3.2689,-3.265,-3.2598,-3.2205,-3.1698,-3.1389,-3.1153,-3.0705,-3.02,-3.0046,-2.9758,-2.926,-2.909,-2.909,-2.9186,-2.9168,-2.9213,-2.9509,-2.9804,-3.0216,-3.084,-3.1862,-3.2871,-3.3944,-3.508,-3.5927,-3.7012,-3.7518,-3.7518,-3.7524,-3.7482,-3.7421,-3.724,-3.7004,-3.6648,-3.6047,-3.5639,-3.5351,-3.5208,-3.5184,-3.5064,-3.5064,-3.5016,-3.4847,-3.4775,-3.4775,-3.4775,-2.6854,-2.6413,-2.64,-2.64,-2.64,-2.64,-2.6305,-2.6165,-2.6544,-2.6542,-2.6532,-2.6822,-2.6998,-2.6998,-2.6998,-2.6998,-2.6954,-2.6896,-2.672,-2.6559,-2.6705,-2.6398,-2.5976,-2.5783,-2.5511,-2.5226,-2.5138,-2.5008,-2.4781,-2.4814,-2.4687,-2.4627,-2.4535,-2.4544,-2.4535,-2.506,-2.5282,-2.5371,-2.5666,-2.59,-2.6403,-2.7731,-2.8992,-3.0331,-3.1975,-3.3209,-3.3965,-3.3919,-3.3013,-3.1577,-3.1973,-3.1948,-3.1828,-3.2302,-3.2727,-3.295,-3.3204,-3.3437,-3.3437,-3.3457,-3.3437,-3.3418,-3.3496,-3.3184,-3.274,-3.3058,-3.2994,-3.2683,-3.2283,-3.2079,-3.1732,-3.1475,-3.1437,-3.1741,-3.0743,-2.993,-3.0162,-3.0083,-3.0027,-2.9814,-2.9795,-2.9795,-2.9758,-2.9471,-2.9287,-2.9546,-2.9842,-3.0235,-3.1034,-3.1825,-3.2835,-3.3909,-3.4914,-3.5598,-3.6309,-3.6874,-3.7197,-3.7251,-3.7257,-3.7447,-3.7398,-3.7368,-3.6888,-3.6362,-3.6266,-3.6026,-3.5881,-3.5785,-3.5617,-3.5425,-3.5136,-3.4943,-3.4823,-3.4847,-3.4775,-2.6921,-2.64,-2.64,-2.64,-2.64,-2.64,-2.6293,-2.6222,-2.6523,-2.6612,-2.6523,-2.6806,-2.6998,-2.6998,-2.6998,-2.6998,-2.6998,-2.6998,-2.6881,-2.6778,-2.6896,-2.6676,-2.6327,-2.6114,-2.5897,-2.5625,-2.5554,-2.5338,-2.5022,-2.4999,-2.4897,-2.4747,-2.4693,-2.4674,-2.4674,-2.5395,-2.5719,-2.5669,-2.594,-2.612,-2.6014,-2.7362,-2.8878,-3.0361,-3.2065,-3.3618,-3.4622,-3.489,-3.42,-3.3005,-3.28,-3.2774,-3.2437,-3.2975,-3.345,-3.345,-3.3753,-3.3965,-3.3965,-3.3965,-3.3965,-3.3965,-3.3945,-3.3772,-3.3534,-3.3643,-3.3515,-3.3256,-3.2815,-3.2587,-3.2403,-3.1992,-3.1664,-3.1456,-3.0564,-3.02,-3.0978,-3.0762,-3.0607,-3.0588,-3.0588,-3.0588,-3.0588,-3.0162,-3.0017,-3.0125,-3.0325,-3.0741,-3.1248,-3.2038,-3.2628,-3.3402,-3.4413,-3.519,-3.5817,-3.6417,-3.6874,-3.6928,-3.7036,-3.7173,-3.7346,-3.745,-3.7168,-3.6836,-3.6768,-3.6675,-3.6459,-3.6266,-3.6074,-3.5809,-3.5425,-3.5183,-3.5184,-3.4968,-3.4871,-2.6921,-2.64,-2.64,-2.64,-2.64,-2.64,-2.6386,-2.6437,-2.6647,-2.6752,-2.6735,-2.6922,-2.7056,-2.6998,-2.6998,-2.6998,-2.6998,-2.6998,-2.6983,-2.6954,-2.6969,-2.6808,-2.656,-2.6503,-2.6286,-2.5969,-2.5898,-2.5624,-2.5291,-2.5177,-2.5032,-2.4766,-2.4663,-2.4609,-2.473,-2.5359,-2.5726,-2.5747,-2.5984,-2.6241,-2.6482,-2.7779,-2.9253,-3.0926,-3.312,-3.4308,-3.5047,-3.55,-3.5365,-3.4401,-3.4013,-3.3766,-3.3747,-3.3945,-3.4123,-3.4151,-3.4374,-3.459,-3.4648,-3.457,-3.4629,-3.459,-3.4609,-3.4622,-3.4394,-3.4289,-3.4158,-3.4027,-3.3898,-3.3688,-3.3543,-3.3251,-3.2409,-3.1583,-3.128,-3.1679,-3.2037,-3.1741,-3.129,-3.129,-3.129,-3.129,-3.129,-3.1214,-3.1123,-3.0803,-3.0888,-3.0895,-3.1191,-3.1598,-3.1943,-3.2227,-3.3402,-3.4747,-3.5378,-3.5927,-3.6363,-3.6634,-3.6766,-3.6928,-3.7143,-3.7192,-3.7263,-3.7178,-3.7244,-3.7132,-3.6892,-3.6699,-3.6531,-3.6314,-3.6026,-3.5833,-3.5665,-3.5304,-3.5136,-2.6921,-2.64,-2.64,-2.64,-2.64,-2.64,-2.64,-2.6439,-2.6854,-2.6934,-2.6833,-2.7153,-2.7232,-2.7013,-2.6998,-2.6998,-2.6998,-2.6998,-2.6998,-2.6998,-2.6998,-2.6969,-2.6881,-2.6823,-2.6634,-2.6343,-2.5979,-2.5629,-2.5336,-2.5089,-2.475,-2.469,-2.4716,-2.4636,-2.471,-2.5152,-2.5299,-2.535,-2.5569,-2.5869,-2.6413,-2.7678,-2.9339,-3.1167,-3.3904,-3.5412,-3.5714,-3.5889,-3.585,-3.55,-3.5008,-3.4432,-3.4003,-3.4126,-3.4343,-3.4409,-3.4568,-3.4726,-3.4726,-3.4785,-3.4707,-3.4785,-3.4824,-3.4576,-3.4379,-3.4568,-3.4483,-3.4313,-3.4115,-3.3945,-3.3527,-3.2975,-3.2594,-3.2365,-3.2396,-3.2604,-3.2932,-3.2474,-3.2119,-3.2037,-3.2037,-3.2037,-3.2018,-3.1565,-3.1516,-3.1527,-3.1356,-3.1206,-3.123,-3.1309,-3.1327,-3.1422,-3.255,-3.3853,-3.4525,-3.5323,-3.62,-3.6526,-3.658,-3.682,-3.6982,-3.7251,-3.7376,-3.7565,-3.7801,-3.7613,-3.73,-3.718,-3.7036,-3.6819,-3.6627,-3.6411,-3.6122,-3.5713,-3.5352,-2.6921,-2.64,-2.64,-2.64,-2.64,-2.64,-2.64,-2.6491,-2.669,-2.6947,-2.694,-2.7162,-2.7216,-2.7203,-2.7071,-2.6998,-2.6998,-2.6998,-2.7086,-2.7144,-2.71,-2.7071,-2.7159,-2.7056,-2.6838,-2.6692,-2.6458,-2.618,-2.5814,-2.552,-2.5419,-2.5139,-2.5139,-2.5079,-2.4931,-2.5226,-2.5373,-2.5304,-2.5366,-2.5741,-2.6754,-2.7725,-2.9785,-3.212,-3.4633,-3.6035,-3.6016,-3.6016,-3.6035,-3.5889,-3.5578,-3.523,-3.4902,-3.4911,-3.5045,-3.5045,-3.5179,-3.5312,-3.5332,-3.5332,-3.5351,-3.5293,-3.5312,-3.5179,-3.5112,-3.5246,-3.5246,-3.4978,-3.471,-3.4222,-3.3539,-3.3274,-3.3184,-3.3155,-3.3027,-3.3058,-3.3253,-3.3034,-3.2836,-3.2836,-3.2855,-3.2836,-3.2594,-3.2238,-3.2104,-3.2254,-3.2138,-3.1908,-3.1048,-3.1092,-3.0721,-3.0957,-3.1903,-3.2892,-3.3628,-3.4636,-3.6091,-3.6417,-3.6526,-3.6742,-3.6982,-3.7304,-3.7572,-3.7761,-3.7897,-3.795,-3.7709,-3.7613,-3.7517,-3.7421,-3.7204,-3.694,-3.6627,-3.629,-3.5881,-2.6921,-2.64,-2.64,-2.64,-2.64,-2.64,-2.64,-2.6425,-2.6524,-2.6854,-2.7088,-2.6947,-2.7153,-2.7348,-2.7203,-2.71,-2.7159,-2.7188,-2.7364,-2.7495,-2.7247,-2.7261,-2.732,-2.7159,-2.6998,-2.6998,-2.6838,-2.6546,-2.618,-2.6166,-2.5667,-2.558,-2.5653,-2.5299,-2.5226,-2.5446,-2.5446,-2.5098,-2.526,-2.5712,-2.7087,-2.8122,-3.0662,-3.3702,-3.5139,-3.6035,-3.6035,-3.6035,-3.6035,-3.6035,-3.6035,-3.6035,-3.6035,-3.6035,-3.6035,-3.5996,-3.5918,-3.5879,-3.5859,-3.5918,-3.5937,-3.6035,-3.5996,-3.5976,-3.5957,-3.5753,-3.5646,-3.5607,-3.5316,-3.4599,-3.3853,-3.3519,-3.3434,-3.3249,-3.2912,-3.295,-3.3165,-3.3292,-3.3253,-3.3316,-3.3194,-3.3175,-3.3194,-3.3015,-3.3043,-3.2988,-3.2851,-3.2536,-3.167,-3.0928,-3.0696,-3.0662,-3.1598,-3.2628,-3.3402,-3.4246,-3.5653,-3.6091,-3.6254,-3.6742,-3.7036,-3.7304,-3.7649,-3.7732,-3.7868,-3.7921,-3.7974,-3.7853,-3.7805,-3.7878,-3.7733,-3.7397,-3.7108,-3.6843,-3.6435,-2.6921,-2.64,-2.64,-2.64,-2.64,-2.64,-2.64,-2.6465,-2.6727,-2.7033,-2.7158,-2.7188,-2.7265,-2.7465,-2.7452,-2.7539,-2.7656,-2.7686,-2.7684,-2.7803,-2.7539,-2.7437,-2.7437,-2.7159,-2.7013,-2.691,-2.6765,-2.6253,-2.5667,-2.5373,-2.5446,-2.5005,-2.5226,-2.5152,-2.5005,-2.5079,-2.5226,-2.4978,-2.5184,-2.5709,-2.6792,-2.9325,-3.2051,-3.507,-3.5811,-3.5947,-3.6035,-3.6035,-3.6035,-3.6035,-3.6035,-3.6035,-3.6035,-3.6035,-3.6035,-3.6035,-3.6035,-3.6035,-3.6035,-3.6035,-3.6035,-3.6035,-3.5908,-3.6016,-3.5869,-3.5433,-3.5288,-3.5569,-3.5403,-3.4823,-3.346,-3.3273,-3.2899,-3.2477,-3.226,-3.2294,-3.253,-3.2848,-3.3102,-3.3292,-3.3355,-3.3418,-3.3418,-3.3418,-3.3301,-3.3164,-3.3047,-3.2809,-3.2235,-3.151,-3.0945,-3.0993,-3.1367,-3.2387,-3.3402,-3.4246,-3.519,-3.5598,-3.5982,-3.6766,-3.7089,-3.7382,-3.7596,-3.7785,-3.7868,-3.7974,-3.7974,-3.7974,-3.7974,-3.7926,-3.7878,-3.7805,-3.7565,-3.73,-3.7108,-2.6921,-2.64,-2.64,-2.64,-2.64,-2.64,-2.64,-2.6386,-2.6623,-2.6936,-2.7276,-2.7332,-2.7502,-2.7798,-2.7773,-2.7817,-2.7844,-2.7874,-2.7961,-2.8066,-2.773,-2.7583,-2.7613,-2.7232,-2.6896,-2.6765,-2.6619,-2.6399,-2.5887,-2.5667,-2.5446,-2.5359,-2.5446,-2.5299,-2.5079,-2.5299,-2.5226,-2.5098,-2.5368,-2.6417,-2.7924,-3.1425,-3.4253,-3.5393,-3.6035,-3.6035,-3.6035,-3.6035,-3.6035,-3.6035,-3.6035,-3.6035,-3.6035,-3.6035,-3.6035,-3.6035,-3.6035,-3.6035,-3.6035,-3.6035,-3.6035,-3.5996,-3.5704,-3.5685,-3.5578,-3.5104,-3.4442,-3.4509,-3.4911,-3.4421,-3.3348,-3.2906,-3.2571,-3.2515,-3.2206,-3.2075,-3.2294,-3.2549,-3.2804,-3.3102,-3.3228,-3.3292,-3.3418,-3.3418,-3.3418,-3.334,-3.3223,-3.2984,-3.2685,-3.2073,-3.1328,-3.1127,-3.1289,-3.191,-3.2976,-3.3987,-3.4692,-3.508,-3.5927,-3.6688,-3.7197,-3.7465,-3.7732,-3.7945,-3.7974,-3.7974,-3.7974,-3.7974,-3.7974,-3.7974,-3.7926,-3.7902,-3.7878,-3.7757,-3.7517,-2.6867,-2.64,-2.64,-2.64,-2.64,-2.64,-2.64,-2.6386,-2.6465,-2.6925,-2.7513,-2.7481,-2.7711,-2.8206,-2.8122,-2.8005,-2.8049,-2.8169,-2.833,-2.8344,-2.7905,-2.773,-2.77,-2.729,-2.6838,-2.6692,-2.6619,-2.6692,-2.6166,-2.6019,-2.5873,-2.58,-2.58,-2.5726,-2.5446,-2.5726,-2.5593,-2.558,-2.58,-2.752,-3.0572,-3.3345,-3.5401,-3.5947,-3.6035,-3.6035,-3.6035,-3.6035,-3.6035,-3.6035,-3.6035,-3.6035,-3.6035,-3.6035,-3.6035,-3.6035,-3.6035,-3.6035,-3.6035,-3.6035,-3.6035,-3.6016,-3.55,-3.552,-3.5249,-3.4547,-3.3605,-3.3254,-3.3632,-3.3774,-3.2943,-3.2559,-3.245,-3.2404,-3.2281,-3.2086,-3.2121,-3.223,-3.2358,-3.2676,-3.3038,-3.3228,-3.3355,-3.3418,-3.3418,-3.3418,-3.3301,-3.3199,-3.2941,-3.2478,-3.1873,-3.1356,-3.1287,-3.1563,-3.2448,-3.3579,-3.4177,-3.458,-3.5795,-3.6982,-3.7334,-3.7601,-3.7814,-3.7974,-3.7974,-3.7974,-3.7974,-3.7974,-3.7974,-3.7974,-3.7974,-3.7974,-3.7926,-3.7926,-3.7757,-2.668,-2.64,-2.64,-2.64,-2.6386,-2.6386,-2.6386,-2.6465,-2.6795,-2.7175,-2.7712,-2.7742,-2.8,-2.8293,-2.8432,-2.852,-2.8666,-2.8695,-2.871,-2.8681,-2.8154,-2.7861,-2.7771,-2.7276,-2.7027,-2.6838,-2.6619,-2.6239,-2.6121,-2.6282,-2.6093,-2.5873,-2.6019,-2.6093,-2.5726,-2.6034,-2.6093,-2.5873,-2.6239,-2.8099,-3.1084,-3.3049,-3.4521,-3.5587,-3.6035,-3.6035,-3.6035,-3.6035,-3.6035,-3.6035,-3.6035,-3.6035,-3.6035,-3.6035,-3.6035,-3.6035,-3.6035,-3.6035,-3.6035,-3.6035,-3.5908,-3.5869,-3.5685,-3.5539,-3.4758,-3.4203,-3.3322,-3.2243,-3.2925,-3.3047,-3.271,-3.2766,-3.2506,-3.2385,-3.232,-3.2042,-3.1912,-3.1891,-3.2038,-3.2294,-3.2676,-3.3038,-3.3292,-3.3355,-3.3418,-3.3418,-3.3335,-3.3296,-3.3116,-3.2676,-3.2401,-3.1883,-3.1457,-3.1742,-3.223,-3.3304,-3.399,-3.4298,-3.5708,-3.7143,-3.7465,-3.7732,-3.7868,-3.7974,-3.7974,-3.7974,-3.7974,-3.7974,-3.7974,-3.7974,-3.7974,-3.7974,-3.7974,-3.795,-3.7926,-2.6507,-2.64,-2.64,-2.64,-2.6386,-2.6623,-2.6716,-2.6795,-2.7175,-2.7569,-2.7947,-2.8068,-2.8308,-2.8603,-2.8695,-2.8754,-2.8871,-2.8886,-2.8886,-2.8754,-2.8286,-2.7874,-2.7803,-2.7335,-2.6998,-2.6998,-2.6881,-2.691,-2.6616,-2.6251,-2.5946,-2.5887,-2.5946,-2.5946,-2.5946,-2.6239,-2.6239,-2.6736,-2.8171,-3.0447,-3.2491,-3.4038,-3.5158,-3.5967,-3.6035,-3.6035,-3.6035,-3.6035,-3.6035,-3.6035,-3.6035,-3.6035,-3.6035,-3.6035,-3.6035,-3.6035,-3.6035,-3.6035,-3.6035,-3.6035,-3.585,-3.5355,-3.496,-3.408,-3.3397,-3.3416,-3.3087,-3.1773,-3.2767,-3.2992,-3.2608,-3.3049,-3.3077,-3.2927,-3.2469,-3.2311,-3.1995,-3.1663,-3.1699,-3.2038,-3.2358,-3.2804,-3.3102,-3.3165,-3.3228,-3.3418,-3.3418,-3.3335,-3.3179,-3.2883,-3.2646,-3.2474,-3.2085,-3.1894,-3.2415,-3.3255,-3.3989,-3.4636,-3.5886,-3.7028,-3.7489,-3.7732,-3.7892,-3.7974,-3.7974,-3.7974,-3.7974,-3.7974,-3.7974,-3.7974,-3.7974,-3.7974,-3.7974,-3.7974,-3.7878,-2.64,-2.64,-2.64,-2.6465,-2.6544,-2.686,-2.7032,-2.7175,-2.7569,-2.7961,-2.8275,-2.8431,-2.8651,-2.8808,-2.8871,-2.8871,-2.8886,-2.8886,-2.8886,-2.8681,-2.8315,-2.7903,-2.7759,-2.7349,-2.6998,-2.6998,-2.713,-2.7173,-2.7113,-2.6817,-2.6421,-2.622,-2.641,-2.6251,-2.6253,-2.6458,-2.6765,-2.7535,-2.9877,-3.193,-3.3623,-3.5108,-3.5743,-3.6035,-3.6035,-3.6035,-3.6035,-3.6035,-3.6035,-3.6035,-3.6035,-3.5967,-3.5899,-3.5831,-3.5762,-3.5743,-3.5743,-3.5831,-3.5879,-3.586,-3.5685,-3.5172,-3.4432,-3.3842,-3.2712,-3.303,-3.2927,-3.1552,-3.2209,-3.2544,-3.2609,-3.2908,-3.2908,-3.2768,-3.2628,-3.2506,-3.2311,-3.1903,-3.1717,-3.1974,-3.2294,-3.2676,-3.2912,-3.2912,-3.3102,-3.3292,-3.3418,-3.3355,-3.3218,-3.3023,-3.2965,-3.2848,-3.2555,-3.2263,-3.2612,-3.3233,-3.3968,-3.4918,-3.6125,-3.7045,-3.7506,-3.7726,-3.7838,-3.7945,-3.7974,-3.7974,-3.7974,-3.7974,-3.7974,-3.7974,-3.7974,-3.7974,-3.7974,-3.7974,-3.7926,-2.64,-2.64,-2.64,-2.6637,-2.6953,-2.7032,-2.7254,-2.7569,-2.804,-2.8289,-2.8431,-2.8666,-2.8822,-2.8886,-2.8886,-2.8886,-2.8886,-2.8886,-2.8886,-2.8681,-2.83,-2.7947,-2.7773,-2.7408,-2.7027,-2.7042,-2.7217,-2.7393,-2.7554,-2.7623,-2.7418,-2.7407,-2.7111,-2.7085,-2.6939,-2.6867,-2.7623,-2.8604,-3.066,-3.2211,-3.3762,-3.5108,-3.5947,-3.6035,-3.6035,-3.6035,-3.6035,-3.5967,-3.5947,-3.5947,-3.5879,-3.5762,-3.5557,-3.5557,-3.5401,-3.5264,-3.547,-3.5606,-3.5606,-3.5811,-3.5928,-3.5704,-3.496,-3.4003,-3.3115,-3.2712,-3.2209,-3.1598,-3.2014,-3.1931,-3.1995,-3.2153,-3.273,-3.2628,-3.2628,-3.245,-3.2236,-3.1949,-3.18,-3.1974,-3.223,-3.2485,-3.274,-3.2721,-3.3038,-3.3292,-3.3228,-3.3228,-3.3292,-3.3175,-3.3257,-3.316,-3.2969,-3.2773,-3.2819,-3.3478,-3.4543,-3.5287,-3.6207,-3.6997,-3.7655,-3.7744,-3.7809,-3.7945,-3.7974,-3.7974,-3.7974,-3.7974,-3.7974,-3.7974,-3.7974,-3.7974,-3.7974,-3.7974,-3.7974,-2.64,-2.64,-2.64,-2.6623,-2.7032,-2.7254,-2.7647,-2.804,-2.851,-2.8666,-2.8666,-2.8808,-2.8886,-2.8886,-2.8886,-2.8886,-2.8886,-2.8886,-2.8886,-2.8769,-2.8476,-2.8093,-2.7786,-2.7525,-2.7203,-2.71,-2.7305,-2.7613,-2.7803,-2.8095,-2.8169,-2.8022,-2.7715,-2.7452,-2.7276,-2.7159,-2.7913,-2.9178,-3.073,-3.2211,-3.3762,-3.5177,-3.6035,-3.6035,-3.6035,-3.6035,-3.5967,-3.5762,-3.5743,-3.5606,-3.547,-3.5333,-3.5196,-3.5127,-3.5059,-3.4921,-3.5196,-3.5401,-3.5538,-3.5724,-3.5782,-3.5085,-3.427,-3.3435,-3.3171,-3.2348,-3.1875,-3.1617,-3.1773,-3.1912,-3.2209,-3.2768,-3.3209,-3.289,-3.2572,-3.2311,-3.2097,-3.1829,-3.18,-3.191,-3.2038,-3.223,-3.2422,-3.2549,-3.2912,-3.3228,-3.3165,-3.3102,-3.3102,-3.3165,-3.3228,-3.3292,-3.3121,-3.3313,-3.3358,-3.4228,-3.5138,-3.5852,-3.6476,-3.7202,-3.7861,-3.7691,-3.7702,-3.7892,-3.7974,-3.7974,-3.7974,-3.7974,-3.7974,-3.7974,-3.7974,-3.7974,-3.7974,-3.7974,-3.7974,-2.64,-2.64,-2.64,-2.6702,-2.7175,-2.7476,-2.7947,-2.851,-2.8744,-2.8886,-2.8886,-2.8886,-2.8886,-2.8886,-2.8886,-2.8886,-2.8886,-2.8886,-2.8886,-2.8769,-2.8564,-2.818,-2.7934,-2.7613,-2.7291,-2.7159,-2.7437,-2.7773,-2.7844,-2.8359,-2.8505,-2.8388,-2.8052,-2.7773,-2.7393,-2.7247,-2.7695,-2.9178,-3.073,-3.2211,-3.3762,-3.5177,-3.6035,-3.6035,-3.6035,-3.5879,-3.5811,-3.5606,-3.5489,-3.5264,-3.5127,-3.4921,-3.4784,-3.4715,-3.4696,-3.4784,-3.4921,-3.5196,-3.5284,-3.5655,-3.5743,-3.5355,-3.4308,-3.3558,-3.2852,-3.219,-3.1912,-3.1479,-3.1894,-3.2227,-3.2311,-3.2469,-3.2628,-3.219,-3.2088,-3.1894,-3.194,-3.181,-3.1819,-3.191,-3.2038,-3.223,-3.2358,-3.2549,-3.2676,-3.2931,-3.2804,-3.2804,-3.2804,-3.2867,-3.3038,-3.3165,-3.3233,-3.3611,-3.3988,-3.4759,-3.554,-3.6758,-3.7325,-3.7762,-3.8131,-3.7916,-3.7774,-3.7892,-3.7974,-3.7974,-3.7974,-3.7974,-3.7974,-3.7974,-3.7974,-3.7974,-3.7974,-3.7974,-3.7974,-2.64,-2.64,-2.64,-2.686,-2.7476,-2.7555,-2.8026,-2.8744,-2.8886,-2.8886,-2.8886,-2.8886,-2.8886,-2.8886,-2.8886,-2.8886,-2.8886,-2.8886,-2.8886,-2.8812,-2.8651,-2.83,-2.8008,-2.7715,-2.7525,-2.7261,-2.7598,-2.7888,-2.7932,-2.8534,-2.8783,-2.8739,-2.8417,-2.8008,-2.7495,-2.7159,-2.7783,-2.9178,-3.0589,-3.2,-3.3484,-3.4815,-3.547,-3.5879,-3.5811,-3.5675,-3.547,-3.5333,-3.5127,-3.4921,-3.4784,-3.4577,-3.4439,-3.437,-3.4232,-3.4024,-3.4301,-3.4508,-3.4577,-3.547,-3.5821,-3.5685,-3.4653,-3.4042,-3.3577,-3.289,-3.2051,-3.1479,-3.158,-3.158,-3.1497,-3.1515,-3.1672,-3.1755,-3.1653,-3.1635,-3.1681,-3.1663,-3.1736,-3.1717,-3.2102,-3.2358,-3.2485,-3.2549,-3.2549,-3.2613,-3.2485,-3.2422,-3.2549,-3.2676,-3.2867,-3.3165,-3.3355,-3.3607,-3.409,-3.5005,-3.6025,-3.7237,-3.8183,-3.862,-3.8643,-3.8404,-3.8263,-3.8089,-3.7974,-3.7974,-3.7974,-3.7974,-3.7974,-3.7974,-3.7974,-3.7974,-3.7974,-3.7974,-3.7974,-2.64,-2.64,-2.64,-2.6702,-2.7254,-2.7476,-2.7947,-2.851,-2.8744,-2.8886,-2.8886,-2.8886,-2.8886,-2.8886,-2.8886,-2.8886,-2.8886,-2.8886,-2.8886,-2.8871,-2.8754,-2.8564,-2.83,-2.8095,-2.7905,-2.7817,-2.799,-2.818,-2.83,-2.871,-2.8856,-2.8812,-2.8593,-2.8095,-2.7627,-2.732,-2.7673,-2.7958,-2.9178,-3.073,-3.2211,-3.3554,-3.4696,-3.5538,-3.547,-3.5264,-3.5127,-3.499,-3.4784,-3.4577,-3.4439,-3.4163,-3.4024,-3.4024,-3.3955,-3.3886,-3.4163,-3.4646,-3.5059,-3.5675,-3.5967,-3.5617,-3.4902,-3.4061,-3.3634,-3.245,-3.1773,-3.1497,-3.1442,-3.1377,-3.146,-3.146,-3.1515,-3.1497,-3.1479,-3.1479,-3.146,-3.1543,-3.1525,-3.1506,-3.1699,-3.1974,-3.2102,-3.2358,-3.2422,-3.2549,-3.2485,-3.2422,-3.2485,-3.2549,-3.2676,-3.3102,-3.3418,-3.3607,-3.409,-3.5129,-3.6276,-3.7487,-3.8665,-3.959,-3.9419,-3.9022,-3.8646,-3.8449,-3.8214,-3.7974,-3.7974,-3.7974,-3.7974,-3.7974,-3.7974,-3.7974,-3.7974,-3.7974,-3.7974,-2.64,-2.64,-2.64,-2.6623,-2.7018,-2.7398,-2.7947,-2.851,-2.8808,-2.8886,-2.8886,-2.8886,-2.8886,-2.8886,-2.8886,-2.8886,-2.8886,-2.8886,-2.8886,-2.8886,-2.8886,-2.8666,-2.8505,-2.8432,-2.8078,-2.8063,-2.8256,-2.8432,-2.8417,-2.8739,-2.8871,-2.8842,-2.8681,-2.8359,-2.7949,-2.773,-2.7495,-2.7864,-2.8909,-3.0167,-3.1435,-3.263,-3.3988,-3.4834,-3.5059,-3.4853,-3.4715,-3.4508,-3.4301,-3.4163,-3.3955,-3.3817,-3.3817,-3.3817,-3.3817,-3.3955,-3.4094,-3.4508,-3.4921,-3.5127,-3.5333,-3.5431,-3.4327,-3.3776,-3.3435,-3.2329,-3.1737,-3.1442,-3.1414,-3.1414,-3.1433,-3.1433,-3.1414,-3.1433,-3.1396,-3.1396,-3.1479,-3.1479,-3.1442,-3.1442,-3.1442,-3.1653,-3.1846,-3.2038,-3.2294,-3.2422,-3.2485,-3.2485,-3.2485,-3.2549,-3.2676,-3.3038,-3.3544,-3.3776,-3.4403,-3.5376,-3.652,-3.779,-3.8811,-3.9888,-4.0114,-3.9714,-3.9235,-3.8833,-3.8545,-3.831,-3.8046,-3.7974,-3.7974,-3.7974,-3.7974,-3.7974,-3.7974,-3.7974,-3.7974,-2.64,-2.64,-2.6386,-2.6623,-2.7032,-2.749,-2.8104,-2.8886,-2.8886,-2.8886,-2.8886,-2.8886,-2.8886,-2.8886,-2.8886,-2.8886,-2.8886,-2.8886,-2.8886,-2.8886,-2.8886,-2.8695,-2.8578,-2.8491,-2.8373,-2.818,-2.8238,-2.8564,-2.8505,-2.8754,-2.8886,-2.8886,-2.8842,-2.8608,-2.8359,-2.8154,-2.7817,-2.7955,-2.8438,-2.9576,-3.0655,-3.2018,-3.3206,-3.4126,-3.4558,-3.4508,-3.4439,-3.4301,-3.4163,-3.3955,-3.3817,-3.3817,-3.3817,-3.3817,-3.3817,-3.3817,-3.3817,-3.4163,-3.4439,-3.4646,-3.4784,-3.4964,-3.4269,-3.3823,-3.3341,-3.2487,-3.193,-3.1671,-3.1689,-3.1598,-3.1524,-3.1524,-3.1524,-3.1488,-3.1433,-3.1497,-3.158,-3.1561,-3.1525,-3.1442,-3.1442,-3.157,-3.1846,-3.2102,-3.2294,-3.2549,-3.274,-3.2804,-3.2804,-3.274,-3.2867,-3.2975,-3.3481,-3.3965,-3.4632,-3.5253,-3.646,-3.7588,-3.8602,-3.957,-3.9888,-4.0306,-3.9818,-3.9362,-3.8984,-3.8599,-3.8166,-3.7974,-3.7974,-3.7974,-3.7974,-3.7974,-3.7974,-3.7974,-3.7998,-2.64,-2.6386,-2.6716,-2.686,-2.711,-2.7805,-2.8417,-2.8886,-2.8886,-2.8886,-2.8886,-2.8886,-2.8886,-2.8886,-2.8886,-2.8886,-2.8886,-2.8886,-2.8886,-2.8886,-2.8886,-2.8827,-2.8783,-2.8725,-2.8666,-2.8651,-2.8681,-2.871,-2.8754,-2.8886,-2.8886,-2.8886,-2.8886,-2.8798,-2.8739,-2.8651,-2.8139,-2.7865,-2.8207,-2.8888,-2.972,-3.0835,-3.2105,-3.3085,-3.3868,-3.3955,-3.4024,-3.4024,-3.3886,-3.3886,-3.3817,-3.3817,-3.3817,-3.3817,-3.3817,-3.3817,-3.4024,-3.4301,-3.4439,-3.4646,-3.4784,-3.464,-3.4139,-3.3883,-3.3505,-3.2903,-3.2184,-3.2093,-3.2074,-3.2038,-3.1964,-3.1928,-3.1946,-3.1946,-3.1901,-3.1819,-3.1903,-3.2014,-3.1894,-3.1746,-3.1681,-3.1506,-3.1846,-3.2166,-3.2422,-3.274,-3.2912,-3.3038,-3.3038,-3.2975,-3.3038,-3.3165,-3.3292,-3.3776,-3.4153,-3.4757,-3.6093,-3.7347,-3.8424,-3.9487,-4.0392,-4.0643,-4.0306,-3.985,-3.9272,-3.8671,-3.8094,-3.7998,-3.7974,-3.7974,-3.7974,-3.7974,-3.7974,-3.7974,-3.8094,-2.6465,-2.6623,-2.6874,-2.7189,-2.7583,-2.8275,-2.8666,-2.8886,-2.8886,-2.8886,-2.8886,-2.8886,-2.8886,-2.8886,-2.8886,-2.8886,-2.8886,-2.8886,-2.8886,-2.8886,-2.8886,-2.8886,-2.8886,-2.8886,-2.8856,-2.8886,-2.8886,-2.8856,-2.8886,-2.8886,-2.8886,-2.8886,-2.8886,-2.8886,-2.8871,-2.8798,-2.8505,-2.8066,-2.7954,-2.8339,-2.8987,-2.9617,-3.0764,-3.2175,-3.2963,-3.3312,-3.3817,-3.3817,-3.3817,-3.3817,-3.3817,-3.3817,-3.3817,-3.3817,-3.3955,-3.4024,-3.4024,-3.4232,-3.437,-3.437,-3.4439,-3.4383,-3.4078,-3.3916,-3.3502,-3.3035,-3.2643,-3.2478,-3.2533,-3.2551,-3.2478,-3.2423,-3.2478,-3.2533,-3.2342,-3.2216,-3.2329,-3.2525,-3.2395,-3.2143,-3.1866,-3.1607,-3.1763,-3.2166,-3.2422,-3.2549,-3.2804,-3.3102,-3.3165,-3.3102,-3.3165,-3.3292,-3.3355,-3.3481,-3.3902,-3.4403,-3.5746,-3.7067,-3.8291,-3.9416,-4.0582,-4.098,-4.0643,-4.009,-3.9465,-3.8888,-3.8359,-3.807,-3.7974,-3.7974,-3.7974,-3.7974,-3.7974,-3.7974,-3.8142,-2.6623,-2.7032,-2.711,-2.7647,-2.8368,-2.873,-2.8886,-2.8886,-2.8886,-2.8886,-2.8886,-2.8886,-2.8886,-2.8886,-2.8886,-2.8886,-2.8886,-2.8886,-2.8886,-2.8886,-2.8886,-2.8886,-2.8886,-2.8886,-2.8886,-2.8886,-2.8886,-2.8886,-2.8886,-2.8886,-2.8886,-2.8886,-2.8886,-2.8886,-2.8886,-2.8886,-2.8681,-2.8447,-2.8157,-2.8238,-2.8691,-2.9142,-2.9712,-3.1613,-3.2316,-3.2684,-3.3539,-3.3886,-3.3798,-3.3817,-3.3817,-3.3817,-3.3817,-3.3817,-3.4024,-3.4163,-3.4094,-3.4094,-3.4163,-3.4163,-3.4024,-3.3955,-3.3817,-3.3812,-3.3555,-3.3335,-3.3046,-3.2973,-3.3028,-3.3028,-3.2973,-3.2826,-3.2808,-3.279,-3.271,-3.2848,-3.3132,-3.3199,-3.3002,-3.2665,-3.2181,-3.1903,-3.157,-3.1955,-3.2294,-3.2294,-3.2613,-3.3038,-3.3228,-3.3228,-3.3292,-3.3418,-3.3418,-3.3418,-3.3607,-3.4278,-3.55,-3.6785,-3.7992,-3.9439,-4.0721,-4.1019,-4.098,-4.0379,-3.9777,-3.9248,-3.8743,-3.8455,-3.8142,-3.7974,-3.7974,-3.7974,-3.7974,-3.7974,-3.8359,-2.6874,-2.711,-2.7726,-2.8275,-2.8744,-2.8886,-2.8886,-2.8886,-2.8886,-2.8886,-2.8886,-2.8886,-2.8886,-2.8886,-2.8886,-2.8886,-2.8886,-2.8886,-2.8886,-2.8886,-2.8886,-2.8886,-2.8886,-2.8886,-2.8886,-2.8886,-2.8886,-2.8886,-2.8886,-2.8886,-2.8886,-2.8886,-2.8886,-2.8886,-2.8886,-2.8886,-2.8812,-2.8695,-2.8461,-2.8127,-2.8119,-2.8954,-2.9801,-3.1182,-3.1929,-3.3069,-3.3853,-3.4251,-3.4024,-3.3886,-3.3817,-3.3817,-3.3817,-3.3817,-3.3886,-3.3955,-3.4163,-3.4163,-3.4094,-3.4094,-3.4094,-3.3886,-3.3817,-3.3817,-3.3743,-3.3596,-3.3505,-3.3486,-3.3468,-3.345,-3.3413,-3.323,-3.3101,-3.3065,-3.3096,-3.3501,-3.3924,-3.3823,-3.3652,-3.3124,-3.2599,-3.2097,-3.1663,-3.1699,-3.2038,-3.2358,-3.2676,-3.2975,-3.3228,-3.3292,-3.3292,-3.3418,-3.3418,-3.3418,-3.3544,-3.411,-3.5314,-3.6542,-3.7692,-3.9239,-4.0884,-4.1009,-4.1028,-4.0643,-4.0138,-3.9657,-3.92,-3.8815,-3.8527,-3.8238,-3.7974,-3.7974,-3.7974,-3.7974,-3.8527,-2.711,-2.7412,-2.8197,-2.8666,-2.8886,-2.8886,-2.8886,-2.8886,-2.8886,-2.8886,-2.8886,-2.8886,-2.8886,-2.8886,-2.8886,-2.8886,-2.8886,-2.8886,-2.8886,-2.8886,-2.8886,-2.8886,-2.8886,-2.8886,-2.8886,-2.8886,-2.8886,-2.8886,-2.8886,-2.8886,-2.8886,-2.8886,-2.8886,-2.8886,-2.8886,-2.8886,-2.8886,-2.8871,-2.8695,-2.8359,-2.7876,-2.8477,-2.9818,-3.1032,-3.2027,-3.3179,-3.4279,-3.4658,-3.4301,-3.4024,-3.3955,-3.3817,-3.3817,-3.3817,-3.3886,-3.4094,-3.4232,-3.4301,-3.4163,-3.4163,-3.4232,-3.3955,-3.3817,-3.3817,-3.3817,-3.3688,-3.3688,-3.367,-3.367,-3.367,-3.3651,-3.3523,-3.3661,-3.3761,-3.3792,-3.4066,-3.4448,-3.4557,-3.4127,-3.3482,-3.2852,-3.2153,-3.182,-3.1717,-3.1974,-3.2166,-3.2485,-3.2848,-3.3102,-3.3355,-3.3355,-3.3481,-3.3544,-3.3481,-3.3481,-3.4153,-3.5273,-3.6359,-3.761,-3.918,-4.0711,-4.1,-4.1052,-4.0787,-4.0499,-4.0162,-3.9729,-3.9272,-3.8864,-3.8551,-3.8238,-3.7974,-3.7974,-3.7998,-3.8455,-2.7333,-2.7869,-2.8573,-2.8886,-2.8886,-2.8886,-2.8886,-2.8886,-2.8886,-2.8886,-2.8886,-2.8886,-2.8886,-2.8886,-2.8886,-2.8886,-2.8886,-2.8886,-2.8886,-2.8886,-2.8886,-2.8886,-2.8886,-2.8886,-2.8886,-2.8886,-2.8886,-2.8886,-2.8886,-2.8886,-2.8886,-2.8886,-2.8886,-2.8886,-2.8886,-2.8886,-2.8886,-2.8886,-2.8798,-2.8725,-2.8447,-2.8245,-2.9841,-3.0982,-3.1951,-3.3037,-3.4486,-3.5067,-3.4633,-3.4301,-3.4094,-3.3955,-3.3817,-3.3817,-3.3955,-3.4094,-3.4439,-3.4439,-3.437,-3.4439,-3.4232,-3.4024,-3.3886,-3.3817,-3.3817,-3.3817,-3.3817,-3.3817,-3.3817,-3.3817,-3.3798,-3.3798,-3.4006,-3.4214,-3.4402,-3.459,-3.485,-3.5172,-3.4605,-3.3918,-3.3171,-3.245,-3.206,-3.1893,-3.1846,-3.2038,-3.2294,-3.2594,-3.2975,-3.3228,-3.3355,-3.3607,-3.3796,-3.3733,-3.3733,-3.434,-3.5335,-3.6785,-3.8111,-3.9439,-4.0537,-4.0942,-4.1172,-4.11,-4.0812,-4.0499,-4.0162,-3.9729,-3.932,-3.8888,-3.8575,-3.8262,-3.7974,-3.8046,-3.8286,-2.7947,-2.8651,-2.8808,-2.8886,-2.8886,-2.8886,-2.8886,-2.8886,-2.8886,-2.8886,-2.8886,-2.8886,-2.8886,-2.8886,-2.8886,-2.8886,-2.8886,-2.8886,-2.8886,-2.8886,-2.8886,-2.8886,-2.8886,-2.8886,-2.8886,-2.8886,-2.8886,-2.8886,-2.8886,-2.8886,-2.8886,-2.8886,-2.8886,-2.8886,-2.8886,-2.8886,-2.8886,-2.8886,-2.8886,-2.8827,-2.8754,-2.9013,-3.0044,-3.117,-3.2134,-3.3731,-3.5065,-3.5494,-3.5184,-3.4784,-3.4439,-3.4094,-3.3886,-3.3817,-3.3886,-3.4094,-3.437,-3.4439,-3.4439,-3.4577,-3.4439,-3.4163,-3.4024,-3.3886,-3.3817,-3.3817,-3.3817,-3.3817,-3.3817,-3.3817,-3.3817,-3.3817,-3.3955,-3.4214,-3.4352,-3.4696,-3.4964,-3.5365,-3.5307,-3.4614,-3.3861,-3.3134,-3.2432,-3.2125,-3.1717,-3.191,-3.223,-3.2549,-3.2912,-3.3165,-3.3355,-3.367,-3.3922,-3.4423,-3.4673,-3.4735,-3.5644,-3.7149,-3.8492,-3.9556,-4.0421,-4.0942,-4.1115,-4.1033,-4.1076,-4.086,-4.0499,-4.0138,-3.9705,-3.9272,-3.8936,-3.8599,-3.8238,-3.8022,-3.8214]}]]